[[{"header":{"parameterUnit":"m.s-1","parameterCategory":1,"la1":31.0,"la2":29.5877,"lo1":-88.7671,"lo2":-86.6584,"dy":0.0162,"dx":0.0185,"nx":115,"ny":88,"refTime":"2026-04-13T00:00:00:Z","depth":0,"parameterNumber":2,"parameterNumberName":"U-component_of_WINDS"},"data":[0.0,0.0,0.0,0.0,0.0,0.0,0.0,0.0,0.0,0.0,0.0,0.0,0.0,0.0,0.0,0.0,0.0,0.0,0.0,0.0,0.0,0.0,0.0,0.0,0.0,0.0,0.0,0.0,0.0,0.0,0.0,0.0,0.0,0.0,0.0,0.0,0.0,0.0,0.0,0.0,0.0,0.0,0.0,0.0,0.0,0.0,0.0,0.0,0.0,0.0,0.0,0.0,0.0,0.0,0.0,0.0,0.0,0.0,0.0,0.0,0.0,0.0,0.0,0.0,0.0,0.0,0.0,0.0,0.0,0.0,0.0,0.0,0.0,0.0,0.0,0.0,0.0,0.0,0.0,0.0,0.0,0.0,0.0,0.0,0.0,0.0,0.0,0.0,0.0,0.0,0.0,0.0,0.0,0.0,0.0,0.0,0.0,0.0,0.0,0.0,0.0,0.0,0.0,0.0,0.0,0.0,0.0,0.0,0.0,0.0,0.0,0.0,0.0,0.0,0.0,0.0,0.0,0.0,0.0,0.0,0.0,0.0,0.0,0.0,0.0,0.0,0.0,0.0,0.0,0.0,0.0,0.0,0.0,0.0,0.0,0.0,0.0,0.0,0.0,0.0,0.0,0.0,0.0,0.0,0.0,0.0,0.0,0.0,0.0,0.0,0.0,0.0,0.0,0.0,0.0,0.0,0.0,0.0,0.0,0.0,0.0,0.0,0.0,0.0,0.0,0.0,0.0,0.0,0.0,0.0,0.0,0.0,0.0,0.0,0.0,0.0,0.0,0.0,0.0,0.0,0.0,0.0,0.0,0.0,0.0,0.0,0.0,0.0,0.0,0.0,0.0,0.0,0.0,0.0,0.0,0.0,0.0,0.0,0.0,0.0,0.0,0.0,0.0,0.0,0.0,0.0,0.0,0.0,0.0,0.0,0.0,0.0,0.0,0.0,0.0,0.0,0.0,0.0,0.0,0.0,0.0,0.0,0.0,0.0,0.0,0.0,0.0,0.0,0.0,0.0,0.0,0.0,0.0,0.0,0.0,0.0,0.0,0.0,0.0,0.0,0.0,0.0,0.0,0.0,0.0,0.0,0.0,0.0,0.0,0.0,0.0,0.0,0.0,0.0,0.0,0.0,0.0,0.0,0.0,0.0,0.0,0.0,0.0,0.0,0.0,0.0,0.0,0.0,0.0,0.0,0.0,0.0,0.0,0.0,0.0,0.0,0.0,0.0,0.0,0.0,0.0,0.0,0.0,0.0,0.0,0.0,0.0,0.0,0.0,0.0,0.0,0.0,0.0,0.0,0.0,0.0,0.0,0.0,0.0,0.0,0.0,0.0,0.0,0.0,0.0,0.0,0.0,0.0,0.0,0.0,0.0,0.0,0.0,0.0,0.0,0.0,0.0,0.0,0.0,0.0,0.0,0.0,0.0,0.0,0.0,0.0,0.0,0.0,0.0,0.0,0.0,0.0,0.0,0.0,0.0,0.0,0.0,0.0,0.0,0.0,0.0,0.0,0.0,0.0,0.0,0.0,0.0,0.0,0.0,0.0,0.0,0.0,0.0,0.0,0.0,0.0,0.0,0.0,0.0,0.0,0.0,0.0,0.0,0.0,0.0,0.0,0.0,0.0,0.0,0.0,0.0,0.0,0.0,0.0,0.0,0.0,0.0,0.0,0.0,0.0,0.0,0.0,0.0,0.0,0.0,0.0,0.0,0.0,0.0,0.0,0.0,0.0,0.0,0.0,0.0,0.0,0.0,0.0,0.0,0.0,0.0,0.0,0.0,0.0,0.0,0.0,0.0,0.0,0.0,0.0,0.0,0.0,0.0,0.0,0.0,0.0,0.0,0.0,0.0,0.0,0.0,0.0,0.0,0.0,0.0,0.0,0.0,0.0,0.0,0.0,0.0,0.0,0.0,0.0,0.0,0.0,0.0,0.0,0.0,0.0,0.0,0.0,0.0,0.0,0.0,0.0,0.0,0.0,0.0,0.0,0.0,0.0,0.0,0.0,0.0,0.0,0.0,0.0,0.0,0.0,0.0,0.0,0.0,0.0,0.0,0.0,0.0,0.0,0.0,0.0,0.0,0.0,0.0,0.0,0.0,0.0,0.0,0.0,0.0,0.0,0.0,0.0,0.0,0.0,0.0,0.0,0.0,0.0,0.0,0.0,0.0,0.0,0.0,0.0,0.0,0.0,0.0,0.0,0.0,0.0,0.0,0.0,0.0,0.0,0.0,0.0,0.0,0.0,0.0,0.0,0.0,0.0,0.0,0.0,0.0,0.0,0.0,0.0,0.0,0.0,0.0,0.0,0.0,0.0,0.0,0.0,0.0,0.0,0.0,0.0,0.0,0.0,0.0,0.0,0.0,0.0,0.0,0.0,0.0,0.0,0.0,0.0,0.0,0.0,0.0,0.0,0.0,0.0,0.0,0.0,0.0,0.0,0.0,0.0,0.0,0.0,0.0,0.0,0.0,0.0,0.0,0.0,0.0,0.0,0.0,0.0,0.0,0.0,0.0,0.0,0.0,0.0,0.0,0.0,0.0,0.0,0.0,0.0,0.0,0.0,0.0,0.0,0.0,0.0,0.0,0.0,0.0,0.0,0.0,0.0,0.0,0.0,0.0,0.0,0.0,0.0,0.0,0.0,0.0,0.0,0.0,0.0,0.0,0.0,0.0,0.0,0.0,0.0,0.0,0.0,0.0,0.0,0.0,0.0,0.0,0.0,0.0,0.0,0.0,0.0,0.0,0.0,0.0,0.0,0.0,0.0,0.0,0.0,0.0,0.0,0.0,0.0,0.0,0.0,0.0,0.0,0.0,0.0,0.0,0.0,0.0,0.0,0.0,0.0,0.0,0.0,0.0,0.0,0.0,0.0,0.0,0.0,0.0,0.0,0.0,0.0,0.0,0.0,0.0,0.0,0.0,0.0,0.0,0.0,0.0,0.0,0.0,0.0,0.0,0.0,0.0,0.0,0.0,0.0,0.0,0.0,0.0,0.0,0.0,0.0,0.0,0.0,0.0,0.0,0.0,0.0,0.0,0.0,0.0,0.0,0.0,0.0,0.0,0.0,0.0,0.0,0.0,0.0,0.0,0.0,0.0,0.0,0.0,0.0,0.0,0.0,0.0,0.0,0.0,0.0,0.0,0.0,0.0,0.0,0.0,0.0,0.0,0.0,0.0,0.0,0.0,0.0,0.0,0.0,0.0,0.0,0.0,0.0,0.0,0.0,0.0,0.0,0.0,0.0,0.0,0.0,0.0,0.0,0.0,0.0,0.0,0.0,0.0,0.0,0.0,0.0,0.0,0.0,0.0,0.0,0.0,0.0,0.0,0.0,0.0,0.0,0.0,0.0,0.0,0.0,0.0,0.0,0.0,0.0,0.0,0.0,0.0,0.0,0.0,0.0,0.0,0.0,0.0,0.0,0.0,0.0,0.0,0.0,0.0,0.0,0.0,0.0,0.0,0.0,0.0,0.0,0.0,0.0,0.0,0.0,0.0,0.0,0.0,0.0,0.0,0.0,0.0,0.0,0.0,0.0,0.0,0.0,0.0,0.0,0.0,0.0,0.0,0.0,0.0,0.0,0.0,0.0,0.0,0.0,0.0,0.0,0.0,0.0,0.0,0.0,0.0,0.0,0.0,0.0,0.0,0.0,0.0,0.0,0.0,0.0,0.0,0.0,0.0,0.0,0.0,0.0,0.0,0.0,0.0,0.0,0.0,0.0,0.0,0.0,0.0,0.0,0.0,0.0,0.0,0.0,0.0,0.0,0.0,0.0,0.0,0.0,0.0,0.0,0.0,0.0,0.0,0.0,0.0,0.0,0.0,0.0,0.0,0.0,0.0,0.0,0.0,0.0,0.0,0.0,0.0,0.0,0.0,0.0,0.0,0.0,0.0,0.0,0.0,0.0,0.0,0.0,0.0,0.0,0.0,0.0,0.0,0.0,0.0,0.0,0.0,0.0,0.0,0.0,0.0,0.0,0.0,0.0,0.0,0.0,0.0,0.0,0.0,0.0,0.0,0.0,0.0,0.0,0.0,0.0,0.0,0.0,0.0,0.0,0.0,0.0,0.0,0.0,0.0,0.0,0.0,0.0,0.0,0.0,0.0,0.0,0.0,0.0,0.0,0.0,0.0,0.0,0.0,0.0,0.0,0.0,0.0,0.0,0.0,0.0,0.0,0.0,0.0,0.0,0.0,0.0,0.0,0.0,0.0,0.0,0.0,0.0,0.0,0.0,0.0,0.0,0.0,0.0,0.0,0.0,0.0,0.0,-0.7978,0.0,0.0,0.0,0.0,0.0,0.0,0.0,0.0,0.0,0.0,0.0,0.0,0.0,0.0,0.0,0.0,0.0,0.0,0.0,0.0,0.0,0.0,0.0,0.0,0.0,0.0,0.0,0.0,0.0,0.0,0.0,0.0,0.0,0.0,0.0,0.0,0.0,0.0,0.0,0.0,0.0,0.0,0.0,0.0,0.0,0.0,0.0,0.0,0.0,0.0,0.0,0.0,0.0,0.0,0.0,0.0,0.0,0.0,0.0,0.0,0.0,0.0,0.0,0.0,0.0,0.0,0.0,0.0,0.0,0.0,0.0,0.0,0.0,0.0,0.0,0.0,0.0,0.0,0.0,0.0,0.0,0.0,0.0,0.0,0.0,0.0,0.0,0.0,0.0,0.0,0.0,0.0,0.0,0.0,0.0,0.0,0.0,0.0,0.0,0.0,0.0,0.0,0.0,0.0,0.0,0.0,0.0,0.0,0.0,0.0,-0.8191,-0.8118,-0.7962,-0.7906,-0.7906,0.0,0.0,0.0,0.0,0.0,0.0,0.0,0.0,0.0,0.0,0.0,0.0,0.0,0.0,0.0,0.0,0.0,0.0,0.0,0.0,0.0,0.0,0.0,0.0,0.0,0.0,0.0,0.0,0.0,0.0,0.0,0.0,0.0,0.0,0.0,0.0,0.0,0.0,0.0,0.0,0.0,0.0,0.0,0.0,0.0,0.0,0.0,0.0,0.0,0.0,0.0,0.0,0.0,0.0,0.0,0.0,0.0,0.0,0.0,0.0,0.0,0.0,0.0,0.0,0.0,0.0,0.0,0.0,0.0,0.0,0.0,0.0,0.0,0.0,0.0,0.0,0.0,0.0,0.0,0.0,0.0,0.0,0.0,0.0,0.0,0.0,0.0,0.0,0.0,0.0,0.0,0.0,0.0,0.0,0.0,0.0,0.0,0.0,0.0,0.0,0.0,0.0,0.0,0.0,0.0,0.0,0.0,0.0,0.0,0.0,0.0,0.0,-0.8325,-0.8248,-0.822,0.0,0.0,0.0,0.0,0.0,0.0,0.0,0.0,0.0,0.0,0.0,0.0,0.0,0.0,0.0,0.0,0.0,0.0,0.0,0.0,0.0,0.0,0.0,0.0,0.0,0.0,0.0,0.0,0.0,0.0,0.0,0.0,0.0,0.0,0.0,0.0,0.0,0.0,0.0,0.0,0.0,0.0,0.0,0.0,0.0,0.0,0.0,0.0,0.0,0.0,0.0,0.0,0.0,0.0,0.0,0.0,0.0,0.0,0.0,0.0,0.0,0.0,0.0,0.0,0.0,0.0,0.0,0.0,0.0,0.0,0.0,0.0,0.0,0.0,0.0,0.0,0.0,0.0,0.0,0.0,0.0,0.0,0.0,0.0,0.0,0.0,0.0,0.0,0.0,0.0,0.0,0.0,0.0,0.0,0.0,0.0,0.0,0.0,0.0,0.0,0.0,0.0,0.0,0.0,0.0,0.0,0.0,0.0,0.0,0.0,-0.8866,-0.9354,-0.9349,0.0,-0.9171,0.0,0.0,0.0,0.0,0.0,0.0,0.0,0.0,0.0,0.0,0.0,0.0,0.0,0.0,0.0,0.0,0.0,0.0,0.0,0.0,0.0,0.0,0.0,0.0,0.0,0.0,0.0,0.0,0.0,0.0,0.0,0.0,0.0,0.0,0.0,0.0,0.0,0.0,0.0,0.0,0.0,0.0,0.0,0.0,0.0,0.0,0.0,0.0,0.0,0.0,0.0,0.0,0.0,0.0,0.0,0.0,0.0,0.0,0.0,0.0,0.0,0.0,0.0,0.0,0.0,0.0,0.0,0.0,0.0,0.0,0.0,0.0,0.0,0.0,0.0,0.0,0.0,0.0,0.0,0.0,0.0,0.0,0.0,0.0,0.0,0.0,0.0,0.0,0.0,0.0,0.0,0.0,0.0,0.0,0.0,0.0,0.0,0.0,0.0,0.0,0.0,0.0,0.0,0.0,0.0,0.0,0.0,0.0,0.0,0.0,-0.9031,-0.9247,-0.9188,-0.9127,0.0,0.0,0.0,0.0,0.0,0.0,0.0,0.0,0.0,0.0,0.0,0.0,0.0,0.0,0.0,0.0,0.0,0.0,0.0,0.0,0.0,0.0,0.0,0.0,0.0,0.0,0.0,0.0,0.0,0.0,0.0,0.0,0.0,0.0,0.0,0.0,0.0,0.0,0.0,0.0,0.0,0.0,0.0,0.0,0.0,0.0,0.0,0.0,0.0,0.0,0.0,0.0,0.0,0.0,0.0,0.0,0.0,0.0,0.0,0.0,0.0,0.0,0.0,0.0,0.0,0.0,0.0,0.0,0.0,0.0,0.0,0.0,0.0,0.0,0.0,0.0,0.0,0.0,0.0,0.0,0.0,0.0,0.0,0.0,0.0,0.0,0.0,0.0,0.0,0.0,0.0,0.0,0.0,0.0,0.0,0.0,0.0,0.0,0.0,0.0,0.0,0.0,0.0,0.0,0.0,0.0,0.0,0.0,0.0,0.0,-0.9274,0.0,-0.9584,-0.9364,-0.9167,-0.9017,0.0,0.0,0.0,0.0,0.0,0.0,0.0,0.0,0.0,0.0,0.0,0.0,0.0,0.0,0.0,0.0,0.0,0.0,0.0,0.0,0.0,0.0,0.0,0.0,0.0,0.0,0.0,0.0,0.0,0.0,0.0,0.0,0.0,0.0,0.0,0.0,0.0,0.0,0.0,0.0,0.0,0.0,0.0,0.0,0.0,0.0,0.0,0.0,0.0,0.0,0.0,0.0,0.0,0.0,0.0,0.0,0.0,0.0,0.0,0.0,0.0,0.0,0.0,0.0,0.0,0.0,0.0,0.0,0.0,0.0,0.0,0.0,0.0,0.0,0.0,0.0,0.0,0.0,0.0,0.0,0.0,0.0,0.0,0.0,0.0,0.0,0.0,0.0,0.0,0.0,0.0,0.0,0.0,0.0,0.0,0.0,0.0,0.0,0.0,0.0,0.0,0.0,0.0,0.0,0.0,0.0,0.0,0.0,0.0,-1.0216,-1.0216,-1.0771,-1.0318,-0.9799,0.0,0.0,0.0,0.0,0.0,0.0,0.0,0.0,0.0,0.0,0.0,0.0,0.0,0.0,0.0,0.0,0.0,0.0,0.0,0.0,0.0,0.0,0.0,0.0,0.0,0.0,0.0,0.0,0.0,0.0,0.0,0.0,0.0,0.0,0.0,0.0,0.0,0.0,0.0,0.0,0.0,0.0,0.0,0.0,0.0,0.0,0.0,0.0,0.0,0.0,0.0,0.0,0.0,0.0,0.0,0.0,0.0,0.0,0.0,0.0,0.0,0.0,0.0,0.0,0.0,0.0,0.0,0.0,0.0,0.0,0.0,0.0,0.0,0.0,0.0,0.0,0.0,0.0,0.0,0.0,0.0,0.0,0.0,0.0,0.0,0.0,0.0,0.0,0.0,0.0,0.0,0.0,0.0,0.0,0.0,0.0,0.0,0.0,0.0,0.0,0.0,0.0,0.0,0.0,0.0,0.0,0.0,0.0,0.0,-0.9578,-0.9696,-1.0245,-1.118,-1.011,-0.9591,0.0,0.0,0.0,0.0,0.0,0.0,0.0,0.0,0.0,0.0,0.0,0.0,0.0,0.0,0.0,0.0,0.0,0.0,0.0,0.0,0.0,0.0,0.0,0.0,0.0,0.0,0.0,0.0,0.0,0.0,0.0,0.0,0.0,0.0,0.0,0.0,0.0,0.0,0.0,0.0,0.0,0.0,0.0,0.0,0.0,0.0,0.0,0.0,0.0,0.0,0.0,0.0,0.0,0.0,0.0,0.0,0.0,0.0,0.0,0.0,0.0,0.0,0.0,0.0,0.0,0.0,0.0,0.0,0.0,0.0,0.0,0.0,0.0,0.0,0.0,0.0,0.0,0.0,0.0,0.0,0.0,0.0,0.0,0.0,0.0,0.0,0.0,0.0,0.0,0.0,0.0,0.0,0.0,0.0,0.0,0.0,0.0,0.0,0.0,0.0,0.0,0.0,0.0,0.0,0.0,0.0,0.0,0.0,0.0,-0.9591,0.0,-1.0652,0.0,-1.0079,-0.9467,0.0,0.0,0.0,0.0,0.0,0.0,0.0,0.0,0.0,0.0,0.0,0.0,0.0,0.0,0.0,0.0,0.0,0.0,0.0,0.0,0.0,0.0,0.0,0.0,0.0,0.0,0.0,0.0,0.0,0.0,0.0,0.0,0.0,0.0,0.0,0.0,0.0,0.0,0.0,0.0,0.0,0.0,0.0,0.0,0.0,0.0,0.0,0.0,0.0,0.0,0.0,0.0,0.0,0.0,0.0,0.0,0.0,0.0,0.0,0.0,0.0,0.0,0.0,0.0,0.0,0.0,0.0,0.0,0.0,0.0,0.0,0.0,0.0,0.0,0.0,0.0,0.0,0.0,0.0,0.0,0.0,0.0,0.0,0.0,0.0,0.0,0.0,0.0,0.0,0.0,0.0,0.0,0.0,0.0,0.0,0.0,0.0,0.0,0.0,0.0,0.0,0.0,0.0,0.0,0.0,0.0,0.0,0.0,-0.9636,-1.0988,-1.1603,-1.1505,-1.0655,-1.0326,-0.9475,0.0,0.0,0.0,0.0,0.0,0.0,0.0,0.0,0.0,0.0,0.0,0.0,0.0,0.0,0.0,0.0,0.0,0.0,0.0,0.0,0.0,0.0,0.0,0.0,0.0,0.0,0.0,0.0,0.0,0.0,0.0,0.0,0.0,0.0,0.0,0.0,0.0,0.0,0.0,0.0,0.0,0.0,0.0,0.0,0.0,0.0,0.0,0.0,0.0,0.0,0.0,0.0,0.0,0.0,0.0,0.0,0.0,0.0,0.0,0.0,0.0,0.0,0.0,0.0,0.0,0.0,0.0,0.0,0.0,0.0,0.0,0.0,0.0,0.0,0.0,0.0,0.0,0.0,0.0,0.0,0.0,0.0,0.0,0.0,0.0,0.0,0.0,0.0,0.0,0.0,0.0,0.0,0.0,0.0,0.0,0.0,0.0,0.0,0.0,0.0,0.0,0.0,0.0,0.0,0.0,0.0,0.0,0.0,0.0,-1.0345,-1.102,-1.1498,-1.1714,-1.045,-0.9739,0.0,0.0,0.0,0.0,0.0,0.0,0.0,0.0,0.0,0.0,0.0,0.0,0.0,0.0,0.0,0.0,0.0,0.0,0.0,0.0,0.0,0.0,0.0,0.0,0.0,0.0,0.0,0.0,0.0,0.0,0.0,0.0,0.0,0.0,0.0,0.0,0.0,0.0,0.0,0.0,0.0,0.0,0.0,0.0,0.0,0.0,0.0,0.0,0.0,0.0,0.0,0.0,0.0,0.0,0.0,0.0,0.0,0.0,0.0,0.0,0.0,0.0,0.0,0.0,0.0,0.0,0.0,0.0,0.0,0.0,0.0,0.0,0.0,0.0,0.0,0.0,0.0,0.0,0.0,0.0,0.0,0.0,0.0,0.0,0.0,0.0,0.0,0.0,0.0,0.0,0.0,0.0,0.0,0.0,0.0,0.0,0.0,0.0,0.0,0.0,0.0,0.0,0.0,0.0,0.0,0.0,0.0,0.0,0.0,-1.092,-1.1833,-1.2434,-1.2597,-1.1129,-1.026,-1.0088,0.0,0.0,0.0,0.0,0.0,0.0,0.0,0.0,0.0,0.0,0.0,0.0,0.0,0.0,0.0,0.0,0.0,0.0,0.0,0.0,0.0,0.0,0.0,0.0,0.0,0.0,0.0,0.0,0.0,0.0,0.0,0.0,0.0,0.0,0.0,0.0,0.0,0.0,0.0,0.0,0.0,0.0,0.0,0.0,0.0,0.0,0.0,0.0,0.0,0.0,0.0,0.0,0.0,0.0,0.0,0.0,0.0,0.0,0.0,0.0,0.0,0.0,0.0,0.0,0.0,0.0,0.0,0.0,0.0,0.0,0.0,0.0,0.0,0.0,0.0,0.0,0.0,0.0,0.0,0.0,0.0,0.0,0.0,0.0,0.0,0.0,0.0,0.0,0.0,0.0,0.0,0.0,0.0,0.0,0.0,0.0,0.0,0.0,0.0,0.0,0.0,0.0,0.0,0.0,0.0,0.0,0.0,0.0,-1.2491,-1.381,-1.4018,-1.3139,-1.2139,-1.0913,0.0,0.0,0.0,0.0,0.0,0.0,0.0,0.0,0.0,0.0,0.0,0.0,0.0,0.0,0.0,0.0,0.0,0.0,0.0,0.0,0.0,0.0,0.0,0.0,0.0,0.0,0.0,0.0,0.0,0.0,0.0,0.0,0.0,0.0,0.0,0.0,0.0,0.0,0.0,0.0,0.0,0.0,0.0,0.0,0.0,0.0,0.0,0.0,0.0,0.0,0.0,0.0,0.0,0.0,0.0,0.0,0.0,0.0,0.0,0.0,0.0,0.0,0.0,0.0,0.0,0.0,0.0,0.0,0.0,0.0,0.0,0.0,0.0,0.0,0.0,0.0,0.0,0.0,0.0,0.0,0.0,0.0,0.0,0.0,0.0,0.0,0.0,0.0,0.0,0.0,0.0,0.0,0.0,0.0,0.0,0.0,0.0,0.0,0.0,0.0,0.0,0.0,0.0,0.0,0.0,0.0,0.0,0.0,0.0,-1.4614,-1.4588,-1.4131,-1.3329,-1.1737,-1.0696,0.0,0.0,0.0,0.0,0.0,0.0,0.0,0.0,0.0,0.0,0.0,0.0,0.0,0.0,0.0,0.0,0.0,0.0,0.0,0.0,0.0,0.0,0.0,0.0,0.0,0.0,0.0,0.0,0.0,0.0,0.0,0.0,0.0,0.0,0.0,0.0,0.0,0.0,0.0,0.0,0.0,0.0,0.0,0.0,0.0,0.0,0.0,0.0,0.0,0.0,0.0,0.0,0.0,0.0,0.0,0.0,0.0,0.0,0.0,0.0,0.0,0.0,0.0,0.0,0.0,0.0,0.0,0.0,0.0,0.0,0.0,0.0,0.0,0.0,0.0,0.0,0.0,0.0,0.0,0.0,0.0,0.0,0.0,0.0,0.0,0.0,0.0,0.0,0.0,0.0,0.0,0.0,0.0,0.0,0.0,0.0,0.0,0.0,0.0,0.0,0.0,0.0,0.0,0.0,0.0,0.0,0.0,0.0,-1.3219,-1.5528,-1.4892,-1.4284,-1.387,-1.2739,-1.163,0.0,0.0,0.0,0.0,0.0,0.0,0.0,0.0,0.0,0.0,0.0,0.0,0.0,0.0,0.0,0.0,0.0,0.0,0.0,0.0,0.0,0.0,0.0,0.0,0.0,0.0,0.0,0.0,0.0,0.0,0.0,0.0,0.0,0.0,0.0,0.0,0.0,0.0,0.0,0.0,0.0,0.0,0.0,0.0,0.0,0.0,0.0,0.0,0.0,0.0,0.0,0.0,0.0,0.0,0.0,0.0,0.0,0.0,0.0,0.0,0.0,0.0,0.0,0.0,0.0,0.0,0.0,0.0,0.0,0.0,0.0,0.0,0.0,0.0,0.0,0.0,0.0,0.0,0.0,0.0,0.0,0.0,0.0,0.0,0.0,0.0,0.0,0.0,0.0,0.0,0.0,0.0,0.0,0.0,0.0,0.0,0.0,0.0,0.0,0.0,0.0,0.0,0.0,0.0,0.0,0.0,0.0,0.0,-1.4108,-1.5571,-1.4943,-1.4613,-1.4596,-1.4281,-1.3016,0.0,0.0,0.0,0.0,0.0,0.0,0.0,0.0,0.0,0.0,0.0,0.0,0.0,0.0,0.0,0.0,0.0,0.0,0.0,0.0,0.0,0.0,0.0,0.0,0.0,0.0,0.0,0.0,0.0,0.0,0.0,0.0,0.0,0.0,0.0,0.0,0.0,0.0,0.0,0.0,0.0,0.0,0.0,0.0,0.0,0.0,0.0,0.0,0.0,0.0,0.0,0.0,0.0,0.0,0.0,0.0,0.0,0.0,0.0,0.0,0.0,0.0,0.0,0.0,0.0,0.0,0.0,0.0,0.0,0.0,0.0,0.0,0.0,0.0,0.0,0.0,0.0,0.0,0.0,0.0,0.0,0.0,0.0,0.0,0.0,0.0,0.0,0.0,0.0,0.0,0.0,0.0,0.0,0.0,0.0,0.0,0.0,0.0,0.0,0.0,0.0,0.0,0.0,0.0,0.0,0.0,0.0,0.0,-1.4124,-1.5544,-1.5443,-1.5375,-1.5358,-1.4037,-1.2717,0.0,0.0,0.0,0.0,0.0,0.0,0.0,0.0,0.0,0.0,0.0,0.0,0.0,0.0,0.0,0.0,0.0,0.0,0.0,0.0,0.0,0.0,0.0,0.0,0.0,0.0,0.0,0.0,0.0,0.0,0.0,0.0,0.0,0.0,0.0,0.0,0.0,0.0,0.0,0.0,0.0,0.0,0.0,0.0,0.0,0.0,0.0,0.0,-0.326,0.0,0.0,0.0,0.0,0.0,0.0,0.0,0.0,0.0,0.0,0.0,0.0,0.0,0.0,0.0,0.0,0.0,0.0,0.0,0.0,0.0,0.0,0.0,0.0,0.0,0.0,0.0,0.0,0.0,0.0,0.0,0.0,0.0,0.0,0.0,0.0,0.0,0.0,0.0,0.0,0.0,0.0,0.0,0.0,0.0,0.0,0.0,0.0,0.0,0.0,0.0,0.0,0.0,0.0,0.0,0.0,0.0,0.0,0.0,-1.4979,-1.6062,-1.5791,-1.5595,-1.5578,-1.5078,-1.3792,0.0,0.0,0.0,0.0,0.0,0.0,0.0,0.0,0.0,0.0,0.0,0.0,0.0,0.0,0.0,0.0,0.0,0.0,0.0,0.0,0.0,0.0,0.0,0.0,0.0,0.0,0.0,0.0,0.0,0.0,0.0,0.0,0.0,0.0,0.0,0.0,0.0,0.0,0.0,0.0,0.0,0.0,0.0,0.0,0.0,0.0,0.0,0.0,0.0,0.0,0.0,0.0,0.0,0.0,0.0,0.0,0.0,0.0,0.0,0.0,0.0,0.0,0.0,0.0,0.0,0.0,0.0,0.0,0.0,0.0,0.0,0.0,0.0,0.0,0.0,0.0,0.0,0.0,0.0,0.0,0.0,0.0,0.0,0.0,0.0,0.0,0.0,0.0,0.0,0.0,0.0,0.0,0.0,0.0,0.0,0.0,0.0,0.0,0.0,0.0,0.0,0.0,0.0,0.0,0.0,0.0,0.0,-1.4597,-1.595,-1.6648,-1.6197,-1.5893,-1.5781,-1.6427,-1.5258,-1.2106,0.0,0.0,0.0,0.0,0.0,0.0,0.0,0.0,0.0,0.0,0.0,0.0,0.0,0.0,0.0,0.0,0.0,0.0,0.0,0.0,0.0,0.0,0.0,0.0,0.0,0.0,0.0,0.0,0.0,0.0,0.0,0.0,0.0,0.0,0.0,0.0,0.0,0.0,-0.3995,-0.4621,0.0,0.0,0.0,0.0,0.0,0.0,0.0,0.0,-0.3811,0.0,0.0,0.0,0.0,0.0,0.0,0.0,0.0,0.0,0.0,0.0,0.0,0.0,0.0,0.0,0.0,0.0,0.0,0.0,0.0,0.0,0.0,0.0,0.0,0.0,0.0,0.0,0.0,0.0,0.0,0.0,0.0,0.0,0.0,0.0,0.0,0.0,0.0,0.0,0.0,0.0,0.0,0.0,0.0,0.0,0.0,0.0,0.0,0.0,0.0,0.0,0.0,0.0,0.0,0.0,0.0,-1.4106,-1.5105,-1.596,-1.6699,-1.7185,-1.7151,-1.6553,-1.697,-1.5999,-1.3537,0.0,0.0,0.0,0.0,0.0,0.0,0.0,0.0,0.0,0.0,0.0,0.0,0.0,0.0,0.0,0.0,0.0,0.0,0.0,0.0,0.0,0.0,0.0,0.0,0.0,0.0,0.0,0.0,0.0,0.0,0.0,0.0,0.0,0.0,0.0,0.0,0.0,0.0,0.0,-0.4805,-0.5001,0.0,0.0,0.0,0.0,0.0,0.0,0.0,0.0,-0.3973,0.0,0.0,0.0,0.0,0.0,0.0,0.0,0.0,0.0,0.0,0.0,0.0,0.0,0.0,0.0,0.0,0.0,0.0,0.0,0.0,0.0,0.0,0.0,0.0,0.0,0.0,0.0,0.0,0.0,0.0,0.0,0.0,0.0,0.0,0.0,0.0,0.0,0.0,0.0,0.0,0.0,0.0,0.0,0.0,0.0,0.0,0.0,0.0,0.0,0.0,0.0,0.0,0.0,0.0,0.0,-1.3921,-1.5402,-1.6333,-1.6705,-1.7439,-1.7456,-1.6722,-1.6764,-1.5818,0.0,0.0,0.0,0.0,0.0,0.0,0.0,0.0,0.0,0.0,0.0,0.0,0.0,0.0,0.0,0.0,0.0,0.0,0.0,0.0,0.0,0.0,0.0,0.0,0.0,0.0,0.0,0.0,0.0,0.0,0.0,0.0,0.0,0.0,0.0,0.0,0.0,0.0,0.0,0.0,-0.5176,-0.533,-0.495,0.0,0.0,0.0,0.0,0.0,0.0,-0.416,-0.3994,0.0,0.0,0.0,0.0,0.0,0.0,0.0,0.0,0.0,0.0,0.0,0.0,0.0,0.0,0.0,0.0,0.0,0.0,0.0,0.0,0.0,0.0,0.0,0.0,0.0,0.0,0.0,0.0,0.0,0.0,0.0,0.0,0.0,0.0,0.0,0.0,0.0,0.0,0.0,0.0,0.0,0.0,0.0,0.0,0.0,0.0,0.0,0.0,0.0,0.0,0.0,0.0,0.0,0.0,0.0,-1.365,-1.5487,-1.6621,-1.6925,-1.7507,-1.7523,-1.6942,-1.6642,-1.5693,0.0,0.0,0.0,0.0,0.0,0.0,0.0,0.0,0.0,0.0,0.0,0.0,0.0,0.0,0.0,0.0,0.0,0.0,0.0,0.0,0.0,0.0,0.0,0.0,0.0,0.0,0.0,0.0,0.0,0.0,0.0,0.0,0.0,0.0,0.0,0.0,0.0,0.0,0.0,0.0,0.0,-0.575,-0.5312,-0.5399,0.0,0.0,0.0,0.0,-0.4711,-0.4505,0.0,0.0,0.0,0.0,0.0,0.0,0.0,0.0,0.0,0.0,0.0,0.0,0.0,0.0,0.0,0.0,0.0,0.0,0.0,0.0,0.0,0.0,0.0,0.0,0.0,0.0,0.0,0.0,0.0,0.0,0.0,0.0,0.0,0.0,0.0,0.0,0.0,0.0,0.0,0.0,0.0,0.0,0.0,0.0,0.0,0.0,0.0,0.0,0.0,0.0,0.0,0.0,0.0,0.0,0.0,0.0,-1.4309,-1.5257,-1.6373,-1.7608,-1.7777,-1.7749,-1.7665,-1.7358,-1.6397,0.0,0.0,0.0,0.0,0.0,0.0,0.0,0.0,0.0,0.0,0.0,0.0,0.0,0.0,0.0,0.0,0.0,0.0,0.0,0.0,0.0,0.0,0.0,0.0,0.0,0.0,0.0,0.0,0.0,0.0,0.0,0.0,0.0,0.0,0.0,0.0,0.0,0.0,0.0,0.0,0.0,-0.6107,-0.5768,-0.5788,-0.5905,0.0,0.0,-0.5485,-0.6062,-0.5928,0.0,0.0,0.0,0.0,0.0,0.0,0.0,0.0,0.0,0.0,0.0,0.0,0.0,0.0,0.0,0.0,0.0,0.0,0.0,0.0,0.0,0.0,0.0,0.0,0.0,0.0,0.0,0.0,0.0,0.0,0.0,0.0,0.0,0.0,0.0,0.0,0.0,0.0,0.0,0.0,0.0,0.0,0.0,0.0,0.0,0.0,0.0,0.0,0.0,0.0,0.0,0.0,0.0,0.0,0.0,-1.2432,-1.502,-1.5453,-1.6323,-1.7732,-1.7789,-1.7597,-1.7196,-1.6898,-1.5753,0.0,0.0,0.0,0.0,0.0,0.0,0.0,0.0,0.0,0.0,0.0,0.0,0.0,0.0,0.0,0.0,0.0,0.0,0.0,0.0,0.0,0.0,0.0,0.0,0.0,0.0,0.0,0.0,0.0,0.0,0.0,0.0,0.0,0.0,0.0,0.0,0.0,0.0,0.0,0.0,0.0,0.0,-0.5971,-0.6287,0.0,0.0,0.0,-0.6003,-0.6147,0.0,0.0,0.0,0.0,0.0,0.0,0.0,0.0,0.0,0.0,0.0,0.0,0.0,0.0,0.0,0.0,0.0,0.0,0.0,0.0,0.0,0.0,0.0,0.0,0.0,0.0,0.0,0.0,0.0,0.0,0.0,0.0,0.0,0.0,0.0,0.0,0.0,0.0,0.0,0.0,0.0,0.0,0.0,0.0,0.0,0.0,0.0,0.0,0.0,0.0,0.0,0.0,0.0,0.0,0.0,0.0,0.0,-1.5528,-1.5595,-1.6323,-1.7732,-1.7789,-1.7456,-1.6733,-1.6675,0.0,0.0,0.0,0.0,0.0,0.0,0.0,0.0,0.0,0.0,0.0,0.0,0.0,0.0,0.0,0.0,0.0,0.0,0.0,0.0,0.0,0.0,0.0,0.0,0.0,0.0,0.0,-0.3361,0.0,0.0,0.0,0.0,0.0,0.0,0.0,0.0,0.0,0.0,0.0,0.0,0.0,0.0,-0.668,-0.6441,-0.7163,-0.7473,0.0,0.0,-0.6971,-0.6744,-0.6696,-0.6496,0.0,0.0,0.0,0.0,0.0,0.0,0.0,0.0,0.0,0.0,0.0,0.0,0.0,0.0,0.0,0.0,0.0,0.0,0.0,0.0,0.0,0.0,0.0,0.0,0.0,0.0,0.0,0.0,0.0,0.0,0.0,0.0,0.0,0.0,0.0,0.0,0.0,0.0,0.0,0.0,0.0,0.0,0.0,0.0,0.0,0.0,0.0,0.0,0.0,0.0,0.0,0.0,0.0,0.0,0.0,-1.5477,-1.5595,-1.6306,-1.7732,-1.7789,-1.7456,-1.6749,-1.7349,-1.6204,0.0,0.0,0.0,0.0,0.0,0.0,0.0,0.0,0.0,0.0,0.0,0.0,0.0,0.0,0.0,0.0,0.0,0.0,0.0,0.0,0.0,0.0,0.0,0.0,0.0,0.0,0.0,0.0,0.0,0.0,0.0,0.0,0.0,0.0,0.0,0.0,0.0,0.0,0.0,0.0,0.0,-0.7737,-0.7533,-0.8601,-0.915,0.0,0.0,-0.8781,-0.8623,-0.8596,-0.8231,-0.7083,0.0,0.0,0.0,0.0,0.0,0.0,0.0,0.0,0.0,0.0,0.0,0.0,0.0,0.0,0.0,0.0,0.0,0.0,0.0,0.0,0.0,0.0,0.0,0.0,0.0,0.0,0.0,0.0,0.0,0.0,0.0,0.0,0.0,0.0,0.0,0.0,0.0,0.0,0.0,0.0,0.0,0.0,0.0,0.0,0.0,0.0,0.0,0.0,0.0,0.0,0.0,0.0,0.0,-1.2661,-1.5554,-1.5595,-1.6323,-1.7732,-1.7789,-1.7456,-1.6722,-1.7405,-1.6313,0.0,0.0,0.0,0.0,0.0,0.0,0.0,0.0,0.0,0.0,0.0,0.0,0.0,0.0,0.0,0.0,0.0,0.0,0.0,0.0,0.0,0.0,0.0,0.0,0.0,0.0,0.0,0.0,-0.4125,-0.4819,-0.5843,0.0,0.0,0.0,0.0,0.0,0.0,0.0,0.0,0.0,0.0,-0.8442,-0.8561,-0.8887,0.0,0.0,-0.891,-0.8984,-0.926,-0.9018,-0.8512,-0.7636,-0.7133,0.0,0.0,0.0,0.0,0.0,0.0,0.0,0.0,0.0,0.0,0.0,0.0,0.0,0.0,0.0,0.0,0.0,0.0,0.0,0.0,0.0,0.0,0.0,0.0,0.0,0.0,0.0,0.0,0.0,0.0,0.0,0.0,0.0,0.0,0.0,0.0,0.0,0.0,0.0,0.0,0.0,0.0,0.0,0.0,0.0,0.0,0.0,0.0,0.0,0.0,0.0,0.0,-1.2753,-1.5668,-1.5634,-1.6323,-1.7766,-1.7789,-1.7456,-1.6756,-1.7213,-1.6109,0.0,0.0,0.0,0.0,0.0,0.0,0.0,0.0,0.0,0.0,0.0,0.0,0.0,0.0,0.0,0.0,0.0,0.0,0.0,0.0,0.0,0.0,0.0,0.0,0.0,0.0,0.0,0.0,-0.5042,-0.6012,-0.7342,0.0,0.0,0.0,0.0,0.0,0.0,0.0,0.0,0.0,0.0,-0.9327,-0.9923,-0.9862,-0.9887,-1.0288,-0.9949,-0.9706,-0.9892,-0.961,-0.9076,-0.8192,0.0,0.0,0.0,0.0,0.0,0.0,0.0,0.0,0.0,0.0,0.0,0.0,0.0,0.0,0.0,0.0,0.0,0.0,0.0,0.0,0.0,0.0,0.0,0.0,0.0,0.0,0.0,-1.161,0.0,0.0,-1.1492,0.0,0.0,0.0,0.0,0.0,0.0,0.0,0.0,0.0,0.0,0.0,0.0,0.0,0.0,0.0,0.0,0.0,0.0,0.0,0.0,0.0,0.0,-1.2862,-1.5849,-1.5738,-1.6333,-1.776,-1.78,-1.7456,-1.6766,-1.6722,-1.5673,-1.3447,0.0,0.0,0.0,0.0,0.0,0.0,0.0,0.0,0.0,0.0,0.0,0.0,0.0,0.0,0.0,0.0,0.0,0.0,0.0,0.0,0.0,0.0,0.0,0.0,0.0,0.0,-0.5862,-0.6269,-0.6779,0.0,0.0,0.0,0.0,0.0,0.0,0.0,0.0,0.0,0.0,-0.999,-1.0448,-1.1655,-1.1892,-1.2082,-1.2743,-1.209,-1.1334,-1.078,-1.0653,-1.0211,0.0,0.0,0.0,0.0,0.0,0.0,0.0,0.0,0.0,0.0,0.0,0.0,0.0,0.0,0.0,0.0,0.0,0.0,0.0,0.0,0.0,0.0,0.0,0.0,0.0,0.0,0.0,-1.5028,-1.3338,0.0,0.0,0.0,0.0,0.0,0.0,0.0,0.0,0.0,0.0,0.0,-1.9148,-1.9405,0.0,0.0,0.0,0.0,0.0,0.0,0.0,0.0,0.0,0.0,0.0,0.0,-1.4456,-1.6818,-1.6721,-1.7067,-1.8033,-1.79,-1.7681,-1.745,-1.697,-1.5666,-1.3481,0.0,0.0,0.0,0.0,0.0,0.0,0.0,0.0,0.0,0.0,0.0,0.0,0.0,0.0,0.0,0.0,0.0,0.0,0.0,0.0,0.0,0.0,0.0,0.0,0.0,-0.7233,0.0,0.0,0.0,0.0,0.0,0.0,0.0,0.0,0.0,0.0,0.0,-1.0551,-1.0947,-1.1701,-1.2354,-1.2775,-1.2663,-1.2485,0.0,0.0,0.0,0.0,0.0,0.0,0.0,0.0,0.0,0.0,0.0,0.0,0.0,0.0,-0.8583,-0.7805,-0.7213,-0.6835,-0.6825,0.0,0.0,0.0,0.0,0.0,0.0,0.0,0.0,0.0,0.0,0.0,0.0,0.0,0.0,-1.8244,0.0,-1.616,0.0,0.0,0.0,0.0,0.0,0.0,0.0,0.0,-1.9987,-2.0868,-2.1355,-2.1373,-2.0951,0.0,-1.9675,-1.8034,0.0,0.0,0.0,0.0,0.0,0.0,0.0,0.0,-1.5304,-1.745,-1.7255,-1.7458,-1.8153,-1.7938,-1.7789,-1.7783,-1.6824,-1.5639,-1.42,-1.3538,-1.2564,0.0,0.0,0.0,0.0,0.0,0.0,0.0,0.0,0.0,0.0,0.0,0.0,0.0,0.0,0.0,0.0,0.0,0.0,0.0,0.0,0.0,0.0,0.0,-0.7962,0.0,0.0,0.0,0.0,0.0,0.0,0.0,0.0,0.0,-0.8741,-1.0388,-1.1689,-1.1922,-1.2626,-1.3291,-1.3774,0.0,0.0,0.0,0.0,0.0,0.0,0.0,-1.245,-1.2141,-1.1513,-1.0635,-0.9503,-0.954,-0.9741,-0.9741,0.0,0.0,-0.8777,-0.8216,-0.7912,-0.7912,-0.7818,-0.7748,-0.7748,-0.7861,-0.7875,0.0,0.0,0.0,0.0,0.0,0.0,0.0,0.0,-2.2024,-2.1932,0.0,-2.0134,0.0,0.0,0.0,0.0,0.0,-2.1023,0.0,0.0,-2.2712,-2.3116,-2.3116,-2.3134,-2.2685,-2.1996,-2.3364,-2.2437,-1.9297,-1.6261,0.0,0.0,0.0,0.0,0.0,0.0,-1.5464,-1.7686,-1.739,-1.7502,-1.8173,-1.7949,-1.7783,-1.7715,-1.6424,-1.5663,-1.5528,-1.4268,-1.3481,-1.3413,-1.1862,0.0,0.0,0.0,0.0,0.0,0.0,0.0,0.0,0.0,0.0,0.0,0.0,0.0,0.0,0.0,0.0,0.0,0.0,0.0,0.0,-0.8102,0.0,0.0,0.0,0.0,0.0,0.0,0.0,0.0,0.0,0.0,-0.983,-1.0985,-1.2145,-1.2789,0.0,0.0,0.0,0.0,-1.3753,-1.4918,-1.4907,-1.4708,-1.4649,-1.4649,-1.4439,-1.3892,0.0,0.0,-1.1376,-1.1448,-1.136,-1.0309,-1.0373,-1.0533,-1.073,-0.9662,-0.8815,-0.8778,-0.8592,-0.8343,-0.8352,-0.8766,-0.89,-2.8253,0.0,0.0,0.0,0.0,-2.5217,-2.5868,-2.6895,-2.6319,-2.5448,-2.4309,-2.3263,0.0,0.0,0.0,0.0,0.0,0.0,-2.3832,-2.4411,-2.5217,-2.5574,-2.5574,-2.5556,-2.485,-2.3566,-2.3988,-2.3116,-2.1115,-2.0178,-1.8232,-1.5435,0.0,0.0,0.0,0.0,-1.817,-1.876,-1.8396,-1.827,-1.8479,-1.8046,-1.7557,-1.7027,-1.7134,-1.6678,-1.5629,-1.569,-1.5266,-1.4225,-1.3227,0.0,0.0,0.0,0.0,0.0,0.0,0.0,0.0,0.0,0.0,0.0,0.0,0.0,0.0,0.0,0.0,0.0,0.0,0.0,-0.8293,-0.8178,-0.8372,0.0,0.0,0.0,0.0,0.0,0.0,0.0,0.0,0.0,-1.1848,-1.3042,-1.4017,0.0,0.0,-1.5726,-1.6084,-1.5876,-1.5684,-1.561,-1.5536,0.0,-1.4385,-1.4356,-1.4383,-1.4305,-1.3984,-1.3512,-1.3025,-1.2691,-1.2385,-1.2035,-1.2068,-1.2128,-1.2116,-1.1053,-1.0202,-1.0161,-1.0391,-1.0605,-1.063,-1.0738,-1.068,-3.2436,-2.9812,-2.8385,-2.8055,-2.8484,-2.8503,-2.9053,-2.9879,-2.909,-2.8367,-2.7725,-2.6924,-2.5566,-2.384,-2.3538,0.0,0.0,0.0,-2.6209,-2.6366,-2.6833,-2.6924,-2.6631,-2.6602,-2.6098,-2.5181,-2.5144,-2.4337,-2.2767,-2.3061,-2.15,-1.825,0.0,0.0,-1.8886,-1.9455,-1.9958,-2.0254,-1.9903,-1.9566,-1.9234,-1.8378,-1.7695,-1.7179,-1.7298,-1.6948,-1.6079,-1.6479,-1.6147,-1.4977,-1.4513,-1.3599,0.0,0.0,0.0,0.0,0.0,0.0,0.0,0.0,0.0,0.0,0.0,-0.6356,-0.5339,0.0,0.0,0.0,-0.8198,-0.8959,-0.9425,-0.932,0.0,0.0,0.0,0.0,0.0,0.0,0.0,-1.16,-1.2477,-1.3173,-1.3468,-1.4472,-1.5006,-1.4617,-1.5485,-1.62,-1.6323,0.0,-1.5919,-1.5814,-1.6009,-1.5936,-1.5257,-1.5213,-1.5184,-1.5031,-1.4528,-1.4156,-1.4113,-1.3624,-1.3221,-1.3179,-1.31,-1.2991,-1.2977,-1.2375,-1.1793,-1.1596,-1.1833,-1.2012,-1.1875,-1.1831,-1.1778,-3.6197,-3.5284,-3.3018,-3.1947,-3.169,-3.1678,-3.1727,-3.1727,-3.0925,-3.0962,-3.1525,-3.0742,-2.9904,-2.9042,-2.8319,0.0,-2.9097,-2.917,-2.8785,-2.8092,-2.8081,-2.7658,-2.6895,-2.6914,-2.6814,-2.6686,-2.6686,-2.5897,-2.4465,-2.5136,-2.4365,-2.2198,-2.13,-2.1216,-2.1721,-2.107,-2.1061,-2.1776,-2.1534,-2.1005,-2.0165,-1.8939,-1.8151,-1.7828,-1.7156,-1.679,-1.68,-1.679,-1.6468,-1.5825,-1.5663,-1.4952,-1.3549,0.0,0.0,0.0,0.0,0.0,0.0,0.0,0.0,0.0,0.0,0.0,0.0,0.0,0.0,0.0,-0.8995,0.0,-1.1021,-1.0985,0.0,0.0,0.0,-1.072,-1.0808,-1.1342,-1.1752,-1.1891,0.0,0.0,-1.477,-1.545,-1.5499,-1.4498,-1.5018,-1.5615,-1.5913,-1.5523,-1.5254,-1.5888,-1.6338,-1.6652,-1.6412,-1.6442,-1.6263,-1.5786,-1.5304,-1.489,-1.486,-1.4413,-1.4006,-1.3996,-1.371,-1.3525,-1.3524,-1.3728,-1.3683,-1.3164,-1.3011,-1.2844,-1.254,-1.2436,-1.2378,-3.9829,-3.9536,-3.8358,-3.645,-3.416,-3.4142,-3.4523,-3.505,-3.4234,-3.361,-3.3164,-3.2375,-3.1256,-2.9886,-2.9714,-2.9732,-2.9953,-3.0558,-3.0705,-3.054,-3.0534,-3.0099,-2.9365,-2.9335,-2.8686,-2.7567,-2.7512,-2.6998,-2.608,-2.6227,-2.6043,-2.5438,-2.463,-2.341,-2.1867,-2.218,-2.2208,-2.1794,-2.1534,-2.0912,-1.9929,-1.9387,-1.879,-1.8138,-1.7746,-1.754,-1.754,-1.754,-1.7456,-1.7259,-1.6221,-1.5189,-1.4276,-1.2246,0.0,0.0,0.0,0.0,0.0,0.0,0.0,0.0,0.0,-0.9349,-0.7373,0.0,-0.9452,0.0,-1.0252,-1.0875,-1.1072,-1.0985,0.0,0.0,-1.1614,-1.1735,-1.2632,-1.2703,-1.3171,-1.4515,-1.4924,-1.5399,-1.6128,-1.6842,-1.6901,-1.5889,-1.6575,-1.7231,-1.7307,-1.7202,-1.7007,-1.6789,-1.6574,-1.6311,-1.6126,-1.6024,-1.5979,-1.5829,-1.5664,-1.5559,-1.5574,-1.5425,-1.5334,-1.532,-1.5263,-1.5206,-1.5162,-1.5255,-1.5241,-1.5079,-1.457,-1.4088,-1.3981,-1.3702,-1.3488,-4.1113,-4.1058,-4.06,-3.9386,-3.7646,-3.6578,-3.6376,-3.6776,-3.5936,-3.5312,-3.4871,-3.4431,-3.3752,-3.2908,-3.2491,-3.2326,-3.2344,-3.243,-3.2278,-3.1935,-3.1916,-3.1513,-3.0754,-3.0723,-3.0081,-2.8888,-2.887,-2.8264,-2.7181,-2.7145,-2.6961,-2.6583,-2.6153,-2.5273,-2.3988,-2.3676,-2.3327,-2.2877,-2.2356,-2.1768,-2.1056,-2.0182,-1.958,-1.9206,-1.872,-1.8251,-1.7817,-1.8115,-1.7828,-1.687,-1.6367,-1.5747,-1.5011,-1.3489,-1.2441,0.0,0.0,0.0,0.0,0.0,0.0,0.0,0.0,0.0,0.0,0.0,-1.0554,-1.0974,-1.1393,-1.178,-1.2101,-1.2042,-1.2228,-1.2729,-1.2848,-1.3154,-1.3819,-1.4066,-1.4541,-1.5484,-1.5595,-1.5866,-1.6614,-1.7044,-1.7221,-1.6942,-1.7436,-1.7727,-1.7524,-1.7433,-1.7278,-1.7094,-1.6776,-1.6461,-1.6274,-1.6108,-1.6025,-1.6011,-1.5884,-1.5814,-1.5814,-1.5814,-1.5814,-1.5814,-1.5814,-1.5814,-1.5814,-1.5814,-1.5814,-1.5741,-1.5418,-1.5029,-1.4799,-1.4596,-1.4388,-4.1407,-4.1389,-4.1297,-4.126,-4.1077,-3.8891,-3.7896,-3.7749,-3.6945,-3.6541,-3.645,-3.634,-3.6285,-3.6248,-3.55,-3.5169,-3.5114,-3.4339,-3.3573,-3.2913,-3.2803,-3.232,-3.1562,-3.1531,-3.1146,-3.0375,-3.0356,-2.9586,-2.8147,-2.8128,-2.7695,-2.6932,-2.6814,-2.6749,-2.6686,-2.5162,-2.43,-2.419,-2.3511,-2.2968,-2.2648,-2.1241,-2.0521,-2.0523,-1.9755,-1.8897,-1.8008,-1.8555,-1.8031,-1.6187,-1.657,-1.6553,-1.59,-1.5003,-1.4504,0.0,-1.3811,0.0,0.0,0.0,0.0,0.0,0.0,0.0,0.0,-1.0961,-1.1688,-1.2365,-1.2517,-1.2872,-1.3616,-1.3684,-1.3676,-1.3701,-1.4259,-1.4629,-1.4673,-1.5223,-1.5639,-1.5723,-1.574,-1.6028,-1.6739,-1.6841,-1.7111,-1.762,-1.7755,-1.7667,-1.7305,-1.71,-1.7066,-1.7101,-1.6942,-1.6738,-1.6712,-1.6541,-1.6353,-1.6342,-1.6179,-1.5926,-1.5969,-1.5926,-1.5899,-1.587,-1.5842,-1.5814,-1.5814,-1.5814,-1.5814,-1.5799,-1.5755,-1.561,-1.5285,-1.5089,-1.4876,-4.3039,-4.2983,-4.2341,-4.2066,-4.1992,-4.0891,-4.0029,-3.9402,-3.8597,-3.7881,-3.7235,-3.6578,-3.6285,-3.6285,-3.6138,-3.6046,-3.6009,-3.5151,-3.4692,-3.4527,-3.3867,-3.3164,-3.2399,-3.2362,-3.1953,-3.1201,-3.1164,-3.0687,-2.9751,-2.9751,-2.9317,-2.8546,-2.7897,-2.7567,-2.7486,0.0,0.0,0.0,-2.4061,-2.3639,-2.2941,-2.2423,-2.1724,-2.0834,-1.9891,0.0,-1.8731,-1.8826,-1.8719,-1.8313,-1.7845,0.0,0.0,0.0,0.0,0.0,0.0,0.0,0.0,0.0,0.0,0.0,-1.2423,-1.2491,-1.1959,-1.2542,-1.3041,-1.3185,-1.3735,-1.4394,-1.5114,-1.5172,-1.5182,-1.5199,-1.5291,-1.5392,-1.5392,-1.5544,-1.5825,-1.6417,-1.6495,-1.6773,-1.749,-1.758,-1.7659,-1.7862,-1.7789,-1.7777,-1.772,-1.7662,-1.7479,-1.7175,-1.6996,-1.6831,-1.6789,-1.6795,-1.6775,-1.6699,-1.6688,-1.6594,-1.6567,-1.6421,-1.6284,-1.6219,-1.5983,-1.5828,-1.5814,-1.5814,-1.5813,-1.5814,-1.5814,-1.577,-1.5668,-1.5359,-1.5044,-4.3479,0.0,-4.3057,-4.2873,0.0,-4.2029,-4.146,-4.1001,-3.9808,-3.8836,-3.8065,-3.7661,-3.7477,-3.7459,-3.7055,-3.6905,-3.685,-3.6028,-3.5408,-3.4986,-3.4582,-3.3959,-3.3201,-3.317,-3.2779,-3.2008,-3.2008,-3.1586,-3.0797,-3.0393,-3.0008,-2.9574,-2.8778,-2.8381,-2.8338,-2.6796,-2.5401,-2.4218,-2.4199,-2.4006,-2.3593,-2.3096,-2.2387,-2.1508,-2.0608,0.0,0.0,0.0,0.0,0.0,0.0,0.0,0.0,0.0,0.0,-1.6082,-1.5781,-1.525,-1.4556,-1.4488,-1.4319,-1.398,-1.4276,-1.4336,-1.3946,-1.4285,-1.4488,-1.4488,-1.4834,-1.5189,-1.5544,-1.5595,-1.5595,-1.5612,-1.5927,-1.6136,-1.618,-1.6458,-1.6965,-1.7636,-1.7788,-1.8065,-1.878,-1.8527,-1.8527,-1.8797,-1.856,-1.8459,-1.8729,-1.8239,-1.7709,-1.7496,-1.7715,-1.7852,-1.7815,-1.7677,-1.7587,-1.7575,-1.7458,-1.7193,-1.685,-1.6995,-1.7017,-1.664,-1.6297,-1.6077,-1.6052,-1.6053,-1.5997,-1.5856,-1.5814,-1.5814,-1.5799,-1.561,-1.5374,-4.3479,-4.3479,-4.3479,-4.3479,-4.3424,-4.2782,-4.2433,-4.2213,0.0,0.0,0.0,-3.8927,-3.8854,-3.8652,-3.8006,-3.7713,-3.7658,-3.6872,-3.6046,-3.5224,-3.5078,-3.4582,-3.3825,-3.3807,-3.3458,-3.2839,-3.2803,-3.2394,-3.1599,-3.0944,-3.0467,-3.0173,-2.9537,-2.906,-2.8712,-2.7464,-2.6098,-2.4685,-2.4365,-2.4199,-2.4171,-2.3556,-2.2943,-2.2402,-2.1561,-2.0512,-1.9244,-1.9132,-1.8471,-1.7162,-1.7077,-1.7094,-1.7088,-1.697,-1.7162,-1.7732,-1.7789,-1.7473,-1.6756,-1.6688,-1.6434,-1.5842,-1.5798,-1.5757,-1.5612,-1.5595,-1.5673,-1.5764,-1.5791,-1.5859,-1.5967,-1.612,-1.6187,-1.6187,-1.6841,-1.7298,-1.7331,-1.7783,-1.842,-1.8978,-1.9063,-1.9304,-1.9816,-1.9439,-1.9299,-1.9761,-1.9423,-1.9283,-1.9681,-1.9,-1.8341,-1.834,-1.8709,-1.9056,-1.9048,-1.886,-1.8696,-1.8671,-1.8461,-1.8048,-1.761,-1.7636,-1.7663,-1.75,-1.6902,-1.6535,-1.648,-1.6311,-1.6137,-1.5856,-1.5814,-1.5814,-1.5814,-1.5814,-1.5668,-4.3479,-4.3479,-4.3479,-4.3479,-4.3479,-4.3386,-4.2928,-4.2231,-4.1315,-4.0487,-3.9717,-3.9735,-3.935,-3.8707,-3.8579,-3.8542,-3.8487,-3.7694,-3.6905,-3.6083,-3.5334,-3.4564,-3.3825,-3.3807,-3.3733,-3.3623,-3.3623,-3.322,-3.2472,-3.2289,-3.1574,-3.0356,-3.0099,-2.9347,-2.8062,-2.775,-2.7181,-2.6264,-2.4905,-2.4199,-2.4199,-2.4098,-2.387,-2.348,-2.2453,-2.1414,-2.0333,-1.9989,-1.9456,-1.8652,-1.8589,-1.8601,-1.8555,-1.7997,-1.7698,-1.78,-1.7789,-1.7473,-1.6773,-1.6688,-1.6665,-1.6553,-1.6536,-1.6282,-1.5663,-1.5595,-1.5876,-1.6451,-1.6597,-1.6807,-1.7422,-1.8014,-1.8335,-1.8432,-1.9068,-1.9524,-1.9406,-1.9524,-1.9647,-1.9816,-1.9849,-1.9879,-2.0069,-1.9963,-1.99,-1.9985,-2.0082,-1.9934,-2.0052,-1.9833,-1.9681,-1.9681,-1.9765,-1.9849,-1.9833,-1.982,-1.9744,-1.977,-1.9702,-1.9545,-1.9328,-1.8689,-1.839,-1.894,-1.7831,-1.7051,-1.7136,-1.6461,-1.6002,-1.5828,-1.5829,-1.5858,-1.5844,-1.5814,-1.5785,-4.3479,-4.3479,-4.3479,-4.3479,-4.3479,-4.3479,-4.3294,-4.291,-4.2561,-4.1699,-4.0598,-4.0561,-4.0102,-3.9368,-3.935,-3.9111,-3.8689,-3.8303,-3.7713,-3.6942,-3.6541,-3.5665,-3.4527,-3.4454,-3.4229,-3.3825,-3.3807,-3.3605,-3.3243,-3.2803,-3.2234,-3.1463,-3.065,-2.9622,-2.8503,-2.8007,-2.7603,-2.7236,-2.5668,-2.486,-2.4824,-2.4438,-2.3835,-2.3138,-2.2599,-2.1778,-2.0553,-2.036,-2.0043,-1.9502,-1.949,-1.949,-1.949,-1.9186,-1.9,-1.9,-1.8983,-1.8836,-1.8521,-1.8488,-1.8488,-1.8488,-1.8488,-1.8341,-1.802,-1.7625,-1.7523,-1.7873,-1.8251,-1.8611,-1.8966,-1.9287,-1.9502,-1.949,-1.9828,-1.9985,-1.9985,-1.9985,-2.0166,-2.0568,-2.0653,-2.0792,-2.1197,-2.0893,-2.0842,-2.1147,-2.1248,-2.1248,-2.1214,-2.1214,-2.091,-2.0234,-2.0335,-2.0636,-2.0653,-2.0653,-2.0653,-2.0653,-2.0653,-2.0454,-2.0204,-1.9866,-2.0102,-1.9759,-1.8769,-1.8003,-1.7799,-1.6791,-1.6144,-1.5843,-1.6099,-1.6159,-1.5934,-1.5814,-1.5814,-4.3479,-4.3479,-4.3479,-4.3479,-4.3479,-4.3479,-4.3479,-4.3479,-4.3479,-4.28,-4.1717,-4.1479,-4.0836,-3.9918,-3.9882,-3.946,-3.8781,-3.8707,-3.8267,-3.7547,-3.7511,-3.6707,-3.5371,-3.5114,-3.4674,-3.41,-3.3899,-3.3807,-3.3733,-3.3151,-3.2687,-3.2228,-3.0895,-2.9806,-2.9005,-2.8374,-2.8062,-2.797,-2.666,-2.576,-2.5393,-2.4787,-2.3984,-2.3051,-2.289,-2.2256,-2.1059,-2.0825,-2.0556,-2.0152,-2.0052,-1.9985,-1.9985,-1.9985,-1.9985,-1.9985,-1.9985,-1.9985,-1.9985,-1.9985,-1.9985,-1.9985,-1.9985,-1.9985,-1.9951,-1.9655,-1.9345,-1.9249,-1.9579,-1.9934,-1.9951,-2.0183,-2.0268,-2.0255,-2.0437,-2.0593,-2.0525,-2.0525,-2.0741,-2.1343,-2.1444,-2.1667,-2.204,-2.1803,-2.1667,-2.2093,-2.2313,-2.2313,-2.2313,-2.2313,-2.1738,-2.1079,-2.1059,-2.1414,-2.1448,-2.1448,-2.1444,-2.1431,-2.1444,-2.1211,-2.0927,-2.1603,-2.1789,-2.0776,-2.0196,-1.9533,-1.8672,-1.7602,-1.6894,-1.6635,-1.6804,-1.6771,-1.6443,-1.6159,-1.5949,-4.3479,-4.3479,-4.3479,-4.3479,-4.3479,-4.3479,-4.3479,-4.3479,-4.3479,-4.3441,-4.313,-4.2525,-4.135,-4.001,-3.9918,-3.9515,-3.8781,-3.8707,-3.8267,-3.7603,-3.7511,-3.7033,-3.6156,-3.5389,-3.4954,-3.4784,-3.4156,-3.3807,-3.3807,-3.3715,-3.2944,-3.1568,-3.0632,-2.9831,-2.9097,-2.8932,-2.8877,-2.8858,-2.8026,-2.688,-2.5495,-2.5329,-2.4887,-2.4069,-2.3767,-2.3234,-2.2404,-2.1825,-2.1165,-2.0512,-2.0206,-2.0018,-2.0018,-2.0018,-2.0018,-2.0035,-2.0035,-1.9985,-2.0018,-1.9985,-2.0052,-1.9985,-2.0069,-2.0086,-2.0103,-2.0619,-2.0666,-2.0166,-1.9997,-2.0103,-2.0035,-2.067,-2.1059,-2.1092,-2.16,-2.2076,-2.1975,-2.2076,-2.2127,-2.2175,-2.2124,-2.2243,-2.2262,-2.2178,-2.2195,-2.2262,-2.2313,-2.2313,-2.2313,-2.2296,-2.2279,-2.206,-2.2161,-2.2144,-2.2127,-2.2195,-2.2093,-2.2124,-2.2175,-2.2009,-2.1958,-2.2009,-2.2178,-2.1826,-2.1835,-2.1287,-2.0256,-1.9244,-1.8173,-1.7761,-1.7668,-1.7549,-1.7444,-1.7041,-1.6518,-4.3479,-4.3479,-4.3479,-4.3479,-4.3479,-4.3479,-4.3479,-4.3479,-4.3479,-4.3479,-4.3442,-4.3147,-4.2378,-4.1295,-4.0818,-4.0157,-3.9386,-3.8927,-3.8542,-3.8212,-3.8212,-3.7771,-3.6978,-3.6174,-3.5518,-3.4968,-3.4179,-3.3807,-3.3807,-3.3807,-3.322,-3.2137,-3.1311,-3.0503,-2.9751,-2.9225,-2.8987,-2.8987,-2.8675,-2.7952,-2.6862,-2.587,-2.5246,-2.4887,-2.4312,-2.3779,-2.3291,-2.2972,-2.2529,-2.1861,-2.1669,-2.1537,-2.1363,-2.1366,-2.1336,-2.1366,-2.1366,-2.1366,-2.135,-2.1366,-2.1366,-2.1366,-2.1366,-2.1366,-2.1366,-2.1654,-2.1688,-2.1434,-2.1366,-2.1366,-2.1366,-2.1654,-2.1837,-2.1887,-2.2144,-2.2313,-2.2313,-2.2313,-2.2313,-2.2313,-2.2313,-2.2313,-2.2313,-2.2313,-2.2313,-2.2313,-2.2313,-2.2313,-2.2313,-2.2313,-2.2313,-2.2313,-2.2313,-2.2313,-2.2313,-2.2313,-2.2313,-2.2313,-2.2313,-2.2313,-2.2313,-2.2313,-2.2313,-2.2313,-2.2313,-2.188,-2.0693,-1.9684,-1.872,-1.853,-1.8096,-1.7788,-1.8208,-1.7758,-1.7235,-4.3479,-4.3479,-4.3479,-4.3479,-4.3479,-4.3479,-4.3479,-4.3479,-4.3479,-4.3479,-4.3479,-4.3479,-4.3185,-4.2561,-4.1791,-4.0891,-3.9918,-3.9276,-3.8909,-3.8726,-3.8707,-3.8395,-3.7804,-3.7015,-3.6174,-3.5353,-3.4527,-3.4027,-3.3844,-3.3807,-3.3385,-3.2614,-3.2008,-3.1219,-3.0234,-2.9604,-2.9207,-2.9005,-2.8987,-2.8723,-2.8007,-2.6788,-2.5962,-2.5686,-2.4942,-2.4405,-2.4184,-2.3854,-2.3426,-2.2868,-2.2759,-2.2573,-2.2324,-2.2313,-2.2313,-2.2313,-2.2313,-2.2313,-2.2313,-2.2313,-2.2313,-2.2313,-2.2313,-2.2313,-2.2313,-2.2313,-2.2313,-2.2262,-2.2313,-2.2262,-2.2313,-2.2313,-2.2313,-2.2313,-2.2313,-2.2313,-2.2313,-2.2313,-2.2313,-2.2313,-2.2313,-2.2313,-2.2313,-2.2313,-2.2313,-2.2313,-2.2313,-2.2313,-2.2364,-2.2448,-2.2581,-2.2347,-2.2448,-2.2516,-2.2364,-2.2313,-2.2313,-2.2313,-2.2313,-2.2313,-2.2313,-2.2313,-2.2313,-2.2313,-2.2313,-2.2139,-2.1487,-2.0414,-1.9555,-1.9185,-1.8777,-1.8558,-1.9108,-1.8505,-1.8074,-4.3479,-4.3479,-4.3479,-4.3479,-4.3479,-4.3479,-4.3479,-4.3479,-4.3479,-4.3479,-4.3479,-4.3479,-4.3461,-4.3349,-4.2561,-4.1405,-4.0084,-3.9845,-3.9405,-3.8817,-3.8726,-3.8689,-3.8615,-3.7841,-3.7015,-3.6211,-3.5371,-3.4582,-3.3917,-3.3807,-3.3385,-3.2656,-3.2522,-3.1751,-3.0522,-3.0191,-2.9739,-2.9152,-2.9023,-2.8968,-2.8822,-2.8099,-2.7291,-2.6612,-2.5778,-2.5346,-2.5214,-2.4304,-2.358,-2.3206,-2.2933,-2.262,-2.2335,-2.231,-2.2313,-2.2313,-2.2313,-2.2313,-2.2313,-2.2313,-2.2313,-2.2313,-2.2313,-2.2313,-2.2313,-2.2381,-2.2398,-2.2344,-2.2398,-2.2381,-2.2448,-2.2381,-2.2313,-2.2313,-2.2313,-2.2313,-2.2313,-2.2313,-2.2313,-2.2313,-2.2313,-2.2364,-2.2347,-2.2313,-2.2429,-2.2462,-2.2398,-2.2431,-2.2617,-2.3004,-2.3021,-2.2716,-2.2818,-2.3105,-2.2499,-2.2313,-2.2313,-2.2313,-2.2313,-2.2313,-2.2313,-2.2313,-2.2313,-2.2313,-2.2313,-2.2251,-2.2144,-2.1766,-2.1151,-2.0654,-2.0125,-2.0014,-1.9802,-1.9209,-1.8798,-4.3479,-4.3479,-4.3479,-4.3479,-4.3479,-4.3479,-4.3479,-4.3479,-4.3479,-4.3479,-4.3479,-4.3479,-4.3479,-4.3479,-4.3185,-4.247,-4.1387,-4.0377,-3.9735,-3.9423,-3.8946,-3.8707,-3.8615,-3.7878,-3.7382,-3.7015,-3.6229,-3.5389,-3.4582,-3.4064,-3.3678,-3.333,-3.2839,-3.2252,-3.1647,-3.0705,-3.0044,-2.9739,-2.9299,-2.8987,-2.8987,-2.8712,-2.8418,-2.8088,-2.6851,-2.6172,-2.6172,-2.5766,-2.5165,-2.4322,-2.3974,-2.3409,-2.2659,-2.2402,-2.2313,-2.2313,-2.2313,-2.2313,-2.2313,-2.2313,-2.2313,-2.2313,-2.2313,-2.233,-2.2381,-2.2716,-2.3004,-2.3021,-2.3004,-2.3173,-2.341,-2.2885,-2.2313,-2.2313,-2.2313,-2.233,-2.2313,-2.2313,-2.2313,-2.2313,-2.2313,-2.2448,-2.2902,-2.3004,-2.3207,-2.3628,-2.3712,-2.3646,-2.3714,-2.3966,-2.3833,-2.3257,-2.3207,-2.3308,-2.3105,-2.255,-2.2313,-2.2313,-2.2313,-2.2364,-2.2381,-2.2313,-2.2313,-2.2415,-2.2398,-2.2296,-2.2192,-2.1955,-2.1598,-2.1353,-2.0878,-2.0449,-2.0282,-1.9598,-1.9344,-4.3479,-4.3479,-4.3479,-4.3479,-4.3479,-4.3479,-4.3479,-4.3479,-4.3479,-4.3479,-4.3479,-4.3479,-4.3479,-4.3479,-4.3479,-4.3222,-4.258,-4.1277,-4.0396,-3.9863,-3.9331,-3.8946,-3.8652,-3.812,-3.7749,-3.7401,-3.6684,-3.5862,-3.5041,-3.4435,-3.4064,-3.3752,-3.322,-3.2852,-3.2454,-3.1482,-3.0766,-3.0228,-2.9647,-2.928,-2.9042,-2.8987,-2.8987,-2.8858,-2.7923,-2.7226,-2.6998,-2.6749,-2.6228,-2.5387,-2.507,-2.4392,-2.3259,-2.2691,-2.2388,-2.2307,-2.2313,-2.2313,-2.2313,-2.2313,-2.2313,-2.233,-2.2547,-2.2665,-2.2716,-2.3325,-2.3712,-2.3748,-2.3763,-2.4,-2.4169,-2.3611,-2.2936,-2.2719,-2.2665,-2.2665,-2.2651,-2.2651,-2.2786,-2.3038,-2.3105,-2.3291,-2.3628,-2.3746,-2.3983,-2.4457,-2.4508,-2.4508,-2.4508,-2.4711,-2.4592,-2.3949,-2.4036,-2.4036,-2.3881,-2.3477,-2.3308,-2.3291,-2.3122,-2.2953,-2.275,-2.26,-2.2482,-2.2564,-2.2496,-2.2364,-2.2194,-2.1986,-2.1809,-2.1628,-2.115,-2.0633,-2.0331,-1.9949,-1.968,-4.3479,-4.3479,-4.3479,-4.3479,-4.3479,-4.3479,-4.3479,-4.3479,-4.3479,-4.3479,-4.3479,-4.3479,-4.3479,-4.3479,-4.3479,-4.3461,-4.3258,-4.2506,-4.1442,-4.0228,-3.9916,-3.9441,-3.8817,-3.8652,-3.8248,-3.7603,-3.674,-3.5936,-3.5261,-3.5004,-3.4546,-3.3954,-3.3788,-3.3348,-3.2638,-3.2436,-3.1739,-3.0687,-3.0246,-2.9787,-2.9133,-2.9042,-2.8987,-2.8987,-2.8858,-2.8491,-2.7824,-2.7126,-2.6604,-2.6197,-2.6109,-2.5445,-2.4169,-2.3354,-2.2706,-2.2592,-2.2457,-2.2409,-2.2429,-2.2482,-2.255,-2.2617,-2.3054,-2.3393,-2.3511,-2.4085,-2.4508,-2.4508,-2.4508,-2.4558,-2.4643,-2.4491,-2.4135,-2.356,-2.3393,-2.3393,-2.3393,-2.3393,-2.3661,-2.4169,-2.4271,-2.444,-2.4491,-2.4508,-2.4609,-2.4745,-2.4795,-2.4812,-2.4914,-2.5304,-2.522,-2.4897,-2.4847,-2.4898,-2.4711,-2.4508,-2.4525,-2.4491,-2.4271,-2.4051,-2.3765,-2.3562,-2.3173,-2.3105,-2.253,-2.2364,-2.2313,-2.212,-2.2017,-2.1796,-2.1276,-2.0861,-2.0515,-2.0176,-1.9836,-4.3479,-4.3479,-4.3479,-4.3479,-4.3479,-4.3479,-4.3479,-4.3479,-4.3479,-4.3479,-4.3479,-4.3479,-4.3479,-4.3479,-4.3479,-4.3479,-4.3461,-4.3185,-4.2525,-4.1497,-4.0414,-3.979,-3.9441,-3.8964,-3.856,-3.823,-3.7511,-3.6997,-3.6523,-3.5591,-3.4839,-3.4582,-3.4064,-3.3697,-3.3385,-3.2876,-3.2271,-3.1812,-3.076,-3.0063,-2.9776,-2.928,-2.9005,-2.8987,-2.8987,-2.8858,-2.8638,-2.8381,-2.7926,-2.7298,-2.7053,-2.6368,-2.5303,-2.4847,-2.4559,-2.4285,-2.4232,-2.409,-2.3844,-2.378,-2.3793,-2.3848,-2.4034,-2.4135,-2.4237,-2.4846,-2.5236,-2.5253,-2.527,-2.5423,-2.5812,-2.5524,-2.4966,-2.4237,-2.4152,-2.4169,-2.4154,-2.4186,-2.4271,-2.4423,-2.4508,-2.4711,-2.5118,-2.5253,-2.5423,-2.5828,-2.5912,-2.5929,-2.5998,-2.6065,-2.6319,-2.6082,-2.5981,-2.5676,-2.5423,-2.532,-2.5388,-2.532,-2.5151,-2.4982,-2.4728,-2.4575,-2.4137,-2.3545,-2.2922,-2.2584,-2.2482,-2.2437,-2.2452,-2.208,-2.1625,-2.1231,-2.0828,-2.0539,-2.0317,-4.3479,-4.3479,-4.3479,-4.3479,-4.3479,-4.3479,-4.3479,-4.3479,-4.3479,-4.3479,-4.3479,-4.3479,-4.3479,-4.3479,-4.3479,-4.3479,-4.3479,-4.3479,-4.3222,-4.2616,-4.1442,-4.0524,-3.99,-3.9074,-3.8707,-3.8634,-3.8193,-3.7804,-3.7456,-3.6468,-3.5628,-3.5004,-3.4491,-3.4082,-3.3825,-3.333,-3.2949,-3.2491,-3.161,-3.0962,-3.0558,-2.9849,-2.9445,-2.939,-2.917,-2.9005,-2.8987,-2.8987,-2.8767,-2.826,-2.7775,-2.7079,-2.6288,-2.594,-2.5628,-2.5354,-2.5246,-2.5132,-2.4942,-2.4873,-2.4861,-2.4793,-2.4972,-2.5052,-2.5079,-2.5575,-2.5981,-2.6015,-2.6015,-2.6201,-2.6488,-2.6319,-2.5795,-2.5371,-2.5066,-2.4931,-2.4931,-2.5151,-2.532,-2.5405,-2.5388,-2.5575,-2.5862,-2.6031,-2.6167,-2.6607,-2.6708,-2.6708,-2.6708,-2.6657,-2.6691,-2.664,-2.6387,-2.6167,-2.6065,-2.6099,-2.6201,-2.6082,-2.5946,-2.5794,-2.5608,-2.5642,-2.5423,-2.4543,-2.3818,-2.3613,-2.3494,-2.3393,-2.3317,-2.2697,-2.2141,-2.1924,-2.1687,-2.135,-2.1121,-4.3479,-4.3479,-4.3479,-4.3479,-4.3479,-4.3479,-4.3479,-4.3479,-4.3479,-4.3479,-4.3479,-4.3479,-4.3479,-4.3479,-4.3479,-4.3479,-4.3479,-4.3479,-4.3478,-4.3222,-4.2525,-4.1479,-3.9955,-3.9203,-3.8872,-3.8707,-3.8652,-3.8285,-3.7731,-3.7364,-3.6707,-3.5463,-3.5078,-3.4637,-3.4064,-3.3862,-3.3403,-3.2839,-3.2564,-3.2087,-3.1458,-3.0687,-3.0265,-3.0228,-2.9555,-2.9152,-2.9189,-2.9078,-2.8987,-2.8895,-2.826,-2.778,-2.7338,-2.6669,-2.6285,-2.6004,-2.5819,-2.5856,-2.5767,-2.5862,-2.5764,-2.5561,-2.5976,-2.6141,-2.5982,-2.6426,-2.6785,-2.6786,-2.6771,-2.679,-2.684,-2.6805,-2.6704,-2.6622,-2.603,-2.5693,-2.5727,-2.6218,-2.637,-2.6505,-2.6674,-2.6691,-2.659,-2.6607,-2.664,-2.6674,-2.6708,-2.6708,-2.6708,-2.6708,-2.6708,-2.664,-2.6573,-2.6505,-2.637,-2.637,-2.6471,-2.642,-2.6353,-2.6336,-2.615,-2.6184,-2.6116,-2.527,-2.4695,-2.4541,-2.4338,-2.4101,-2.384,-2.3324,-2.2963,-2.2798,-2.2536,-2.2185,-2.1827,-4.3479,-4.3479,-4.3479,-4.3479,-4.3479,-4.3479,-4.3479,-4.3479,-4.3479,-4.3479,-4.3479,-4.3479,-4.3479,-4.3479,-4.3479,-4.3479,-4.3479,-4.3479,-4.3479,-4.3478,-4.3313,-4.1901,-4.0267,-3.968,-3.9258,-3.8817,-3.8726,-3.8597,-3.834,-3.7823,-3.7272,-3.6817,-3.5628,-3.4968,-3.4656,-3.4137,-3.3733,-3.3421,-3.2858,-3.2546,-3.2234,-3.1494,-3.1091,-3.1017,-3.032,-2.9916,-2.9824,-2.9299,-2.8987,-2.8987,-2.884,-2.8652,-2.8479,-2.8248,-2.7918,-2.7607,-2.7584,-2.7503,-2.7317,-2.7244,-2.7225,-2.718,-2.7204,-2.7393,-2.7324,-2.7452,-2.7574,-2.7574,-2.7607,-2.7612,-2.7595,-2.7615,-2.7509,-2.7145,-2.682,-2.6488,-2.6437,-2.6556,-2.6708,-2.6708,-2.6776,-2.681,-2.6776,-2.6826,-2.681,-2.6793,-2.6826,-2.6826,-2.6928,-2.6979,-2.7097,-2.681,-2.6691,-2.6691,-2.6674,-2.6674,-2.6674,-2.6657,-2.664,-2.6657,-2.6404,-2.6167,-2.593,-2.5423,-2.5135,-2.4948,-2.466,-2.4406,-2.4114,-2.4039,-2.3932,-2.3818,-2.335,-2.2973,-2.253,-4.3479,-4.3479,-4.3479,-4.3479,-4.3479,-4.3479,-4.3479,-4.3479,-4.3479,-4.3479,-4.3479,-4.3479,-4.3479,-4.3479,-4.3479,-4.3479,-4.3479,-4.3479,-4.3479,-4.3479,-4.3461,-4.2488,-4.1093,-4.0359,-3.9643,-3.9203,-3.8872,-3.8707,-3.8615,-3.8212,-3.7845,-3.7382,-3.6541,-3.5903,-3.55,-3.4729,-3.4307,-3.416,-3.3537,-3.3096,-3.3054,-3.232,-3.1953,-3.1751,-3.1146,-3.0717,-3.0613,-3.0265,-2.9769,-2.9207,-2.8987,-2.8987,-2.8987,-2.8987,-2.8905,-2.8658,-2.8658,-2.854,-2.843,-2.8347,-2.8268,-2.8125,-2.8102,-2.802,-2.789,-2.7897,-2.7947,-2.8357,-2.8404,-2.8563,-2.8844,-2.8915,-2.8794,-2.8623,-2.8175,-2.7708,-2.7267,-2.7351,-2.7504,-2.7606,-2.7638,-2.7486,-2.7266,-2.7418,-2.7418,-2.7368,-2.7621,-2.7554,-2.7503,-2.752,-2.7639,-2.7571,-2.752,-2.7656,-2.7706,-2.7706,-2.7639,-2.7537,-2.7418,-2.7368,-2.6877,-2.6505,-2.6302,-2.6048,-2.5659,-2.5371,-2.5252,-2.5185,-2.5221,-2.5159,-2.5012,-2.473,-2.4294,-2.3948,-2.3494,-4.3479,-4.3479,-4.3479,-4.3479,-4.3479,-4.3479,-4.3479,-4.3479,-4.3479,-4.3479,-4.3479,-4.3479,-4.3479,-4.3479,-4.3479,-4.3479,-4.3479,-4.3479,-4.3479,-4.3479,-4.3442,-4.2982,-4.2249,-4.1001,-4.023,-3.9772,-3.9111,-3.8836,-3.8726,-3.8652,-3.8303,-3.7786,-3.7511,-3.7088,-3.6358,-3.5555,-3.5133,-3.4821,-3.427,-3.3825,-3.3623,-3.3054,-3.2761,-3.2583,-3.1935,-3.1433,-3.1342,-3.1182,-3.0705,-2.9335,-2.917,-2.9133,-2.9078,-2.8987,-2.8975,-2.8982,-2.8929,-2.8917,-2.8972,-2.8925,-2.8907,-2.8603,-2.8675,-2.8555,-2.8534,-2.861,-2.8889,-2.9436,-2.9344,-2.973,-3.0108,-3.0318,-3.0127,-2.9885,-2.9694,-2.9109,-2.8407,-2.8288,-2.8596,-2.893,-2.8977,-2.8602,-2.8383,-2.8433,-2.8704,-2.8044,-2.8247,-2.8282,-2.823,-2.8281,-2.857,-2.8874,-2.884,-2.8807,-2.8824,-2.8824,-2.8722,-2.862,-2.8502,-2.8299,-2.7656,-2.7266,-2.7029,-2.6776,-2.6556,-2.6387,-2.6268,-2.6251,-2.6184,-2.6083,-2.5815,-2.5598,-2.5326,-2.5075,-2.4687,-4.3479,-4.3479,-4.3479,-4.3479,-4.3479,-4.3479,-4.3479,-4.3479,-4.3479,-4.3479,-4.3479,-4.3479,-4.3479,-4.3479,-4.3479,-4.3479,-4.3479,-4.3479,-4.3479,-4.3479,-4.3479,-4.3424,-4.3039,-4.2121,-4.1111,-4.0249,-3.9772,-3.9313,-3.8891,-3.8726,-3.8615,-3.8395,-3.7841,-3.7419,-3.718,-3.6431,-3.5646,-3.5133,-3.4821,-3.4431,-3.3935,-3.3715,-3.3532,-3.3403,-3.2742,-3.2045,-3.1513,-3.1403,-3.1219,-3.0815,-3.032,-2.9824,-2.9317,-2.9133,-2.9152,-2.917,-2.9104,-2.8936,-2.8797,-2.9418,-2.9659,-2.9191,-2.9916,-3.06,-3.0232,-3.0341,-3.0613,-3.0888,-3.0919,-3.0911,-3.1102,-3.0878,-3.0692,-3.0457,-3.0219,-2.9985,-2.9618,-2.9168,-2.9018,-2.9063,-2.9111,-2.8942,-2.8772,-2.8925,-2.901,-2.8789,-2.8856,-2.8942,-2.9044,-2.9128,-2.9399,-2.9788,-2.967,-2.9551,-2.9551,-2.9568,-2.9568,-2.9551,-2.9484,-2.9399,-2.8756,-2.8367,-2.8247,-2.7943,-2.7553,-2.7418,-2.7232,-2.6826,-2.6657,-2.6623,-2.6674,-2.6539,-2.64,-2.6129,-2.5835,-4.3479,-4.3479,-4.3479,-4.3479,-4.3479,-4.3479,-4.3479,-4.3479,-4.3479,-4.3479,-4.3479,-4.3479,-4.3479,-4.3479,-4.3479,-4.3479,-4.3479,-4.3479,-4.3479,-4.3479,-4.3479,-4.3479,-4.3442,-4.3039,-4.2176,-4.1038,-4.0175,-3.9643,-3.9294,-3.8909,-3.8689,-3.8707,-3.8248,-3.8138,-3.797,-3.7276,-3.667,-3.6229,-3.5756,-3.5188,-3.4491,-3.4344,-3.4087,-3.3844,-3.3385,-3.2926,-3.2614,-3.2572,-3.232,-3.1971,-3.1549,-3.0962,-3.0301,-3.0136,-3.0118,-3.0118,-3.0118,-3.0058,-3.01,-3.0325,-3.0587,-3.0139,-3.0969,-3.1128,-3.1167,-3.1296,-3.149,-3.1631,-3.1683,-3.1729,-3.1877,-3.1793,-3.1453,-3.1312,-3.1034,-3.0925,-3.0741,-3.0221,-2.9839,-2.9965,-3.0108,-2.9871,-2.9719,-2.9704,-2.967,-2.9634,-3.004,-3.0125,-3.0209,-3.0277,-3.0245,-3.0398,-3.0279,-3.0194,-3.0176,-3.0226,-3.0311,-3.0345,-3.0378,-3.0364,-3.011,-2.982,-2.9634,-2.9042,-2.8366,-2.8298,-2.8096,-2.7621,-2.7385,-2.7706,-2.7791,-2.7639,-2.7499,-2.7374,-2.6986,-4.3479,-4.3479,-4.3479,-4.3479,-4.3479,-4.3479,-4.3479,-4.3479,-4.3479,-4.3479,-4.3479,-4.3479,-4.3479,-4.3479,-4.3479,-4.3479,-4.3479,-4.3479,-4.3479,-4.3479,-4.3479,-4.3479,-4.3461,-4.3349,-4.3074,-4.2341,-4.1148,-4.0396,-3.9955,-3.9331,-3.9074,-3.8909,-3.8707,-3.8579,-3.8469,-3.808,-3.7511,-3.7199,-3.6707,-3.6064,-3.5279,-3.5041,-3.4527,-3.3917,-3.3733,-3.3678,-3.3568,-3.355,-3.3421,-3.2839,-3.2784,-3.243,-3.1935,-3.147,-3.1403,-3.1329,-3.1195,-3.1065,-3.1002,-3.1327,-3.1517,-3.1479,-3.1775,-3.1774,-3.1772,-3.1913,-3.213,-3.2261,-3.2418,-3.2481,-3.2652,-3.2547,-3.2505,-3.2344,-3.2074,-3.1897,-3.1613,-3.1129,-3.0964,-3.0949,-3.0818,-3.0565,-3.0548,-3.0531,-3.0497,-3.0531,-3.0937,-3.119,-3.119,-3.1157,-3.0937,-3.0852,-3.0736,-3.0668,-3.0649,-3.0632,-3.0751,-3.0801,-3.0954,-3.0954,-3.097,-3.0717,-3.026,-2.9634,-2.9127,-2.9061,-2.8824,-2.8333,-2.8333,-2.879,-2.8688,-2.8299,-2.8341,-2.8524,-2.803,-4.3479,-4.3479,-4.3479,-4.3479,-4.3479,-4.3479,-4.3479,-4.3479,-4.3479,-4.3479,-4.3479,-4.3479,-4.3479,-4.3479,-4.3479,-4.3479,-4.3479,-4.3479,-4.3479,-4.3479,-4.3479,-4.3479,-4.3479,-4.3479,-4.3386,-4.313,-4.2249,-4.1515,-4.0836,-4.0139,-3.968,-3.9533,-3.9074,-3.8799,-3.8707,-3.8505,-3.8083,-3.7731,-3.7419,-3.689,-3.6156,-3.5334,-3.4692,-3.399,-3.388,-3.3807,-3.3807,-3.3807,-3.3715,-3.3623,-3.3605,-3.3495,-3.3073,-3.2137,-3.1641,-3.1604,-3.1641,-3.1651,-3.1495,-3.1952,-3.1937,-3.1874,-3.2506,-3.3045,-3.2998,-3.31,-3.3108,-3.32,-3.3305,-3.3414,-3.3542,-3.3193,-3.2876,-3.2651,-3.2508,-3.2249,-3.1723,-3.1578,-3.1567,-3.154,-3.1396,-3.1157,-3.1038,-3.097,-3.0903,-3.0835,-3.1021,-3.119,-3.119,-3.119,-3.1123,-3.1106,-3.1106,-3.1089,-3.1089,-3.1055,-3.1055,-3.1021,-3.1089,-3.1089,-3.1106,-3.114,-3.0768,-3.0176,-2.9837,-2.9702,-2.9381,-2.9008,-2.9077,-2.9382,-2.9162,-2.8874,-2.9154,-2.9343,-2.8688,-4.3479,-4.3479,-4.3479,-4.3479,-4.3479,-4.3479,-4.3479,-4.3479,-4.3479,-4.3479,-4.3479,-4.3479,-4.3479,-4.3479,-4.3479,-4.3479,-4.3479,-4.3479,-4.3479,-4.3479,-4.3479,-4.3479,-4.3479,-4.3479,-4.3479,-4.3387,-4.3039,-4.2488,-4.1717,-4.091,-4.0377,-3.9863,-3.946,-3.9129,-3.8799,-3.867,-3.8487,-3.8138,-3.8065,-3.7731,-3.6868,-3.572,-3.4821,-3.4491,-3.4045,-3.3825,-3.3807,-3.3807,-3.3807,-3.3788,-3.3807,-3.3807,-3.3568,-3.3183,-3.2596,-3.2577,-3.2577,-3.2557,-3.2434,-3.2957,-3.299,-3.2845,-3.3456,-3.3675,-3.3611,-3.3625,-3.3812,-3.3559,-3.3196,-3.3118,-3.3075,-3.3355,-3.3332,-3.3224,-3.3265,-3.3154,-3.2848,-3.2676,-3.2429,-3.213,-3.1684,-3.141,-3.1173,-3.114,-3.1173,-3.119,-3.1241,-3.1292,-3.136,-3.141,-3.1495,-3.1461,-3.1512,-3.1512,-3.1529,-3.1546,-3.1562,-3.1495,-3.1461,-3.1461,-3.1393,-3.1478,-3.1241,-3.0784,-3.0548,-3.0446,-3.026,-2.9989,-2.9973,-2.9905,-2.977,-2.9719,-3.0025,-2.9991,-2.9403,-4.3479,-4.3479,-4.3479,-4.3479,-4.3479,-4.3479,-4.3479,-4.3479,-4.3479,-4.3479,-4.3479,-4.3479,-4.3479,-4.3479,-4.3479,-4.3479,-4.3479,-4.3479,-4.3479,-4.3479,-4.3479,-4.3479,-4.3479,-4.3479,-4.3479,-4.3479,-4.3424,-4.3167,-4.2506,-4.1735,-4.102,-4.0543,-4.023,-3.9625,-3.9111,-3.8836,-3.8762,-3.8707,-3.8689,-3.8285,-3.7331,-3.6266,-3.5389,-3.5261,-3.4619,-3.4321,-3.4192,-3.4156,-3.399,-3.388,-3.3807,-3.3807,-3.3807,-3.3807,-3.3807,-3.3807,-3.3807,-3.3807,-3.377,-3.3702,-3.3652,-3.3552,-3.3743,-3.388,-3.4179,-3.4321,-3.4334,-3.3821,-3.3679,-3.3595,-3.3885,-3.3945,-3.4165,-3.4157,-3.4288,-3.4343,-3.3971,-3.3667,-3.3315,-3.2832,-3.2127,-3.1935,-3.2002,-3.1985,-3.2138,-3.2154,-3.2188,-3.2154,-3.2188,-3.207,-3.207,-3.1952,-3.1918,-3.1935,-3.1985,-3.2087,-3.2138,-3.2188,-3.2171,-3.2188,-3.2019,-3.1884,-3.1647,-3.1529,-3.143,-3.1312,-3.1123,-3.0869,-3.0666,-3.0514,-3.0446,-3.0497,-3.0615,-3.0675,-3.0336,-4.3479,-4.3479,-4.3479,-4.3479,-4.3479,-4.3479,-4.3479,-4.3479,-4.3479,-4.3479,-4.3479,-4.3479,-4.3479,-4.3479,-4.3479,-4.3479,-4.3479,-4.3479,-4.3479,-4.3479,-4.3479,-4.3479,-4.3479,-4.3479,-4.3479,-4.3479,-4.3479,-4.3478,-4.3094,-4.247,-4.2084,-4.1662,-4.0653,-3.9845,-3.9753,-3.9313,-3.8726,-3.8744,-3.8726,-3.8322,-3.7658,-3.7235,-3.6725,-3.6285,-3.5899,-3.5514,-3.4968,-3.4857,-3.4637,-3.4045,-3.3917,-3.3862,-3.3807,-3.3807,-3.3807,-3.3807,-3.3807,-3.3807,-3.3844,-3.3807,-3.3917,-3.3935,-3.3917,-3.4197,-3.4766,-3.5404,-3.5687,-3.5962,-3.5692,-3.5487,-3.5351,-3.5739,-3.5724,-3.5443,-3.5257,-3.4939,-3.4549,-3.4483,-3.4142,-3.3914,-3.3339,-3.3254,-3.3254,-3.3203,-3.3169,-3.3152,-3.3119,-3.3051,-3.2933,-3.2747,-3.2679,-3.256,-3.2527,-3.2527,-3.2493,-3.2594,-3.2679,-3.2797,-3.2814,-3.2831,-3.2763,-3.2628,-3.2544,-3.2425,-3.2293,-3.1938,-3.1515,-3.1258,-3.1157,-3.1021,-3.0852,-3.092,-3.1089,-3.1075,-3.0978,-4.3479,-4.3479,-4.3479,-4.3479,-4.3479,-4.3479,-4.3479,-4.3479,-4.3479,-4.3479,-4.3479,-4.3479,-4.3479,-4.3479,-4.3479,-4.3479,-4.3479,-4.3479,-4.3479,-4.3479,-4.3479,-4.3479,-4.3479,-4.3479,-4.3479,-4.3479,-4.3479,-4.3479,-4.3332,-4.3167,-4.2818,-4.2231,-4.1625,-4.1038,-4.0616,-4.023,-3.9827,-3.9441,-3.8964,-3.8542,-3.8138,-3.7749,-3.7345,-3.6978,-3.6578,-3.6156,-3.5862,-3.5734,-3.5605,-3.522,-3.522,-3.522,-3.522,-3.5238,-3.5238,-3.5238,-3.5238,-3.4798,-3.399,-3.388,-3.41,-3.4417,-3.4559,-3.4876,-3.5605,-3.6083,-3.6358,-3.6266,-3.5994,-3.6049,-3.6258,-3.6162,-3.621,-3.612,-3.6042,-3.5786,-3.5355,-3.5122,-3.4946,-3.4757,-3.4568,-3.4416,-3.4184,-3.3846,-3.3694,-3.3609,-3.3541,-3.3457,-3.3339,-3.3169,-3.3169,-3.322,-3.3203,-3.3203,-3.3152,-3.3152,-3.3169,-3.3233,-3.3254,-3.3322,-3.3508,-3.3457,-3.3355,-3.3152,-3.2899,-3.2459,-3.1938,-3.1599,-3.1427,-3.1292,-3.119,-3.1275,-3.136,-3.1151,-3.0898,-4.3479,-4.3479,-4.3479,-4.3479,-4.3479,-4.3479,-4.3479,-4.3479,-4.3479,-4.3479,-4.3479,-4.3479,-4.3479,-4.3479,-4.3479,-4.3479,-4.3479,-4.3479,-4.3479,-4.3479,-4.3479,-4.3479,-4.3479,-4.3479,-4.3479,-4.3479,-4.3479,-4.3479,-4.3479,-4.3387,-4.3112,-4.258,-4.2249,-4.1919,-4.1497,-4.1038,-4.0579,-3.9808,-3.9313,-3.8946,-3.8579,-3.8102,-3.79,-3.7624,-3.7257,-3.6813,-3.6629,-3.6611,-3.6574,-3.6193,-3.6119,-3.6046,-3.6083,-3.6028,-3.6046,-3.6046,-3.6028,-3.5661,-3.4945,-3.4688,-3.478,-3.5147,-3.5624,-3.5991,-3.6468,-3.6688,-3.6787,-3.6857,-3.6793,-3.6692,-3.6594,-3.6587,-3.6749,-3.6774,-3.6602,-3.6509,-3.6295,-3.5724,-3.5377,-3.5243,-3.516,-3.5312,-3.4974,-3.4433,-3.4163,-3.4044,-3.3943,-3.3914,-3.388,-3.3846,-3.3998,-3.415,-3.4201,-3.4201,-3.4167,-3.4049,-3.3926,-3.3808,-3.3808,-3.396,-3.4286,-3.4235,-3.4066,-3.3829,-3.3592,-3.3254,-3.2848,-3.2239,-3.1681,-3.1698,-3.1701,-3.1579,-3.1529,-3.1297,-3.0848,-4.3479,-4.3479,-4.3479,-4.3479,-4.3479,-4.3479,-4.3479,-4.3479,-4.3479,-4.3479,-4.3479,-4.3479,-4.3479,-4.3479,-4.3479,-4.3479,-4.3479,-4.3479,-4.3479,-4.3479,-4.3479,-4.3479,-4.3479,-4.3479,-4.3479,-4.3479,-4.3479,-4.3479,-4.3479,-4.3479,-4.3441,-4.3349,-4.2763,-4.2396,-4.2029,-4.1607,-4.102,-4.0359,-3.9937,-3.9496,-3.9093,-3.8744,-3.8634,-3.8615,-3.8487,-3.8193,-3.7474,-3.7419,-3.7217,-3.6652,-3.6652,-3.6633,-3.6725,-3.6707,-3.6725,-3.6725,-3.6688,-3.6468,-3.6174,-3.5862,-3.6046,-3.6376,-3.6795,-3.7199,-3.7401,-3.812,-3.8206,-3.7764,-3.7646,-3.7808,-3.7804,-3.7733,-3.7415,-3.731,-3.6958,-3.6539,-3.6287,-3.5859,-3.5587,-3.5605,-3.5616,-3.5616,-3.56,-3.5025,-3.4873,-3.4754,-3.4805,-3.4776,-3.4906,-3.4923,-3.5092,-3.5228,-3.5278,-3.5312,-3.5346,-3.5177,-3.4839,-3.4771,-3.4788,-3.4991,-3.5245,-3.5076,-3.4687,-3.4692,-3.4472,-3.4134,-3.3829,-3.344,-3.3,-3.2462,-3.2226,-3.2226,-3.1862,-3.1521,-3.091,-4.3479,-4.3479,-4.3479,-4.3479,-4.3479,-4.3479,-4.3479,-4.3479,-4.3479,-4.3479,-4.3479,-4.3479,-4.3479,-4.3479,-4.3479,-4.3479,-4.3479,-4.3479,-4.3479,-4.3479,-4.3479,-4.3479,-4.3479,-4.3479,-4.3479,-4.3479,-4.3479,-4.3479,-4.3479,-4.3479,-4.3479,-4.3332,-4.3112,-4.3112,-4.2782,-4.2249,-4.168,-4.1313,-4.0873,-4.0398,-4.0212,-3.9643,-3.9441,-3.9441,-3.8836,-3.8615,-3.8267,-3.8264,-3.8046,-3.7826,-3.7716,-3.7643,-3.7588,-3.7624,-3.7624,-3.7624,-3.7606,-3.7624,-3.7404,-3.6964,-3.6505,-3.7162,-3.7731,-3.8193,-3.8138,-3.856,-3.8609,-3.8446,-3.832,-3.8342,-3.8433,-3.7877,-3.7398,-3.7524,-3.7301,-3.678,-3.6431,-3.6151,-3.5989,-3.6096,-3.5802,-3.5616,-3.5616,-3.5549,-3.5515,-3.5515,-3.5583,-3.5616,-3.5616,-3.5616,-3.5616,-3.5616,-3.5616,-3.5616,-3.5616,-3.5616,-3.5616,-3.5616,-3.5616,-3.5616,-3.5616,-3.5566,-3.5278,-3.5312,-3.5233,-3.4788,-3.459,-3.4641,-3.4184,-3.3305,-3.3,-3.2966,-3.2483,-3.1786,-3.1047,-4.3479,-4.3479,-4.3479,-4.3479,-4.3479,-4.3479,-4.3479,-4.3479,-4.3479,-4.3479,-4.3479,-4.3479,-4.3479,-4.3479,-4.3479,-4.3479,-4.3479,-4.3479,-4.3479,-4.3479,-4.3479,-4.3479,-4.3479,-4.3479,-4.3479,-4.3479,-4.3479,-4.3479,-4.3479,-4.3479,-4.3479,-4.3479,-4.3479,-4.3442,-4.3314,-4.2983,-4.2561,-4.2176,-4.1846,-4.126,-4.1022,-4.0579,-4.0267,-4.0139,-3.9533,-3.9166,-3.8964,-3.8817,-3.8597,-3.8542,-3.856,-3.8634,-3.867,-3.8707,-3.8707,-3.8707,-3.8707,-3.8707,-3.8377,-3.7918,-3.7276,-3.7863,-3.823,-3.8597,-3.8707,-3.8692,-3.8611,-3.8419,-3.838,-3.8596,-3.8899,-3.8402,-3.8248,-3.8464,-3.7711,-3.719,-3.7067,-3.6842,-3.6666,-3.658,-3.6299,-3.6045,-3.5876,-3.5876,-3.5616,-3.5616,-3.5616,-3.5616,-3.5616,-3.5616,-3.5616,-3.5616,-3.5616,-3.5616,-3.5616,-3.5616,-3.5616,-3.5616,-3.5616,-3.5616,-3.5616,-3.5616,-3.5616,-3.5498,-3.5397,-3.5278,-3.5211,-3.5126,-3.4624,-3.3947,-3.3795,-3.3728,-3.2777,-3.2044,-3.1278,-4.3479,-4.3479,-4.3479,-4.3479,-4.3479,-4.3479,-4.3479,-4.3479,-4.3479,-4.3479,-4.3479,-4.3479,-4.3479,-4.3479,-4.3479,-4.3479,-4.3479,-4.3479,-4.3479,-4.3479,-4.3479,-4.3479,-4.3479,-4.3479,-4.3479,-4.3479,-4.3479,-4.3479,-4.3479,-4.3479,-4.3479,-4.3479,-4.3479,-4.3479,-4.3479,-4.3461,-4.3057,-4.2451,-4.2323,-4.1919,-4.1534,-4.1224,-4.1093,-4.091,-4.0304,-3.99,-3.979,-3.9423,-3.9239,-3.9184,-3.8982,-3.8927,-3.8891,-3.8762,-3.8726,-3.8707,-3.8707,-3.8726,-3.8707,-3.8652,-3.8726,-3.867,-3.8909,-3.8964,-3.8854,-3.8805,-3.8809,-3.8817,-3.9069,-3.936,-3.9372,-3.9205,-3.9189,-3.8997,-3.8243,-3.7855,-3.7718,-3.76,-3.7422,-3.7077,-3.6874,-3.6711,-3.6417,-3.6146,-3.5735,-3.5616,-3.5616,-3.5616,-3.5616,-3.5616,-3.5616,-3.5616,-3.5616,-3.5616,-3.5616,-3.5616,-3.5616,-3.5616,-3.5616,-3.5616,-3.5616,-3.5616,-3.5616,-3.5616,-3.5549,-3.5447,-3.5498,-3.5566,-3.5025,-3.459,-3.4539,-3.4267,-3.3256,-3.2482,-3.1933,-4.3479,-4.3479,-4.3479,-4.3479,-4.3479,-4.3479,-4.3479,-4.3479,-4.3479,-4.3479,-4.3479,-4.3479,-4.3479,-4.3479,-4.3479,-4.3479,-4.3479,-4.3479,-4.3479,-4.3479,-4.3479,-4.3479,-4.3479,-4.3479,-4.3479,-4.3479,-4.3479,-4.3479,-4.3479,-4.3479,-4.3479,-4.3479,-4.3479,-4.3479,-4.3479,-4.3479,-4.3294,-4.3147,-4.3075,-4.2947,-4.2635,-4.2194,-4.1882,-4.1847,-4.113,-4.0726,-4.0689,-4.0251,-4.0086,-3.9994,-3.979,-3.9496,-3.9368,-3.9221,-3.8836,-3.8781,-3.8762,-3.8982,-3.946,-3.9827,-4.001,-3.9753,-3.9483,-3.9669,-4.0123,-4.027,-3.9969,-3.9534,-3.9697,-3.9788,-3.9446,-3.9361,-3.9343,-3.9353,-3.8911,-3.8676,-3.8527,-3.8363,-3.8159,-3.7618,-3.728,-3.6569,-3.6129,-3.6028,-3.5718,-3.5616,-3.5616,-3.5616,-3.5616,-3.5616,-3.5616,-3.5616,-3.5616,-3.5616,-3.5616,-3.5616,-3.5616,-3.5616,-3.5616,-3.5616,-3.5616,-3.5616,-3.5616,-3.5616,-3.5616,-3.5616,-3.5616,-3.56,-3.5515,-3.5301,-3.5131,-3.5064,-3.4516,-3.3792,-3.3123,-4.3479,-4.3479,-4.3479,-4.3479,-4.3479,-4.3479,-4.3479,-4.3479,-4.3479,-4.3479,-4.3479,-4.3479,-4.3479,-4.3479,-4.3479,-4.3479,-4.3479,-4.3479,-4.3479,-4.3479,-4.3479,-4.3479,-4.3479,-4.3479,-4.3479,-4.3479,-4.3479,-4.3479,-4.3479,-4.3479,-4.3479,-4.3479,-4.3479,-4.3479,-4.3479,-4.3479,-4.3478,-4.3387,-4.3369,-4.3387,-4.3222,-4.3002,-4.2727,-4.2488,-4.2029,-4.1517,-4.1425,-4.1315,-4.1132,-4.0967,-4.0689,-4.0304,-4.012,-3.9866,-3.9517,-3.9551,-3.9606,-3.9845,-4.0359,-4.0634,-4.0763,-4.0855,-4.0374,-4.0294,-4.0592,-4.0327,-4.0113,-3.9926,-4.0249,-4.0144,-3.9921,-3.9817,-3.9779,-3.9799,-3.9308,-3.906,-3.8854,-3.8679,-3.8447,-3.7922,-3.7449,-3.6671,-3.5836,-3.5752,-3.5616,-3.5616,-3.5616,-3.5616,-3.5616,-3.5616,-3.5616,-3.5616,-3.5616,-3.5616,-3.5616,-3.5616,-3.5616,-3.5616,-3.5616,-3.5616,-3.5616,-3.5616,-3.5616,-3.5616,-3.5616,-3.5616,-3.5616,-3.5583,-3.5532,-3.5532,-3.5498,-3.5498,-3.5577,-3.4864,-3.3912,-4.3479,-4.3479,-4.3479,-4.3479,-4.3479,-4.3479,-4.3479,-4.3479,-4.3479,-4.3479,-4.3479,-4.3479,-4.3479,-4.3479,-4.3479,-4.3479,-4.3479,-4.3479,-4.3479,-4.3479,-4.3479,-4.3479,-4.3479,-4.3479,-4.3479,-4.3479,-4.3479,-4.3479,-4.3479,-4.3479,-4.3479,-4.3479,-4.3479,-4.3479,-4.3479,-4.3479,-4.3479,-4.3479,-4.3479,-4.3479,-4.3406,-4.3406,-4.3277,-4.3057,-4.2708,-4.2396,-4.2176,-4.1882,-4.157,-4.1352,-4.1205,-4.115,-4.1113,-4.1095,-4.1095,-4.104,-4.093,-4.1077,-4.1167,-4.1315,-4.1717,-4.1887,-4.1105,-4.0583,-4.0582,-4.0799,-4.0703,-4.0618,-4.0753,-4.0715,-4.0654,-4.0574,-4.0497,-4.002,-3.9367,-3.9126,-3.8897,-3.87,-3.8497,-3.8142,-3.7753,-3.7026,-3.5938,-3.5616,-3.5616,-3.5616,-3.5616,-3.5616,-3.5616,-3.5616,-3.5616,-3.5616,-3.5616,-3.5616,-3.5616,-3.5616,-3.5616,-3.5616,-3.5616,-3.5616,-3.5616,-3.5616,-3.5616,-3.5616,-3.5616,-3.5616,-3.5616,-3.5616,-3.56,-3.56,-3.5532,-3.5532,-3.5492,-3.5028,-3.4235,-4.3479,-4.3479,-4.3479,-4.3479,-4.3479,-4.3479,-4.3479,-4.3479,-4.3479,-4.3479,-4.3479,-4.3479,-4.3479,-4.3479,-4.3479,-4.3479,-4.3479,-4.3479,-4.3479,-4.3479,-4.3479,-4.3479,-4.3479,-4.3479,-4.3479,-4.3479,-4.3479,-4.3479,-4.3479,-4.3479,-4.3479,-4.3479,-4.3479,-4.3479,-4.3479,-4.3479,-4.3479,-4.3479,-4.3479,-4.3479,-4.3479,-4.3479,-4.3479,-4.3351,-4.324,-4.302,-4.2892,-4.28,-4.2635,-4.2671,-4.2194,-4.1974,-4.1956,-4.1462,-4.1113,-4.1168,-4.1499,-4.1974,-4.2066,-4.2488,-4.2837,-4.2861,-4.2268,-4.2396,-4.2359,-4.2087,-4.1735,-4.1401,-4.1235,-4.1215,-4.0748,-4.0525,-4.0274,-3.9639,-3.9013,-3.8543,-3.8413,-3.8531,-3.8328,-3.8041,-3.7686,-3.6823,-3.5785,-3.5616,-3.5616,-3.5616,-3.5616,-3.5616,-3.5616,-3.5616,-3.5616,-3.5616,-3.5616,-3.5616,-3.5616,-3.5616,-3.5616,-3.5616,-3.5616,-3.5616,-3.5616,-3.5616,-3.5616,-3.5616,-3.5616,-3.5616,-3.5616,-3.5616,-3.5616,-3.5424,-3.5316,-3.5362,-3.5276,-3.4712,-3.4211,-4.3479,-4.3479,-4.3479,-4.3479,-4.3479,-4.3479,-4.3479,-4.3479,-4.3479,-4.3479,-4.3479,-4.3479,-4.3479,-4.3479,-4.3479,-4.3479,-4.3479,-4.3479,-4.3479,-4.3479,-4.3479,-4.3479,-4.3479,-4.3479,-4.3479,-4.3479,-4.3479,-4.3479,-4.3479,-4.3479,-4.3479,-4.3479,-4.3479,-4.3479,-4.3479,-4.3479,-4.3479,-4.3479,-4.3479,-4.3479,-4.3479,-4.3479,-4.3479,-4.3479,-4.3479,-4.3479,-4.3479,-4.3479,-4.3479,-4.3479,-4.2892,-4.2782,-4.2745,-4.2304,-4.2103,-4.2231,-4.247,-4.2763,-4.2837,-4.3147,-4.3387,-4.3375,-4.3014,-4.2978,-4.2905,-4.2648,-4.2149,-4.1718,-4.1711,-4.1584,-4.0857,-4.0199,-3.9646,-3.9094,-3.8461,-3.7845,-3.7973,-3.821,-3.8058,-3.7804,-3.7161,-3.6332,-3.5802,-3.5684,-3.5616,-3.5616,-3.5616,-3.5616,-3.5616,-3.5616,-3.5616,-3.5616,-3.5616,-3.5616,-3.5616,-3.5616,-3.5616,-3.5616,-3.5616,-3.5616,-3.5616,-3.5616,-3.5616,-3.5616,-3.5616,-3.5616,-3.5616,-3.5616,-3.5577,-3.5402,-3.523,-3.5184,-3.4847,-3.4028,-3.3598,-4.3479,-4.3479,-4.3479,-4.3479,-4.3479,-4.3479,-4.3479,-4.3479,-4.3479,-4.3479,-4.3479,-4.3479,-4.3479,-4.3479,-4.3479,-4.3479,-4.3479,-4.3479,-4.3479,-4.3479,-4.3479,-4.3479,-4.3479,-4.3479,-4.3479,-4.3479,-4.3479,-4.3479,-4.3479,-4.3479,-4.3479,-4.3479,-4.3479,-4.3479,-4.3479,-4.3479,-4.3479,-4.3479,-4.3479,-4.3479,-4.3479,-4.3479,-4.3479,-4.3479,-4.3479,-4.3479,-4.3479,-4.3479,-4.3479,-4.3479,-4.3461,-4.3406,-4.3351,-4.3296,-4.3296,-4.3208,-4.3154,-4.3207,-4.3191,-4.3337,-4.3302,-4.3214,-4.3014,-4.2884,-4.2752,-4.2523,-4.1961,-4.1877,-4.186,-4.1498,-4.0869,-4.0245,-3.9634,-3.9048,-3.8427,-3.7746,-3.7381,-3.7483,-3.733,-3.7077,-3.6654,-3.5887,-3.5735,-3.5616,-3.5616,-3.5616,-3.5616,-3.5616,-3.5616,-3.5616,-3.5616,-3.5616,-3.5616,-3.5616,-3.5616,-3.5616,-3.5616,-3.5616,-3.5616,-3.5616,-3.5616,-3.5616,-3.5616,-3.5616,-3.5616,-3.5616,-3.5616,-3.5616,-3.56,-3.5515,-3.5339,-3.5098,-3.4471,-3.3572,-3.3145,-4.3479,-4.3479,-4.3479,-4.3479,-4.3479,-4.3479,-4.3479,-4.3479,-4.3479,-4.3479,-4.3479,-4.3479,-4.3479,-4.3479,-4.3479,-4.3479,-4.3479,-4.3479,-4.3479,-4.3479,-4.3479,-4.3479,-4.3479,-4.3479,-4.3479,-4.3479,-4.3479,-4.3479,-4.3479,-4.3479,-4.3479,-4.3479,-4.3479,-4.3479,-4.3479,-4.3479,-4.3479,-4.3479,-4.3479,-4.3479,-4.3479,-4.3479,-4.3479,-4.3479,-4.3479,-4.3479,-4.3479,-4.3479,-4.3479,-4.3479,-4.3479,-4.3479,-4.3461,-4.3479,-4.3479,-4.3427,-4.3105,-4.3087,-4.3142,-4.305,-4.2902,-4.2865,-4.2656,-4.2462,-4.2244,-4.1958,-4.1832,-4.1874,-4.1757,-4.1332,-4.0824,-4.0205,-3.9622,-3.9012,-3.8495,-3.7708,-3.6965,-3.6806,-3.6705,-3.6383,-3.6062,-3.5853,-3.5701,-3.5616,-3.5616,-3.5616,-3.5616,-3.5616,-3.5616,-3.5616,-3.5616,-3.5616,-3.5616,-3.5616,-3.5616,-3.5616,-3.5616,-3.5616,-3.5616,-3.5616,-3.5616,-3.5616,-3.5616,-3.5616,-3.5616,-3.5616,-3.5616,-3.5616,-3.56,-3.543,-3.5121,-3.4776,-3.4062,-3.3198,-3.2895,-4.3479,-4.3479,-4.3479,-4.3479,-4.3479,-4.3479,-4.3479,-4.3479,-4.3479,-4.3479,-4.3479,-4.3479,-4.3479,-4.3479,-4.3479,-4.3479,-4.3479,-4.3479,-4.3479,-4.3479,-4.3479,-4.3479,-4.3479,-4.3479,-4.3479,-4.3479,-4.3479,-4.3479,-4.3479,-4.3479,-4.3479,-4.3479,-4.3479,-4.3479,-4.3479,-4.3479,-4.3479,-4.3479,-4.3479,-4.3479,-4.3479,-4.3479,-4.3479,-4.3479,-4.3479,-4.3479,-4.3479,-4.3479,-4.3479,-4.3479,-4.3479,-4.3479,-4.341,-4.3232,-4.3142,-4.2976,-4.2694,-4.2424,-4.2599,-4.256,-4.2344,-4.2362,-4.2,-4.1647,-4.1832,-4.1534,-4.115,-4.1196,-4.1335,-4.1005,-4.0313,-3.9675,-3.9184,-3.8605,-3.8574,-3.8241,-3.7686,-3.7381,-3.7077,-3.6637,-3.6349,-3.6113,-3.5926,-3.5616,-3.5616,-3.5616,-3.5616,-3.5684,-3.5667,-3.5616,-3.5616,-3.5616,-3.5616,-3.5616,-3.5616,-3.5616,-3.5616,-3.5616,-3.5616,-3.5616,-3.5616,-3.5616,-3.5616,-3.5616,-3.5616,-3.5616,-3.5616,-3.5616,-3.5316,-3.5052,-3.4712,-3.4358,-3.3598,-3.2895,-3.2586,-4.3479,-4.3479,-4.3479,-4.3479,-4.3479,-4.3479,-4.3479,-4.3479,-4.3479,-4.3479,-4.3479,-4.3479,-4.3479,-4.3479,-4.3479,-4.3479,-4.3479,-4.3479,-4.3479,-4.3479,-4.3479,-4.3479,-4.3479,-4.3479,-4.3479,-4.3479,-4.3479,-4.3479,-4.3479,-4.3479,-4.3479,-4.3479,-4.3479,-4.3479,-4.3479,-4.3479,-4.3479,-4.3479,-4.3479,-4.3479,-4.3479,-4.3479,-4.3479,-4.3479,-4.3479,-4.3479,-4.3479,-4.3479,-4.3479,-4.3479,-4.3479,-4.3479,-4.3427,-4.3214,-4.2939,-4.2751,-4.2482,-4.2223,-4.2124,-4.2062,-4.2,-4.1835,-4.1251,-4.1115,-4.1358,-4.1173,-4.0774,-4.0625,-4.078,-4.0623,-3.9934,-3.951,-3.9011,-3.8681,-3.8792,-3.8785,-3.8345,-3.7905,-3.7449,-3.7015,-3.6789,-3.6552,-3.6315,-3.5971,-3.5887,-3.5853,-3.5769,-3.5769,-3.5769,-3.5667,-3.5616,-3.5616,-3.5616,-3.5616,-3.5616,-3.5616,-3.5616,-3.5616,-3.5616,-3.5616,-3.5616,-3.5616,-3.5616,-3.5616,-3.5616,-3.5616,-3.5616,-3.5616,-3.523,-3.4807,-3.4616,-3.426,-3.3287,-3.2641,-3.2272,-4.3479,-4.3479,-4.3479,-4.3479,-4.3479,-4.3479,-4.3479,-4.3479,-4.3479,-4.3479,-4.3479,-4.3479,-4.3479,-4.3479,-4.3479,-4.3479,-4.3479,-4.3479,-4.3479,-4.3479,-4.3479,-4.3479,-4.3479,-4.3479,-4.3479,-4.3479,-4.3479,-4.3515,-4.3718,-4.3626,-4.3552,-4.3644,-4.3626,-4.3608,-4.3588,-4.3643,-4.3772,-4.3808,-4.3773,-4.3773,-4.3681,-4.3626,-4.3497,-4.3479,-4.3479,-4.3479,-4.3479,-4.3479,-4.3479,-4.3479,-4.3479,-4.3479,-4.341,-4.3268,-4.3014,-4.2693,-4.242,-4.2302,-4.2162,-4.1937,-4.1916,-4.2041,-4.1578,-4.1178,-4.1201,-4.0949,-4.0601,-4.0286,-4.0343,-4.0343,-3.9918,-3.9918,-3.9605,-3.9436,-3.9428,-3.9106,-3.8734,-3.8328,-3.7922,-3.7719,-3.7601,-3.7466,-3.7381,-3.7172,-3.7155,-3.7043,-3.6688,-3.6654,-3.6485,-3.6129,-3.5752,-3.5769,-3.5819,-3.5616,-3.5616,-3.5616,-3.5616,-3.5616,-3.5616,-3.5616,-3.5616,-3.5616,-3.5616,-3.5616,-3.5616,-3.5616,-3.5616,-3.5616,-3.5207,-3.4847,-3.4688,-3.4235,-3.3182,-3.241,-3.2035]},{"header":{"parameterUnit":"m.s-1","parameterCategory":1,"la1":31.0,"la2":29.5877,"lo1":-88.7671,"lo2":-86.6584,"dy":0.0162,"dx":0.0185,"nx":115,"ny":88,"refTime":"2026-04-13T00:00:00:Z","depth":0,"parameterNumber":3,"parameterNumberName":"V-component_of_WINDS"},"data":[0.0,0.0,0.0,0.0,0.0,0.0,0.0,0.0,0.0,0.0,0.0,0.0,0.0,0.0,0.0,0.0,0.0,0.0,0.0,0.0,0.0,0.0,0.0,0.0,0.0,0.0,0.0,0.0,0.0,0.0,0.0,0.0,0.0,0.0,0.0,0.0,0.0,0.0,0.0,0.0,0.0,0.0,0.0,0.0,0.0,0.0,0.0,0.0,0.0,0.0,0.0,0.0,0.0,0.0,0.0,0.0,0.0,0.0,0.0,0.0,0.0,0.0,0.0,0.0,0.0,0.0,0.0,0.0,0.0,0.0,0.0,0.0,0.0,0.0,0.0,0.0,0.0,0.0,0.0,0.0,0.0,0.0,0.0,0.0,0.0,0.0,0.0,0.0,0.0,0.0,0.0,0.0,0.0,0.0,0.0,0.0,0.0,0.0,0.0,0.0,0.0,0.0,0.0,0.0,0.0,0.0,0.0,0.0,0.0,0.0,0.0,0.0,0.0,0.0,0.0,0.0,0.0,0.0,0.0,0.0,0.0,0.0,0.0,0.0,0.0,0.0,0.0,0.0,0.0,0.0,0.0,0.0,0.0,0.0,0.0,0.0,0.0,0.0,0.0,0.0,0.0,0.0,0.0,0.0,0.0,0.0,0.0,0.0,0.0,0.0,0.0,0.0,0.0,0.0,0.0,0.0,0.0,0.0,0.0,0.0,0.0,0.0,0.0,0.0,0.0,0.0,0.0,0.0,0.0,0.0,0.0,0.0,0.0,0.0,0.0,0.0,0.0,0.0,0.0,0.0,0.0,0.0,0.0,0.0,0.0,0.0,0.0,0.0,0.0,0.0,0.0,0.0,0.0,0.0,0.0,0.0,0.0,0.0,0.0,0.0,0.0,0.0,0.0,0.0,0.0,0.0,0.0,0.0,0.0,0.0,0.0,0.0,0.0,0.0,0.0,0.0,0.0,0.0,0.0,0.0,0.0,0.0,0.0,0.0,0.0,0.0,0.0,0.0,0.0,0.0,0.0,0.0,0.0,0.0,0.0,0.0,0.0,0.0,0.0,0.0,0.0,0.0,0.0,0.0,0.0,0.0,0.0,0.0,0.0,0.0,0.0,0.0,0.0,0.0,0.0,0.0,0.0,0.0,0.0,0.0,0.0,0.0,0.0,0.0,0.0,0.0,0.0,0.0,0.0,0.0,0.0,0.0,0.0,0.0,0.0,0.0,0.0,0.0,0.0,0.0,0.0,0.0,0.0,0.0,0.0,0.0,0.0,0.0,0.0,0.0,0.0,0.0,0.0,0.0,0.0,0.0,0.0,0.0,0.0,0.0,0.0,0.0,0.0,0.0,0.0,0.0,0.0,0.0,0.0,0.0,0.0,0.0,0.0,0.0,0.0,0.0,0.0,0.0,0.0,0.0,0.0,0.0,0.0,0.0,0.0,0.0,0.0,0.0,0.0,0.0,0.0,0.0,0.0,0.0,0.0,0.0,0.0,0.0,0.0,0.0,0.0,0.0,0.0,0.0,0.0,0.0,0.0,0.0,0.0,0.0,0.0,0.0,0.0,0.0,0.0,0.0,0.0,0.0,0.0,0.0,0.0,0.0,0.0,0.0,0.0,0.0,0.0,0.0,0.0,0.0,0.0,0.0,0.0,0.0,0.0,0.0,0.0,0.0,0.0,0.0,0.0,0.0,0.0,0.0,0.0,0.0,0.0,0.0,0.0,0.0,0.0,0.0,0.0,0.0,0.0,0.0,0.0,0.0,0.0,0.0,0.0,0.0,0.0,0.0,0.0,0.0,0.0,0.0,0.0,0.0,0.0,0.0,0.0,0.0,0.0,0.0,0.0,0.0,0.0,0.0,0.0,0.0,0.0,0.0,0.0,0.0,0.0,0.0,0.0,0.0,0.0,0.0,0.0,0.0,0.0,0.0,0.0,0.0,0.0,0.0,0.0,0.0,0.0,0.0,0.0,0.0,0.0,0.0,0.0,0.0,0.0,0.0,0.0,0.0,0.0,0.0,0.0,0.0,0.0,0.0,0.0,0.0,0.0,0.0,0.0,0.0,0.0,0.0,0.0,0.0,0.0,0.0,0.0,0.0,0.0,0.0,0.0,0.0,0.0,0.0,0.0,0.0,0.0,0.0,0.0,0.0,0.0,0.0,0.0,0.0,0.0,0.0,0.0,0.0,0.0,0.0,0.0,0.0,0.0,0.0,0.0,0.0,0.0,0.0,0.0,0.0,0.0,0.0,0.0,0.0,0.0,0.0,0.0,0.0,0.0,0.0,0.0,0.0,0.0,0.0,0.0,0.0,0.0,0.0,0.0,0.0,0.0,0.0,0.0,0.0,0.0,0.0,0.0,0.0,0.0,0.0,0.0,0.0,0.0,0.0,0.0,0.0,0.0,0.0,0.0,0.0,0.0,0.0,0.0,0.0,0.0,0.0,0.0,0.0,0.0,0.0,0.0,0.0,0.0,0.0,0.0,0.0,0.0,0.0,0.0,0.0,0.0,0.0,0.0,0.0,0.0,0.0,0.0,0.0,0.0,0.0,0.0,0.0,0.0,0.0,0.0,0.0,0.0,0.0,0.0,0.0,0.0,0.0,0.0,0.0,0.0,0.0,0.0,0.0,0.0,0.0,0.0,0.0,0.0,0.0,0.0,0.0,0.0,0.0,0.0,0.0,0.0,0.0,0.0,0.0,0.0,0.0,0.0,0.0,0.0,0.0,0.0,0.0,0.0,0.0,0.0,0.0,0.0,0.0,0.0,0.0,0.0,0.0,0.0,0.0,0.0,0.0,0.0,0.0,0.0,0.0,0.0,0.0,0.0,0.0,0.0,0.0,0.0,0.0,0.0,0.0,0.0,0.0,0.0,0.0,0.0,0.0,0.0,0.0,0.0,0.0,0.0,0.0,0.0,0.0,0.0,0.0,0.0,0.0,0.0,0.0,0.0,0.0,0.0,0.0,0.0,0.0,0.0,0.0,0.0,0.0,0.0,0.0,0.0,0.0,0.0,0.0,0.0,0.0,0.0,0.0,0.0,0.0,0.0,0.0,0.0,0.0,0.0,0.0,0.0,0.0,0.0,0.0,0.0,0.0,0.0,0.0,0.0,0.0,0.0,0.0,0.0,0.0,0.0,0.0,0.0,0.0,0.0,0.0,0.0,0.0,0.0,0.0,0.0,0.0,0.0,0.0,0.0,0.0,0.0,0.0,0.0,0.0,0.0,0.0,0.0,0.0,0.0,0.0,0.0,0.0,0.0,0.0,0.0,0.0,0.0,0.0,0.0,0.0,0.0,0.0,0.0,0.0,0.0,0.0,0.0,0.0,0.0,0.0,0.0,0.0,0.0,0.0,0.0,0.0,0.0,0.0,0.0,0.0,0.0,0.0,0.0,0.0,0.0,0.0,0.0,0.0,0.0,0.0,0.0,0.0,0.0,0.0,0.0,0.0,0.0,0.0,0.0,0.0,0.0,0.0,0.0,0.0,0.0,0.0,0.0,0.0,0.0,0.0,0.0,0.0,0.0,0.0,0.0,0.0,0.0,0.0,0.0,0.0,0.0,0.0,0.0,0.0,0.0,0.0,0.0,0.0,0.0,0.0,0.0,0.0,0.0,0.0,0.0,0.0,0.0,0.0,0.0,0.0,0.0,0.0,0.0,0.0,0.0,0.0,0.0,0.0,0.0,0.0,0.0,0.0,0.0,0.0,0.0,0.0,0.0,0.0,0.0,0.0,0.0,0.0,0.0,0.0,0.0,0.0,0.0,0.0,0.0,0.0,0.0,0.0,0.0,0.0,0.0,0.0,0.0,0.0,0.0,0.0,0.0,0.0,0.0,0.0,0.0,0.0,0.0,0.0,0.0,0.0,0.0,0.0,0.0,0.0,0.0,0.0,0.0,0.0,0.0,0.0,0.0,0.0,0.0,0.0,0.0,0.0,0.0,0.0,0.0,0.0,0.0,0.0,0.0,0.0,0.0,0.0,0.0,0.0,0.0,0.0,0.0,0.0,0.0,0.0,0.0,0.0,0.0,0.0,0.0,0.0,0.0,0.0,0.0,0.0,0.0,0.0,0.0,0.0,0.0,0.0,0.0,0.0,0.0,0.0,0.0,0.0,0.0,0.0,0.0,0.0,0.0,0.0,0.0,0.0,0.0,0.0,0.0,0.0,0.0,0.0,0.0,0.0,0.0,0.0,0.0,0.0,0.0,0.0,0.0,0.0,0.0,0.0,0.0,0.0,0.0,0.0,0.0,0.0,0.0,0.0,0.0,0.0,0.6504,0.0,0.0,0.0,0.0,0.0,0.0,0.0,0.0,0.0,0.0,0.0,0.0,0.0,0.0,0.0,0.0,0.0,0.0,0.0,0.0,0.0,0.0,0.0,0.0,0.0,0.0,0.0,0.0,0.0,0.0,0.0,0.0,0.0,0.0,0.0,0.0,0.0,0.0,0.0,0.0,0.0,0.0,0.0,0.0,0.0,0.0,0.0,0.0,0.0,0.0,0.0,0.0,0.0,0.0,0.0,0.0,0.0,0.0,0.0,0.0,0.0,0.0,0.0,0.0,0.0,0.0,0.0,0.0,0.0,0.0,0.0,0.0,0.0,0.0,0.0,0.0,0.0,0.0,0.0,0.0,0.0,0.0,0.0,0.0,0.0,0.0,0.0,0.0,0.0,0.0,0.0,0.0,0.0,0.0,0.0,0.0,0.0,0.0,0.0,0.0,0.0,0.0,0.0,0.0,0.0,0.0,0.0,0.0,0.0,0.0,0.6103,0.6201,0.6462,0.659,0.659,0.0,0.0,0.0,0.0,0.0,0.0,0.0,0.0,0.0,0.0,0.0,0.0,0.0,0.0,0.0,0.0,0.0,0.0,0.0,0.0,0.0,0.0,0.0,0.0,0.0,0.0,0.0,0.0,0.0,0.0,0.0,0.0,0.0,0.0,0.0,0.0,0.0,0.0,0.0,0.0,0.0,0.0,0.0,0.0,0.0,0.0,0.0,0.0,0.0,0.0,0.0,0.0,0.0,0.0,0.0,0.0,0.0,0.0,0.0,0.0,0.0,0.0,0.0,0.0,0.0,0.0,0.0,0.0,0.0,0.0,0.0,0.0,0.0,0.0,0.0,0.0,0.0,0.0,0.0,0.0,0.0,0.0,0.0,0.0,0.0,0.0,0.0,0.0,0.0,0.0,0.0,0.0,0.0,0.0,0.0,0.0,0.0,0.0,0.0,0.0,0.0,0.0,0.0,0.0,0.0,0.0,0.0,0.0,0.0,0.0,0.0,0.0,0.6475,0.6605,0.6671,0.0,0.0,0.0,0.0,0.0,0.0,0.0,0.0,0.0,0.0,0.0,0.0,0.0,0.0,0.0,0.0,0.0,0.0,0.0,0.0,0.0,0.0,0.0,0.0,0.0,0.0,0.0,0.0,0.0,0.0,0.0,0.0,0.0,0.0,0.0,0.0,0.0,0.0,0.0,0.0,0.0,0.0,0.0,0.0,0.0,0.0,0.0,0.0,0.0,0.0,0.0,0.0,0.0,0.0,0.0,0.0,0.0,0.0,0.0,0.0,0.0,0.0,0.0,0.0,0.0,0.0,0.0,0.0,0.0,0.0,0.0,0.0,0.0,0.0,0.0,0.0,0.0,0.0,0.0,0.0,0.0,0.0,0.0,0.0,0.0,0.0,0.0,0.0,0.0,0.0,0.0,0.0,0.0,0.0,0.0,0.0,0.0,0.0,0.0,0.0,0.0,0.0,0.0,0.0,0.0,0.0,0.0,0.0,0.0,0.0,0.5855,0.6459,0.6501,0.0,0.688,0.0,0.0,0.0,0.0,0.0,0.0,0.0,0.0,0.0,0.0,0.0,0.0,0.0,0.0,0.0,0.0,0.0,0.0,0.0,0.0,0.0,0.0,0.0,0.0,0.0,0.0,0.0,0.0,0.0,0.0,0.0,0.0,0.0,0.0,0.0,0.0,0.0,0.0,0.0,0.0,0.0,0.0,0.0,0.0,0.0,0.0,0.0,0.0,0.0,0.0,0.0,0.0,0.0,0.0,0.0,0.0,0.0,0.0,0.0,0.0,0.0,0.0,0.0,0.0,0.0,0.0,0.0,0.0,0.0,0.0,0.0,0.0,0.0,0.0,0.0,0.0,0.0,0.0,0.0,0.0,0.0,0.0,0.0,0.0,0.0,0.0,0.0,0.0,0.0,0.0,0.0,0.0,0.0,0.0,0.0,0.0,0.0,0.0,0.0,0.0,0.0,0.0,0.0,0.0,0.0,0.0,0.0,0.0,0.0,0.0,0.6577,0.6843,0.6987,0.7067,0.0,0.0,0.0,0.0,0.0,0.0,0.0,0.0,0.0,0.0,0.0,0.0,0.0,0.0,0.0,0.0,0.0,0.0,0.0,0.0,0.0,0.0,0.0,0.0,0.0,0.0,0.0,0.0,0.0,0.0,0.0,0.0,0.0,0.0,0.0,0.0,0.0,0.0,0.0,0.0,0.0,0.0,0.0,0.0,0.0,0.0,0.0,0.0,0.0,0.0,0.0,0.0,0.0,0.0,0.0,0.0,0.0,0.0,0.0,0.0,0.0,0.0,0.0,0.0,0.0,0.0,0.0,0.0,0.0,0.0,0.0,0.0,0.0,0.0,0.0,0.0,0.0,0.0,0.0,0.0,0.0,0.0,0.0,0.0,0.0,0.0,0.0,0.0,0.0,0.0,0.0,0.0,0.0,0.0,0.0,0.0,0.0,0.0,0.0,0.0,0.0,0.0,0.0,0.0,0.0,0.0,0.0,0.0,0.0,0.0,0.6539,0.0,0.7011,0.7366,0.7456,0.7269,0.0,0.0,0.0,0.0,0.0,0.0,0.0,0.0,0.0,0.0,0.0,0.0,0.0,0.0,0.0,0.0,0.0,0.0,0.0,0.0,0.0,0.0,0.0,0.0,0.0,0.0,0.0,0.0,0.0,0.0,0.0,0.0,0.0,0.0,0.0,0.0,0.0,0.0,0.0,0.0,0.0,0.0,0.0,0.0,0.0,0.0,0.0,0.0,0.0,0.0,0.0,0.0,0.0,0.0,0.0,0.0,0.0,0.0,0.0,0.0,0.0,0.0,0.0,0.0,0.0,0.0,0.0,0.0,0.0,0.0,0.0,0.0,0.0,0.0,0.0,0.0,0.0,0.0,0.0,0.0,0.0,0.0,0.0,0.0,0.0,0.0,0.0,0.0,0.0,0.0,0.0,0.0,0.0,0.0,0.0,0.0,0.0,0.0,0.0,0.0,0.0,0.0,0.0,0.0,0.0,0.0,0.0,0.0,0.0,0.6169,0.6169,0.6829,0.7497,0.757,0.0,0.0,0.0,0.0,0.0,0.0,0.0,0.0,0.0,0.0,0.0,0.0,0.0,0.0,0.0,0.0,0.0,0.0,0.0,0.0,0.0,0.0,0.0,0.0,0.0,0.0,0.0,0.0,0.0,0.0,0.0,0.0,0.0,0.0,0.0,0.0,0.0,0.0,0.0,0.0,0.0,0.0,0.0,0.0,0.0,0.0,0.0,0.0,0.0,0.0,0.0,0.0,0.0,0.0,0.0,0.0,0.0,0.0,0.0,0.0,0.0,0.0,0.0,0.0,0.0,0.0,0.0,0.0,0.0,0.0,0.0,0.0,0.0,0.0,0.0,0.0,0.0,0.0,0.0,0.0,0.0,0.0,0.0,0.0,0.0,0.0,0.0,0.0,0.0,0.0,0.0,0.0,0.0,0.0,0.0,0.0,0.0,0.0,0.0,0.0,0.0,0.0,0.0,0.0,0.0,0.0,0.0,0.0,0.0,0.5713,0.5971,0.6637,0.763,0.7515,0.7393,0.0,0.0,0.0,0.0,0.0,0.0,0.0,0.0,0.0,0.0,0.0,0.0,0.0,0.0,0.0,0.0,0.0,0.0,0.0,0.0,0.0,0.0,0.0,0.0,0.0,0.0,0.0,0.0,0.0,0.0,0.0,0.0,0.0,0.0,0.0,0.0,0.0,0.0,0.0,0.0,0.0,0.0,0.0,0.0,0.0,0.0,0.0,0.0,0.0,0.0,0.0,0.0,0.0,0.0,0.0,0.0,0.0,0.0,0.0,0.0,0.0,0.0,0.0,0.0,0.0,0.0,0.0,0.0,0.0,0.0,0.0,0.0,0.0,0.0,0.0,0.0,0.0,0.0,0.0,0.0,0.0,0.0,0.0,0.0,0.0,0.0,0.0,0.0,0.0,0.0,0.0,0.0,0.0,0.0,0.0,0.0,0.0,0.0,0.0,0.0,0.0,0.0,0.0,0.0,0.0,0.0,0.0,0.0,0.0,0.5537,0.0,0.705,0.0,0.7492,0.733,0.0,0.0,0.0,0.0,0.0,0.0,0.0,0.0,0.0,0.0,0.0,0.0,0.0,0.0,0.0,0.0,0.0,0.0,0.0,0.0,0.0,0.0,0.0,0.0,0.0,0.0,0.0,0.0,0.0,0.0,0.0,0.0,0.0,0.0,0.0,0.0,0.0,0.0,0.0,0.0,0.0,0.0,0.0,0.0,0.0,0.0,0.0,0.0,0.0,0.0,0.0,0.0,0.0,0.0,0.0,0.0,0.0,0.0,0.0,0.0,0.0,0.0,0.0,0.0,0.0,0.0,0.0,0.0,0.0,0.0,0.0,0.0,0.0,0.0,0.0,0.0,0.0,0.0,0.0,0.0,0.0,0.0,0.0,0.0,0.0,0.0,0.0,0.0,0.0,0.0,0.0,0.0,0.0,0.0,0.0,0.0,0.0,0.0,0.0,0.0,0.0,0.0,0.0,0.0,0.0,0.0,0.0,0.0,0.5536,0.636,0.7006,0.7277,0.7221,0.7485,0.732,0.0,0.0,0.0,0.0,0.0,0.0,0.0,0.0,0.0,0.0,0.0,0.0,0.0,0.0,0.0,0.0,0.0,0.0,0.0,0.0,0.0,0.0,0.0,0.0,0.0,0.0,0.0,0.0,0.0,0.0,0.0,0.0,0.0,0.0,0.0,0.0,0.0,0.0,0.0,0.0,0.0,0.0,0.0,0.0,0.0,0.0,0.0,0.0,0.0,0.0,0.0,0.0,0.0,0.0,0.0,0.0,0.0,0.0,0.0,0.0,0.0,0.0,0.0,0.0,0.0,0.0,0.0,0.0,0.0,0.0,0.0,0.0,0.0,0.0,0.0,0.0,0.0,0.0,0.0,0.0,0.0,0.0,0.0,0.0,0.0,0.0,0.0,0.0,0.0,0.0,0.0,0.0,0.0,0.0,0.0,0.0,0.0,0.0,0.0,0.0,0.0,0.0,0.0,0.0,0.0,0.0,0.0,0.0,0.0,0.5988,0.6459,0.6841,0.7126,0.6966,0.6931,0.0,0.0,0.0,0.0,0.0,0.0,0.0,0.0,0.0,0.0,0.0,0.0,0.0,0.0,0.0,0.0,0.0,0.0,0.0,0.0,0.0,0.0,0.0,0.0,0.0,0.0,0.0,0.0,0.0,0.0,0.0,0.0,0.0,0.0,0.0,0.0,0.0,0.0,0.0,0.0,0.0,0.0,0.0,0.0,0.0,0.0,0.0,0.0,0.0,0.0,0.0,0.0,0.0,0.0,0.0,0.0,0.0,0.0,0.0,0.0,0.0,0.0,0.0,0.0,0.0,0.0,0.0,0.0,0.0,0.0,0.0,0.0,0.0,0.0,0.0,0.0,0.0,0.0,0.0,0.0,0.0,0.0,0.0,0.0,0.0,0.0,0.0,0.0,0.0,0.0,0.0,0.0,0.0,0.0,0.0,0.0,0.0,0.0,0.0,0.0,0.0,0.0,0.0,0.0,0.0,0.0,0.0,0.0,0.0,0.632,0.6849,0.7252,0.7476,0.7141,0.7002,0.708,0.0,0.0,0.0,0.0,0.0,0.0,0.0,0.0,0.0,0.0,0.0,0.0,0.0,0.0,0.0,0.0,0.0,0.0,0.0,0.0,0.0,0.0,0.0,0.0,0.0,0.0,0.0,0.0,0.0,0.0,0.0,0.0,0.0,0.0,0.0,0.0,0.0,0.0,0.0,0.0,0.0,0.0,0.0,0.0,0.0,0.0,0.0,0.0,0.0,0.0,0.0,0.0,0.0,0.0,0.0,0.0,0.0,0.0,0.0,0.0,0.0,0.0,0.0,0.0,0.0,0.0,0.0,0.0,0.0,0.0,0.0,0.0,0.0,0.0,0.0,0.0,0.0,0.0,0.0,0.0,0.0,0.0,0.0,0.0,0.0,0.0,0.0,0.0,0.0,0.0,0.0,0.0,0.0,0.0,0.0,0.0,0.0,0.0,0.0,0.0,0.0,0.0,0.0,0.0,0.0,0.0,0.0,0.0,0.7193,0.7994,0.8257,0.8052,0.7845,0.75,0.0,0.0,0.0,0.0,0.0,0.0,0.0,0.0,0.0,0.0,0.0,0.0,0.0,0.0,0.0,0.0,0.0,0.0,0.0,0.0,0.0,0.0,0.0,0.0,0.0,0.0,0.0,0.0,0.0,0.0,0.0,0.0,0.0,0.0,0.0,0.0,0.0,0.0,0.0,0.0,0.0,0.0,0.0,0.0,0.0,0.0,0.0,0.0,0.0,0.0,0.0,0.0,0.0,0.0,0.0,0.0,0.0,0.0,0.0,0.0,0.0,0.0,0.0,0.0,0.0,0.0,0.0,0.0,0.0,0.0,0.0,0.0,0.0,0.0,0.0,0.0,0.0,0.0,0.0,0.0,0.0,0.0,0.0,0.0,0.0,0.0,0.0,0.0,0.0,0.0,0.0,0.0,0.0,0.0,0.0,0.0,0.0,0.0,0.0,0.0,0.0,0.0,0.0,0.0,0.0,0.0,0.0,0.0,0.0,0.8437,0.8444,0.822,0.7812,0.7495,0.73,0.0,0.0,0.0,0.0,0.0,0.0,0.0,0.0,0.0,0.0,0.0,0.0,0.0,0.0,0.0,0.0,0.0,0.0,0.0,0.0,0.0,0.0,0.0,0.0,0.0,0.0,0.0,0.0,0.0,0.0,0.0,0.0,0.0,0.0,0.0,0.0,0.0,0.0,0.0,0.0,0.0,0.0,0.0,0.0,0.0,0.0,0.0,0.0,0.0,0.0,0.0,0.0,0.0,0.0,0.0,0.0,0.0,0.0,0.0,0.0,0.0,0.0,0.0,0.0,0.0,0.0,0.0,0.0,0.0,0.0,0.0,0.0,0.0,0.0,0.0,0.0,0.0,0.0,0.0,0.0,0.0,0.0,0.0,0.0,0.0,0.0,0.0,0.0,0.0,0.0,0.0,0.0,0.0,0.0,0.0,0.0,0.0,0.0,0.0,0.0,0.0,0.0,0.0,0.0,0.0,0.0,0.0,0.0,0.7613,0.8965,0.862,0.8268,0.8008,0.7883,0.7625,0.0,0.0,0.0,0.0,0.0,0.0,0.0,0.0,0.0,0.0,0.0,0.0,0.0,0.0,0.0,0.0,0.0,0.0,0.0,0.0,0.0,0.0,0.0,0.0,0.0,0.0,0.0,0.0,0.0,0.0,0.0,0.0,0.0,0.0,0.0,0.0,0.0,0.0,0.0,0.0,0.0,0.0,0.0,0.0,0.0,0.0,0.0,0.0,0.0,0.0,0.0,0.0,0.0,0.0,0.0,0.0,0.0,0.0,0.0,0.0,0.0,0.0,0.0,0.0,0.0,0.0,0.0,0.0,0.0,0.0,0.0,0.0,0.0,0.0,0.0,0.0,0.0,0.0,0.0,0.0,0.0,0.0,0.0,0.0,0.0,0.0,0.0,0.0,0.0,0.0,0.0,0.0,0.0,0.0,0.0,0.0,0.0,0.0,0.0,0.0,0.0,0.0,0.0,0.0,0.0,0.0,0.0,0.0,0.8104,0.8967,0.8649,0.8479,0.8469,0.8581,0.8213,0.0,0.0,0.0,0.0,0.0,0.0,0.0,0.0,0.0,0.0,0.0,0.0,0.0,0.0,0.0,0.0,0.0,0.0,0.0,0.0,0.0,0.0,0.0,0.0,0.0,0.0,0.0,0.0,0.0,0.0,0.0,0.0,0.0,0.0,0.0,0.0,0.0,0.0,0.0,0.0,0.0,0.0,0.0,0.0,0.0,0.0,0.0,0.0,0.0,0.0,0.0,0.0,0.0,0.0,0.0,0.0,0.0,0.0,0.0,0.0,0.0,0.0,0.0,0.0,0.0,0.0,0.0,0.0,0.0,0.0,0.0,0.0,0.0,0.0,0.0,0.0,0.0,0.0,0.0,0.0,0.0,0.0,0.0,0.0,0.0,0.0,0.0,0.0,0.0,0.0,0.0,0.0,0.0,0.0,0.0,0.0,0.0,0.0,0.0,0.0,0.0,0.0,0.0,0.0,0.0,0.0,0.0,0.0,0.8114,0.8975,0.8916,0.8877,0.8867,0.8455,0.8101,0.0,0.0,0.0,0.0,0.0,0.0,0.0,0.0,0.0,0.0,0.0,0.0,0.0,0.0,0.0,0.0,0.0,0.0,0.0,0.0,0.0,0.0,0.0,0.0,0.0,0.0,0.0,0.0,0.0,0.0,0.0,0.0,0.0,0.0,0.0,0.0,0.0,0.0,0.0,0.0,0.0,0.0,0.0,0.0,0.0,0.0,0.0,0.0,0.7846,0.0,0.0,0.0,0.0,0.0,0.0,0.0,0.0,0.0,0.0,0.0,0.0,0.0,0.0,0.0,0.0,0.0,0.0,0.0,0.0,0.0,0.0,0.0,0.0,0.0,0.0,0.0,0.0,0.0,0.0,0.0,0.0,0.0,0.0,0.0,0.0,0.0,0.0,0.0,0.0,0.0,0.0,0.0,0.0,0.0,0.0,0.0,0.0,0.0,0.0,0.0,0.0,0.0,0.0,0.0,0.0,0.0,0.0,0.0,0.8626,0.925,0.9094,0.9004,0.8994,0.8882,0.8556,0.0,0.0,0.0,0.0,0.0,0.0,0.0,0.0,0.0,0.0,0.0,0.0,0.0,0.0,0.0,0.0,0.0,0.0,0.0,0.0,0.0,0.0,0.0,0.0,0.0,0.0,0.0,0.0,0.0,0.0,0.0,0.0,0.0,0.0,0.0,0.0,0.0,0.0,0.0,0.0,0.0,0.0,0.0,0.0,0.0,0.0,0.0,0.0,0.0,0.0,0.0,0.0,0.0,0.0,0.0,0.0,0.0,0.0,0.0,0.0,0.0,0.0,0.0,0.0,0.0,0.0,0.0,0.0,0.0,0.0,0.0,0.0,0.0,0.0,0.0,0.0,0.0,0.0,0.0,0.0,0.0,0.0,0.0,0.0,0.0,0.0,0.0,0.0,0.0,0.0,0.0,0.0,0.0,0.0,0.0,0.0,0.0,0.0,0.0,0.0,0.0,0.0,0.0,0.0,0.0,0.0,0.0,0.8428,0.9209,0.9563,0.9328,0.9153,0.9111,0.9556,0.9304,0.8282,0.0,0.0,0.0,0.0,0.0,0.0,0.0,0.0,0.0,0.0,0.0,0.0,0.0,0.0,0.0,0.0,0.0,0.0,0.0,0.0,0.0,0.0,0.0,0.0,0.0,0.0,0.0,0.0,0.0,0.0,0.0,0.0,0.0,0.0,0.0,0.0,0.0,0.0,0.685,0.8044,0.0,0.0,0.0,0.0,0.0,0.0,0.0,0.0,0.9034,0.0,0.0,0.0,0.0,0.0,0.0,0.0,0.0,0.0,0.0,0.0,0.0,0.0,0.0,0.0,0.0,0.0,0.0,0.0,0.0,0.0,0.0,0.0,0.0,0.0,0.0,0.0,0.0,0.0,0.0,0.0,0.0,0.0,0.0,0.0,0.0,0.0,0.0,0.0,0.0,0.0,0.0,0.0,0.0,0.0,0.0,0.0,0.0,0.0,0.0,0.0,0.0,0.0,0.0,0.0,0.0,0.8185,0.8721,0.9192,0.9592,0.9922,0.9902,0.9533,1.0323,1.0291,0.9304,0.0,0.0,0.0,0.0,0.0,0.0,0.0,0.0,0.0,0.0,0.0,0.0,0.0,0.0,0.0,0.0,0.0,0.0,0.0,0.0,0.0,0.0,0.0,0.0,0.0,0.0,0.0,0.0,0.0,0.0,0.0,0.0,0.0,0.0,0.0,0.0,0.0,0.0,0.0,0.8344,0.8952,0.0,0.0,0.0,0.0,0.0,0.0,0.0,0.0,0.9474,0.0,0.0,0.0,0.0,0.0,0.0,0.0,0.0,0.0,0.0,0.0,0.0,0.0,0.0,0.0,0.0,0.0,0.0,0.0,0.0,0.0,0.0,0.0,0.0,0.0,0.0,0.0,0.0,0.0,0.0,0.0,0.0,0.0,0.0,0.0,0.0,0.0,0.0,0.0,0.0,0.0,0.0,0.0,0.0,0.0,0.0,0.0,0.0,0.0,0.0,0.0,0.0,0.0,0.0,0.0,0.8037,0.887,0.9406,0.962,1.0068,1.0078,0.963,1.0248,1.0248,0.0,0.0,0.0,0.0,0.0,0.0,0.0,0.0,0.0,0.0,0.0,0.0,0.0,0.0,0.0,0.0,0.0,0.0,0.0,0.0,0.0,0.0,0.0,0.0,0.0,0.0,0.0,0.0,0.0,0.0,0.0,0.0,0.0,0.0,0.0,0.0,0.0,0.0,0.0,0.0,0.901,0.9349,0.9047,0.0,0.0,0.0,0.0,0.0,0.0,0.9372,0.9465,0.0,0.0,0.0,0.0,0.0,0.0,0.0,0.0,0.0,0.0,0.0,0.0,0.0,0.0,0.0,0.0,0.0,0.0,0.0,0.0,0.0,0.0,0.0,0.0,0.0,0.0,0.0,0.0,0.0,0.0,0.0,0.0,0.0,0.0,0.0,0.0,0.0,0.0,0.0,0.0,0.0,0.0,0.0,0.0,0.0,0.0,0.0,0.0,0.0,0.0,0.0,0.0,0.0,0.0,0.0,0.7841,0.8919,0.9572,0.9747,1.0107,1.0117,0.9757,1.0148,1.0118,0.0,0.0,0.0,0.0,0.0,0.0,0.0,0.0,0.0,0.0,0.0,0.0,0.0,0.0,0.0,0.0,0.0,0.0,0.0,0.0,0.0,0.0,0.0,0.0,0.0,0.0,0.0,0.0,0.0,0.0,0.0,0.0,0.0,0.0,0.0,0.0,0.0,0.0,0.0,0.0,0.0,0.9738,0.9201,0.9691,0.0,0.0,0.0,0.0,0.9632,0.9773,0.0,0.0,0.0,0.0,0.0,0.0,0.0,0.0,0.0,0.0,0.0,0.0,0.0,0.0,0.0,0.0,0.0,0.0,0.0,0.0,0.0,0.0,0.0,0.0,0.0,0.0,0.0,0.0,0.0,0.0,0.0,0.0,0.0,0.0,0.0,0.0,0.0,0.0,0.0,0.0,0.0,0.0,0.0,0.0,0.0,0.0,0.0,0.0,0.0,0.0,0.0,0.0,0.0,0.0,0.0,0.0,0.8303,0.8809,0.9453,1.0166,1.0264,1.0273,1.0224,1.0663,1.0648,0.0,0.0,0.0,0.0,0.0,0.0,0.0,0.0,0.0,0.0,0.0,0.0,0.0,0.0,0.0,0.0,0.0,0.0,0.0,0.0,0.0,0.0,0.0,0.0,0.0,0.0,0.0,0.0,0.0,0.0,0.0,0.0,0.0,0.0,0.0,0.0,0.0,0.0,0.0,0.0,0.0,0.9703,0.9841,0.9851,1.01,0.0,0.0,1.0289,1.0797,1.1005,0.0,0.0,0.0,0.0,0.0,0.0,0.0,0.0,0.0,0.0,0.0,0.0,0.0,0.0,0.0,0.0,0.0,0.0,0.0,0.0,0.0,0.0,0.0,0.0,0.0,0.0,0.0,0.0,0.0,0.0,0.0,0.0,0.0,0.0,0.0,0.0,0.0,0.0,0.0,0.0,0.0,0.0,0.0,0.0,0.0,0.0,0.0,0.0,0.0,0.0,0.0,0.0,0.0,0.0,0.0,0.7178,0.8672,0.8899,0.9424,1.0263,1.0322,1.0185,0.9903,1.0329,1.0133,0.0,0.0,0.0,0.0,0.0,0.0,0.0,0.0,0.0,0.0,0.0,0.0,0.0,0.0,0.0,0.0,0.0,0.0,0.0,0.0,0.0,0.0,0.0,0.0,0.0,0.0,0.0,0.0,0.0,0.0,0.0,0.0,0.0,0.0,0.0,0.0,0.0,0.0,0.0,0.0,0.0,0.0,1.0265,1.0781,0.0,0.0,0.0,1.083,1.1175,0.0,0.0,0.0,0.0,0.0,0.0,0.0,0.0,0.0,0.0,0.0,0.0,0.0,0.0,0.0,0.0,0.0,0.0,0.0,0.0,0.0,0.0,0.0,0.0,0.0,0.0,0.0,0.0,0.0,0.0,0.0,0.0,0.0,0.0,0.0,0.0,0.0,0.0,0.0,0.0,0.0,0.0,0.0,0.0,0.0,0.0,0.0,0.0,0.0,0.0,0.0,0.0,0.0,0.0,0.0,0.0,0.0,0.8965,0.9004,0.9424,1.0263,1.0322,1.0078,0.9612,1.0019,0.0,0.0,0.0,0.0,0.0,0.0,0.0,0.0,0.0,0.0,0.0,0.0,0.0,0.0,0.0,0.0,0.0,0.0,0.0,0.0,0.0,0.0,0.0,0.0,0.0,0.0,0.0,0.3833,0.0,0.0,0.0,0.0,0.0,0.0,0.0,0.0,0.0,0.0,0.0,0.0,0.0,0.0,1.0795,1.0667,1.1576,1.1959,0.0,0.0,1.1488,1.1623,1.1628,1.1337,0.0,0.0,0.0,0.0,0.0,0.0,0.0,0.0,0.0,0.0,0.0,0.0,0.0,0.0,0.0,0.0,0.0,0.0,0.0,0.0,0.0,0.0,0.0,0.0,0.0,0.0,0.0,0.0,0.0,0.0,0.0,0.0,0.0,0.0,0.0,0.0,0.0,0.0,0.0,0.0,0.0,0.0,0.0,0.0,0.0,0.0,0.0,0.0,0.0,0.0,0.0,0.0,0.0,0.0,0.0,0.8936,0.9004,0.9414,1.0263,1.0322,1.0078,0.9622,1.0067,0.9664,0.0,0.0,0.0,0.0,0.0,0.0,0.0,0.0,0.0,0.0,0.0,0.0,0.0,0.0,0.0,0.0,0.0,0.0,0.0,0.0,0.0,0.0,0.0,0.0,0.0,0.0,0.0,0.0,0.0,0.0,0.0,0.0,0.0,0.0,0.0,0.0,0.0,0.0,0.0,0.0,0.0,1.0456,1.1221,1.1785,1.2254,0.0,0.0,1.2425,1.2488,1.2507,1.2117,1.0933,0.0,0.0,0.0,0.0,0.0,0.0,0.0,0.0,0.0,0.0,0.0,0.0,0.0,0.0,0.0,0.0,0.0,0.0,0.0,0.0,0.0,0.0,0.0,0.0,0.0,0.0,0.0,0.0,0.0,0.0,0.0,0.0,0.0,0.0,0.0,0.0,0.0,0.0,0.0,0.0,0.0,0.0,0.0,0.0,0.0,0.0,0.0,0.0,0.0,0.0,0.0,0.0,0.0,0.7091,0.8958,0.9004,0.9424,1.0263,1.0322,1.0078,0.963,1.0049,0.9633,0.0,0.0,0.0,0.0,0.0,0.0,0.0,0.0,0.0,0.0,0.0,0.0,0.0,0.0,0.0,0.0,0.0,0.0,0.0,0.0,0.0,0.0,0.0,0.0,0.0,0.0,0.0,0.0,0.3966,0.4654,0.5618,0.0,0.0,0.0,0.0,0.0,0.0,0.0,0.0,0.0,0.0,1.0977,1.1838,1.2205,0.0,0.0,1.2549,1.2712,1.3163,1.2879,1.2327,1.1482,1.1064,0.0,0.0,0.0,0.0,0.0,0.0,0.0,0.0,0.0,0.0,0.0,0.0,0.0,0.0,0.0,0.0,0.0,0.0,0.0,0.0,0.0,0.0,0.0,0.0,0.0,0.0,0.0,0.0,0.0,0.0,0.0,0.0,0.0,0.0,0.0,0.0,0.0,0.0,0.0,0.0,0.0,0.0,0.0,0.0,0.0,0.0,0.0,0.0,0.0,0.0,0.0,0.0,0.6924,0.8797,0.8936,0.9424,1.0283,1.0322,1.0078,0.965,0.9913,0.9442,0.0,0.0,0.0,0.0,0.0,0.0,0.0,0.0,0.0,0.0,0.0,0.0,0.0,0.0,0.0,0.0,0.0,0.0,0.0,0.0,0.0,0.0,0.0,0.0,0.0,0.0,0.0,0.0,0.45,0.5437,0.6847,0.0,0.0,0.0,0.0,0.0,0.0,0.0,0.0,0.0,0.0,1.1066,1.2145,1.2594,1.2798,1.2704,1.2849,1.3057,1.3308,1.2958,1.2406,1.1645,0.0,0.0,0.0,0.0,0.0,0.0,0.0,0.0,0.0,0.0,0.0,0.0,0.0,0.0,0.0,0.0,0.0,0.0,0.0,0.0,0.0,0.0,0.0,0.0,0.0,0.0,0.0,0.5184,0.0,0.0,0.5162,0.0,0.0,0.0,0.0,0.0,0.0,0.0,0.0,0.0,0.0,0.0,0.0,0.0,0.0,0.0,0.0,0.0,0.0,0.0,0.0,0.0,0.0,0.6803,0.8383,0.8791,0.9406,1.0254,1.0303,1.0078,0.9631,0.963,0.9026,0.7764,0.0,0.0,0.0,0.0,0.0,0.0,0.0,0.0,0.0,0.0,0.0,0.0,0.0,0.0,0.0,0.0,0.0,0.0,0.0,0.0,0.0,0.0,0.0,0.0,0.0,0.0,0.4985,0.526,0.5867,0.0,0.0,0.0,0.0,0.0,0.0,0.0,0.0,0.0,0.0,0.9925,1.0517,1.2095,1.2865,1.3301,1.3487,1.3635,1.3538,1.2932,1.2809,1.2414,0.0,0.0,0.0,0.0,0.0,0.0,0.0,0.0,0.0,0.0,0.0,0.0,0.0,0.0,0.0,0.0,0.0,0.0,0.0,0.0,0.0,0.0,0.0,0.0,0.0,0.0,0.0,0.6534,0.5817,0.0,0.0,0.0,0.0,0.0,0.0,0.0,0.0,0.0,0.0,0.0,0.7398,0.7546,0.0,0.0,0.0,0.0,0.0,0.0,0.0,0.0,0.0,0.0,0.0,0.0,0.6664,0.8067,0.8612,0.9171,0.9766,1.0127,1.0234,1.0049,0.9748,0.8999,0.7744,0.0,0.0,0.0,0.0,0.0,0.0,0.0,0.0,0.0,0.0,0.0,0.0,0.0,0.0,0.0,0.0,0.0,0.0,0.0,0.0,0.0,0.0,0.0,0.0,0.0,0.6056,0.0,0.0,0.0,0.0,0.0,0.0,0.0,0.0,0.0,0.0,0.0,0.9647,1.0053,1.0792,1.1495,1.2017,1.2471,1.2677,0.0,0.0,0.0,0.0,0.0,0.0,0.0,0.0,0.0,0.0,0.0,0.0,0.0,0.0,1.1287,1.0866,1.0495,1.0278,1.0262,0.0,0.0,0.0,0.0,0.0,0.0,0.0,0.0,0.0,0.0,0.0,0.0,0.0,0.0,0.7348,0.0,0.6509,0.0,0.0,0.0,0.0,0.0,0.0,0.0,0.0,0.7275,0.7595,0.7799,0.7806,0.7651,0.0,0.7161,0.6586,0.0,0.0,0.0,0.0,0.0,0.0,0.0,0.0,0.6535,0.7769,0.8463,0.9016,0.95,1.002,1.0322,1.0293,0.9689,0.9006,0.8178,0.8034,0.7493,0.0,0.0,0.0,0.0,0.0,0.0,0.0,0.0,0.0,0.0,0.0,0.0,0.0,0.0,0.0,0.0,0.0,0.0,0.0,0.0,0.0,0.0,0.0,0.6462,0.0,0.0,0.0,0.0,0.0,0.0,0.0,0.0,0.0,0.8295,0.9333,1.0161,1.034,1.1048,1.1682,1.2079,0.0,0.0,0.0,0.0,0.0,0.0,0.0,1.3119,1.3693,1.3128,1.2261,1.1301,1.127,1.1381,1.1355,0.0,0.0,1.1285,1.0903,1.0643,1.0643,1.0712,1.0787,1.0787,1.0995,1.1247,0.0,0.0,0.0,0.0,0.0,0.0,0.0,0.0,0.8016,0.7983,0.0,0.7328,0.0,0.0,0.0,0.0,0.0,0.7626,0.0,0.0,0.8295,0.8442,0.8442,0.8449,0.8257,0.7979,0.8504,0.8139,0.7,0.5919,0.0,0.0,0.0,0.0,0.0,0.0,0.6405,0.7371,0.8318,0.9014,0.946,1.0,1.0293,1.0254,0.9482,0.9043,0.8965,0.8217,0.7744,0.7705,0.7145,0.0,0.0,0.0,0.0,0.0,0.0,0.0,0.0,0.0,0.0,0.0,0.0,0.0,0.0,0.0,0.0,0.0,0.0,0.0,0.0,0.6189,0.0,0.0,0.0,0.0,0.0,0.0,0.0,0.0,0.0,0.0,0.8697,0.9423,1.0168,1.0708,0.0,0.0,0.0,0.0,1.2658,1.367,1.4084,1.4235,1.424,1.424,1.4035,1.3533,0.0,0.0,1.1106,1.1423,1.151,1.0241,1.0835,1.1647,1.2591,1.1879,1.1206,1.1185,1.1427,1.1562,1.1628,1.2148,1.2652,1.0318,0.0,0.0,0.0,0.0,0.9178,0.9447,0.9822,0.9579,0.9231,0.8818,0.8438,0.0,0.0,0.0,0.0,0.0,0.0,0.8645,0.8825,0.9178,0.934,0.934,0.9333,0.9045,0.8577,0.8731,0.8385,0.7659,0.7319,0.6613,0.5618,0.0,0.0,0.0,0.0,0.6839,0.7154,0.819,0.8788,0.8938,0.9824,1.0137,0.9806,0.9893,0.9629,0.9023,0.9036,0.8792,0.8213,0.7714,0.0,0.0,0.0,0.0,0.0,0.0,0.0,0.0,0.0,0.0,0.0,0.0,0.0,0.0,0.0,0.0,0.0,0.0,0.0,0.5998,0.6121,0.6252,0.0,0.0,0.0,0.0,0.0,0.0,0.0,0.0,0.0,0.8647,1.0398,1.1736,0.0,0.0,1.3254,1.3556,1.359,1.3514,1.3421,1.3446,0.0,1.3384,1.3329,1.3501,1.4089,1.3802,1.3307,1.28,1.2499,1.2197,1.1801,1.1963,1.2261,1.2492,1.2466,1.2321,1.2354,1.2746,1.3126,1.3156,1.332,1.3517,1.1846,1.0888,1.0296,1.0177,1.0367,1.0374,1.0575,1.0875,1.0588,1.029,1.0057,0.98,0.9305,0.8736,0.8596,0.0,0.0,0.0,0.9539,0.9564,0.9766,0.98,0.9693,0.9715,0.9499,0.9165,0.9152,0.8858,0.8258,0.8365,0.7799,0.662,0.0,0.0,0.6874,0.7081,0.7239,0.7397,0.8244,0.8635,0.8564,0.9491,0.9935,0.9893,0.9962,0.9785,0.926,0.9466,0.9299,0.8669,0.8379,0.7812,0.0,0.0,0.0,0.0,0.0,0.0,0.0,0.0,0.0,0.0,0.0,0.4338,0.3782,0.0,0.0,0.0,0.5794,0.6172,0.6106,0.6301,0.0,0.0,0.0,0.0,0.0,0.0,0.0,0.788,0.8535,0.9075,0.93,1.0782,1.1883,1.1837,1.2596,1.3295,1.3697,0.0,1.3358,1.321,1.3403,1.352,1.3439,1.34,1.3522,1.3894,1.3459,1.3085,1.3046,1.2539,1.2168,1.2156,1.2242,1.2301,1.2315,1.2703,1.2983,1.2739,1.2999,1.3311,1.3511,1.355,1.3699,1.3219,1.2929,1.2017,1.1588,1.1495,1.153,1.1509,1.1509,1.1256,1.1269,1.1435,1.1189,1.0921,1.0606,1.0307,0.0,1.0626,1.0653,1.0512,1.019,1.0221,1.0067,0.9822,0.9829,0.976,0.9713,0.9713,0.9426,0.8905,0.9118,0.8838,0.8052,0.7779,0.7722,0.7879,0.7669,0.7692,0.7899,0.8428,0.8594,0.8378,0.9109,0.9753,1.0215,0.9855,0.9669,0.9651,0.9669,0.9484,0.9114,0.9043,0.8633,0.7783,0.0,0.0,0.0,0.0,0.0,0.0,0.0,0.0,0.0,0.0,0.0,0.0,0.0,0.0,0.0,0.58,0.0,0.6379,0.6633,0.0,0.0,0.0,0.7264,0.7239,0.7704,0.8039,0.8077,0.0,0.0,1.0199,1.0693,1.103,1.0975,1.142,1.2118,1.306,1.2796,1.2631,1.3243,1.3649,1.3973,1.3894,1.3919,1.3768,1.3334,1.2785,1.2549,1.2524,1.2175,1.1779,1.1822,1.1944,1.2125,1.2097,1.2886,1.33,1.2685,1.2675,1.2844,1.3302,1.3453,1.3717,1.4546,1.4439,1.3961,1.3267,1.2476,1.2469,1.2565,1.2714,1.2502,1.2275,1.2071,1.1784,1.1376,1.0914,1.0815,1.0822,1.0902,1.1122,1.1176,1.1116,1.1076,1.0955,1.0688,1.0713,1.0441,1.0033,1.0013,0.9826,0.9492,0.9546,0.9479,0.9259,0.8965,0.8492,0.7932,0.81,0.8083,0.7905,0.8428,0.8769,0.8925,0.9482,0.9756,0.9695,0.9964,1.0127,1.0127,1.0127,1.0078,0.999,0.9365,0.877,0.8242,0.707,0.0,0.0,0.0,0.0,0.0,0.0,0.0,0.0,0.0,0.5562,0.4376,0.0,0.5993,0.0,0.6069,0.6358,0.6409,0.6633,0.0,0.0,0.7506,0.7749,0.7609,0.7977,0.837,0.8721,0.8989,0.9298,0.9715,1.0195,1.051,1.0567,1.1606,1.2635,1.325,1.2904,1.2903,1.3717,1.3361,1.3003,1.3323,1.3416,1.3378,1.3223,1.3085,1.3027,1.301,1.2914,1.281,1.2826,1.2864,1.2901,1.2892,1.3144,1.319,1.3108,1.3557,1.4058,1.4165,1.4408,1.4688,1.5015,1.4995,1.4827,1.4335,1.3749,1.3313,1.324,1.334,1.308,1.2852,1.2692,1.2532,1.2285,1.1977,1.1866,1.1806,1.1812,1.1804,1.1708,1.1623,1.1617,1.147,1.1156,1.1182,1.0949,1.0514,1.0508,1.0287,0.9893,0.988,0.9813,0.9708,0.9519,0.9198,0.8731,0.8617,0.849,0.8298,0.847,0.874,0.9128,0.9171,0.9444,0.9972,1.0138,1.0221,1.0312,1.0459,1.0293,0.9764,0.9425,0.9092,0.8688,0.7808,0.7201,0.0,0.0,0.0,0.0,0.0,0.0,0.0,0.0,0.0,0.0,0.0,0.6326,0.6384,0.6594,0.6784,0.6969,0.7111,0.7257,0.7367,0.7854,0.814,0.8018,0.8368,0.8716,0.8962,0.9004,0.916,0.9544,0.9815,1.0093,1.0331,1.1054,1.1789,1.2328,1.2321,1.2438,1.2852,1.2527,1.2264,1.2544,1.2756,1.289,1.2908,1.3064,1.321,1.321,1.321,1.321,1.321,1.321,1.321,1.321,1.321,1.321,1.3267,1.3581,1.3954,1.4198,1.4406,1.4641,1.5122,1.5115,1.5082,1.5068,1.5001,1.4155,1.3746,1.3693,1.3447,1.33,1.3267,1.3227,1.3206,1.3193,1.2965,1.2844,1.2824,1.2498,1.2261,1.202,1.198,1.1764,1.1449,1.1476,1.1336,1.1056,1.1049,1.0768,1.021,1.0203,1.008,0.9836,0.976,0.9769,0.9713,0.9158,0.8844,0.8804,0.8557,0.8673,0.9064,0.8636,0.9083,1.0401,1.0229,1.018,1.0371,1.0713,1.041,0.9346,0.9542,0.9533,0.918,0.8662,0.8395,0.0,0.7954,0.0,0.0,0.0,0.0,0.0,0.0,0.0,0.0,0.6328,0.6748,0.7139,0.7227,0.7432,0.7822,0.7861,0.7876,0.787,0.8232,0.8489,0.8493,0.8789,0.9006,0.9055,0.9065,0.9231,0.964,0.9698,0.9854,1.0224,1.038,1.0642,1.1078,1.1426,1.1511,1.1319,1.159,1.1884,1.192,1.2156,1.2407,1.2455,1.2697,1.3012,1.296,1.3012,1.3077,1.3082,1.3146,1.321,1.321,1.321,1.321,1.3228,1.325,1.3391,1.3702,1.3917,1.4117,1.5665,1.5645,1.5411,1.5311,1.5284,1.4883,1.4569,1.4292,1.4048,1.3788,1.3507,1.3313,1.3206,1.3206,1.3153,1.312,1.3106,1.2837,1.267,1.261,1.2368,1.2071,1.1832,1.1819,1.163,1.1356,1.1343,1.1169,1.0828,1.0828,1.0707,1.0425,1.0154,1.0033,0.997,0.0,0.0,0.0,0.8758,0.8662,0.8577,0.8889,0.9305,0.9854,0.9917,0.0,1.076,1.0869,1.078,1.0546,1.0303,0.0,0.0,0.0,0.0,0.0,0.0,0.0,0.0,0.0,0.0,0.0,0.7154,0.7193,0.6904,0.7223,0.7491,0.7593,0.793,0.8311,0.8704,0.876,0.8743,0.8753,0.8828,0.8887,0.8887,0.8975,0.9114,0.9455,0.9476,0.9659,1.0098,1.0175,1.0195,1.0312,1.0322,1.0341,1.0516,1.0613,1.0764,1.1207,1.1545,1.1785,1.1811,1.187,1.1966,1.1938,1.1986,1.2084,1.212,1.2318,1.2467,1.2615,1.2943,1.3193,1.321,1.321,1.3181,1.321,1.321,1.3232,1.3323,1.3648,1.3937,1.5825,0.0,1.5671,1.5605,0.0,1.5297,1.509,1.4923,1.4489,1.4135,1.3854,1.3707,1.3641,1.3634,1.3487,1.3387,1.3367,1.3113,1.2931,1.2777,1.263,1.2402,1.2084,1.2114,1.1931,1.165,1.165,1.1496,1.1209,1.1062,1.0922,1.0801,1.0474,1.0365,1.0314,0.9753,0.9245,0.8785,0.8778,0.8738,0.8616,0.8721,0.9187,0.9887,0.9829,0.0,0.0,0.0,0.0,0.0,0.0,0.0,0.0,0.0,0.0,0.9332,0.9111,0.8782,0.8383,0.8344,0.8246,0.8051,0.8242,0.8256,0.8072,0.8227,0.8344,0.8344,0.8564,0.877,0.8975,0.9004,0.9004,0.9014,0.9172,0.9316,0.9318,0.9502,0.9795,1.0157,1.0244,1.043,1.087,1.0723,1.0723,1.088,1.0743,1.0684,1.0841,1.0557,1.0458,1.0774,1.1123,1.1346,1.1404,1.1617,1.1752,1.1771,1.1943,1.1983,1.1826,1.2263,1.2563,1.2285,1.2449,1.2731,1.2826,1.2855,1.2925,1.3129,1.321,1.321,1.3228,1.3391,1.3632,1.5825,1.5825,1.5825,1.5825,1.5805,1.5571,1.5444,1.5364,0.0,0.0,0.0,1.4168,1.4142,1.4068,1.3786,1.368,1.366,1.342,1.312,1.2864,1.2811,1.263,1.2311,1.2305,1.2178,1.1993,1.198,1.179,1.1462,1.1263,1.1089,1.0982,1.0787,1.0613,1.0486,1.003,0.9499,0.8985,0.8838,0.8778,0.8798,0.8603,0.9009,1.0091,0.9911,1.0116,1.0805,1.0963,1.0664,0.9884,0.9835,0.9845,0.9816,0.9748,0.9884,1.0263,1.0322,1.0088,0.965,0.9611,0.9464,0.9123,0.9121,0.9075,0.9014,0.9004,0.9026,0.9102,0.9094,0.9133,0.9219,0.9307,0.9346,0.9346,0.9698,0.9962,0.9981,1.0293,1.0635,1.0957,1.1006,1.1173,1.1498,1.1252,1.1143,1.1438,1.1242,1.1133,1.142,1.0997,1.0616,1.0695,1.0993,1.1057,1.1109,1.1388,1.1654,1.1695,1.1988,1.2117,1.1962,1.2235,1.2368,1.2055,1.2056,1.2263,1.2531,1.2686,1.275,1.3129,1.321,1.321,1.321,1.321,1.3352,1.5825,1.5825,1.5825,1.5825,1.5825,1.5738,1.5625,1.5371,1.5089,1.4736,1.4456,1.4462,1.4322,1.4088,1.4041,1.4028,1.4008,1.3673,1.3387,1.3133,1.2904,1.2623,1.2311,1.2305,1.2278,1.2238,1.2238,1.2091,1.1859,1.1792,1.1531,1.1049,1.0955,1.0681,1.0214,1.01,0.9893,0.9559,0.9065,0.8778,0.8778,0.8771,0.9103,0.9816,1.0026,1.0271,1.0641,1.1194,1.1261,1.0741,1.0732,1.0712,1.0713,1.0391,1.0244,1.0303,1.0322,1.0088,0.9659,0.9611,0.9573,0.9533,0.9523,0.9377,0.9043,0.9004,0.9143,0.9474,0.9534,0.9679,1.0059,1.04,1.0586,1.0615,1.1036,1.1301,1.1232,1.1301,1.14,1.1498,1.1518,1.1506,1.1645,1.1555,1.1547,1.1596,1.1623,1.1567,1.1636,1.1508,1.142,1.142,1.1469,1.1518,1.1508,1.153,1.1659,1.1616,1.1692,1.1802,1.1671,1.1369,1.1408,1.2037,1.2055,1.2218,1.2796,1.3065,1.3074,1.3193,1.3223,1.3248,1.3235,1.321,1.3245,1.5825,1.5825,1.5825,1.5825,1.5825,1.5825,1.5704,1.5618,1.5491,1.5177,1.4776,1.4763,1.4596,1.4329,1.4322,1.4235,1.4082,1.3941,1.368,1.34,1.33,1.3025,1.261,1.2583,1.2458,1.2311,1.2305,1.2231,1.2141,1.198,1.1772,1.1491,1.1156,1.0782,1.0374,1.0194,1.0047,0.9913,0.9311,0.9018,0.9004,0.8865,0.903,0.9466,0.9593,0.9954,1.0557,1.0883,1.1138,1.126,1.1281,1.1281,1.1281,1.1105,1.0997,1.0997,1.0987,1.093,1.0693,1.0674,1.0674,1.0674,1.0674,1.0616,1.043,1.0176,1.0117,1.0293,1.0537,1.0772,1.0978,1.1164,1.126,1.1281,1.1477,1.1596,1.1596,1.1596,1.1672,1.1875,1.1924,1.2034,1.2269,1.2093,1.2064,1.224,1.2299,1.2299,1.2279,1.2279,1.2103,1.1712,1.177,1.1914,1.1924,1.1924,1.1924,1.1924,1.1924,1.1839,1.1724,1.1528,1.1782,1.1902,1.2159,1.246,1.2784,1.2768,1.2899,1.3206,1.3509,1.3559,1.3341,1.321,1.321,1.5825,1.5825,1.5825,1.5825,1.5825,1.5825,1.5825,1.5825,1.5825,1.5578,1.5184,1.5097,1.4863,1.4529,1.4516,1.4362,1.4115,1.4088,1.3928,1.362,1.3606,1.336,1.2918,1.2824,1.2663,1.2412,1.2338,1.2305,1.2278,1.2107,1.1897,1.173,1.1283,1.0848,1.0593,1.0327,1.0214,1.018,0.967,0.9344,0.9211,0.8991,0.8967,0.9109,0.9248,0.9648,1.0243,1.0582,1.093,1.1343,1.1519,1.1596,1.1596,1.1596,1.1596,1.1596,1.1596,1.1596,1.1596,1.1596,1.1596,1.1596,1.1596,1.1596,1.1577,1.1348,1.1141,1.1113,1.1361,1.1567,1.1577,1.1682,1.1731,1.1753,1.1829,1.1949,1.191,1.191,1.2005,1.2291,1.235,1.251,1.2725,1.2588,1.251,1.2788,1.2915,1.2915,1.2915,1.2915,1.2582,1.2201,1.2158,1.2363,1.2383,1.2383,1.235,1.2373,1.235,1.2246,1.2113,1.2504,1.2612,1.2177,1.2498,1.2776,1.2624,1.2789,1.3051,1.3411,1.3883,1.4135,1.3797,1.3559,1.3353,1.5825,1.5825,1.5825,1.5825,1.5825,1.5825,1.5825,1.5825,1.5825,1.5758,1.5698,1.5478,1.505,1.4563,1.4529,1.4382,1.4115,1.4088,1.3928,1.364,1.3606,1.3433,1.316,1.2924,1.2808,1.2703,1.2432,1.2305,1.2305,1.2271,1.1991,1.149,1.1149,1.0894,1.0626,1.0566,1.0546,1.0539,1.02,0.975,0.9216,0.9157,0.9058,0.885,0.9422,0.9594,0.9452,1.0498,1.0989,1.0763,1.1287,1.1616,1.1616,1.1616,1.1616,1.1626,1.1626,1.1596,1.1616,1.1596,1.1636,1.1596,1.1645,1.1655,1.1665,1.1904,1.1901,1.1672,1.1575,1.1665,1.1626,1.1934,1.2158,1.2178,1.2471,1.2778,1.2719,1.2778,1.2807,1.2803,1.2773,1.2842,1.2886,1.2837,1.2846,1.2886,1.2915,1.2915,1.2915,1.2905,1.2895,1.2768,1.2827,1.2817,1.2807,1.2846,1.2788,1.2773,1.2803,1.2739,1.2709,1.2739,1.2837,1.2665,1.2766,1.2885,1.306,1.3412,1.3757,1.3845,1.4276,1.4758,1.467,1.4331,1.3891,1.5825,1.5825,1.5825,1.5825,1.5825,1.5825,1.5825,1.5825,1.5825,1.5825,1.5812,1.5651,1.5424,1.503,1.4856,1.4616,1.4335,1.4168,1.4028,1.3908,1.3908,1.3748,1.3413,1.3166,1.2971,1.277,1.2482,1.2305,1.2305,1.2305,1.2091,1.1697,1.1396,1.1102,1.0828,1.0673,1.0586,1.0586,1.0472,1.0174,0.9744,0.9384,0.9158,0.9058,0.915,0.9337,0.9558,1.0108,1.0655,1.1259,1.1582,1.1907,1.2334,1.2367,1.2381,1.2367,1.2367,1.2367,1.2357,1.2367,1.2367,1.2367,1.2367,1.2367,1.2367,1.2533,1.2553,1.2406,1.2367,1.2367,1.2367,1.2533,1.2607,1.2637,1.2817,1.2915,1.2915,1.2915,1.2915,1.2915,1.2915,1.2915,1.2915,1.2915,1.2915,1.2915,1.2915,1.2915,1.2915,1.2915,1.2915,1.2915,1.2915,1.2915,1.2915,1.2915,1.2915,1.2915,1.2915,1.2915,1.2915,1.2915,1.2915,1.2915,1.2915,1.292,1.2993,1.3184,1.3477,1.39,1.4491,1.4959,1.5279,1.4934,1.4494,1.5825,1.5825,1.5825,1.5825,1.5825,1.5825,1.5825,1.5825,1.5825,1.5825,1.5825,1.5825,1.5718,1.5491,1.5211,1.4883,1.4529,1.4295,1.4162,1.4095,1.4088,1.3975,1.3713,1.3427,1.3166,1.2911,1.261,1.2385,1.2318,1.2305,1.2151,1.187,1.165,1.1363,1.1042,1.0775,1.0667,1.0593,1.0586,1.0454,1.0194,0.9717,0.9417,0.9317,0.9078,0.9125,0.9588,0.9729,1.0338,1.1433,1.169,1.2129,1.2856,1.2915,1.2915,1.2915,1.2915,1.2915,1.2915,1.2915,1.2915,1.2915,1.2915,1.2915,1.2915,1.2915,1.2915,1.2886,1.2915,1.2886,1.2915,1.2915,1.2915,1.2915,1.2915,1.2915,1.2915,1.2915,1.2915,1.2915,1.2915,1.2915,1.2915,1.2915,1.2915,1.2915,1.2915,1.2915,1.2944,1.2993,1.3037,1.2935,1.2993,1.3032,1.2944,1.2915,1.2915,1.2915,1.2915,1.2915,1.2915,1.2915,1.2915,1.2915,1.2915,1.2943,1.3007,1.3068,1.3409,1.4067,1.467,1.5163,1.5508,1.5289,1.5166,1.5825,1.5825,1.5825,1.5825,1.5825,1.5825,1.5825,1.5825,1.5825,1.5825,1.5825,1.5825,1.5818,1.5724,1.5491,1.507,1.4589,1.4502,1.4342,1.4128,1.4095,1.4082,1.4055,1.3726,1.3427,1.318,1.2918,1.263,1.2345,1.2305,1.2151,1.1926,1.1837,1.1557,1.1109,1.0989,1.0861,1.0646,1.06,1.0579,1.0526,1.0227,0.9933,0.9686,0.9351,0.9225,0.9302,0.9604,1.0131,1.0821,1.1434,1.2123,1.2798,1.2881,1.2915,1.2915,1.2915,1.2915,1.2915,1.2915,1.2915,1.2915,1.2915,1.2915,1.2915,1.2954,1.2964,1.29,1.2964,1.2954,1.2993,1.2954,1.2915,1.2915,1.2915,1.2915,1.2915,1.2915,1.2915,1.2915,1.2915,1.2944,1.2935,1.2915,1.2949,1.2969,1.2964,1.2983,1.3091,1.3281,1.3291,1.3115,1.3174,1.334,1.3023,1.2915,1.2915,1.2915,1.2915,1.2915,1.2915,1.2915,1.2915,1.2915,1.2915,1.2944,1.3011,1.3338,1.3834,1.4429,1.5028,1.5497,1.561,1.5694,1.5669,1.5825,1.5825,1.5825,1.5825,1.5825,1.5825,1.5825,1.5825,1.5825,1.5825,1.5825,1.5825,1.5825,1.5825,1.5718,1.5458,1.5064,1.4696,1.4462,1.4349,1.4175,1.4088,1.4055,1.374,1.356,1.3427,1.3186,1.2924,1.263,1.2398,1.2258,1.2131,1.1993,1.1779,1.1558,1.1176,1.0935,1.0861,1.07,1.0586,1.0586,1.0486,1.0378,1.0258,0.9773,0.9526,0.9526,0.9666,0.9976,1.0481,1.1116,1.1703,1.2175,1.2642,1.2915,1.2915,1.2915,1.2915,1.2915,1.2915,1.2915,1.2915,1.2915,1.2925,1.2954,1.3115,1.3281,1.3291,1.3281,1.3379,1.3516,1.3213,1.2915,1.2915,1.2915,1.2925,1.2915,1.2915,1.2915,1.2915,1.2915,1.2993,1.3223,1.3281,1.3398,1.3607,1.3656,1.3652,1.3691,1.3802,1.376,1.3428,1.3398,1.3457,1.334,1.3052,1.2915,1.2915,1.2915,1.2944,1.2954,1.2915,1.2915,1.2974,1.2964,1.2905,1.3007,1.329,1.3826,1.4167,1.4824,1.541,1.5598,1.5835,1.6052,1.5825,1.5825,1.5825,1.5825,1.5825,1.5825,1.5825,1.5825,1.5825,1.5825,1.5825,1.5825,1.5825,1.5825,1.5825,1.5732,1.5498,1.5023,1.4703,1.4509,1.4315,1.4175,1.4068,1.3874,1.3693,1.3567,1.3307,1.3053,1.2797,1.2576,1.2398,1.2285,1.2091,1.1957,1.1852,1.1497,1.1236,1.1002,1.0827,1.0693,1.0606,1.0586,1.0586,1.0539,1.0198,0.9943,0.9826,0.9769,0.9937,1.0418,1.0868,1.1374,1.1915,1.232,1.2666,1.2847,1.2915,1.2915,1.2915,1.2915,1.2915,1.2925,1.3018,1.3086,1.3115,1.3467,1.3656,1.3711,1.3685,1.3821,1.3919,1.3597,1.3242,1.315,1.3086,1.3086,1.3111,1.3111,1.3189,1.3301,1.334,1.3447,1.3607,1.3675,1.3812,1.4085,1.4114,1.4114,1.4114,1.4231,1.4163,1.3792,1.3877,1.3877,1.3753,1.3555,1.3457,1.3447,1.335,1.3252,1.3135,1.3081,1.3013,1.3027,1.2988,1.2944,1.3041,1.3276,1.3529,1.3779,1.4468,1.5163,1.5565,1.6083,1.6259,1.5825,1.5825,1.5825,1.5825,1.5825,1.5825,1.5825,1.5825,1.5825,1.5825,1.5825,1.5825,1.5825,1.5825,1.5825,1.5818,1.5691,1.5471,1.5084,1.4592,1.4479,1.4355,1.4128,1.4068,1.3921,1.364,1.3327,1.308,1.2878,1.2784,1.2616,1.2358,1.2298,1.2138,1.1919,1.1846,1.1591,1.1169,1.1009,1.0842,1.064,1.0606,1.0586,1.0586,1.0539,1.0405,1.0127,0.9873,1.0046,1.0551,1.0715,1.1229,1.2017,1.2028,1.2169,1.2782,1.29,1.2905,1.2949,1.3013,1.3052,1.3091,1.3311,1.3506,1.3574,1.387,1.4114,1.4114,1.4114,1.4143,1.4192,1.4104,1.3899,1.3568,1.3506,1.3506,1.3506,1.3506,1.3627,1.3919,1.3977,1.4075,1.4104,1.4114,1.4172,1.425,1.428,1.4289,1.4348,1.4609,1.4561,1.4338,1.4346,1.4375,1.4231,1.4114,1.4124,1.4104,1.3977,1.3851,1.3721,1.3603,1.3379,1.334,1.3008,1.2944,1.2915,1.3128,1.3262,1.3586,1.4317,1.4915,1.5354,1.5798,1.6315,1.5825,1.5825,1.5825,1.5825,1.5825,1.5825,1.5825,1.5825,1.5825,1.5825,1.5825,1.5825,1.5825,1.5825,1.5825,1.5825,1.5818,1.5718,1.5478,1.5104,1.471,1.4482,1.4355,1.4182,1.4035,1.3915,1.3606,1.342,1.3293,1.2998,1.2723,1.263,1.2398,1.2265,1.2151,1.2007,1.1785,1.1618,1.1196,1.0942,1.0874,1.0693,1.0593,1.0586,1.0586,1.0539,1.0459,1.0365,1.0302,1.0308,1.0725,1.1261,1.1732,1.1785,1.2111,1.2777,1.2919,1.3182,1.3662,1.3695,1.3633,1.3734,1.3841,1.3899,1.3958,1.4309,1.457,1.458,1.459,1.4678,1.4902,1.4736,1.4414,1.3958,1.3909,1.3919,1.3945,1.3929,1.3977,1.4065,1.4114,1.4231,1.4502,1.458,1.4678,1.4912,1.4923,1.4933,1.501,1.5049,1.5195,1.502,1.5,1.4824,1.4678,1.4582,1.4621,1.4582,1.4484,1.4387,1.4241,1.4153,1.3936,1.3594,1.3267,1.3071,1.3013,1.3052,1.3258,1.3498,1.4144,1.4626,1.4994,1.5583,1.6343,1.5825,1.5825,1.5825,1.5825,1.5825,1.5825,1.5825,1.5825,1.5825,1.5825,1.5825,1.5825,1.5825,1.5825,1.5825,1.5825,1.5825,1.5825,1.5732,1.5511,1.5084,1.475,1.4522,1.4222,1.4088,1.4062,1.3901,1.3713,1.3586,1.3273,1.3012,1.2784,1.2596,1.2405,1.2311,1.2131,1.2033,1.1866,1.1544,1.1269,1.1122,1.0901,1.0754,1.0734,1.0653,1.0593,1.0586,1.0586,1.0506,1.0356,1.0592,1.0975,1.1396,1.1414,1.1679,1.2263,1.2484,1.2668,1.3123,1.3086,1.3358,1.3567,1.3807,1.4066,1.4334,1.4766,1.5,1.5019,1.5019,1.5127,1.5293,1.5195,1.4893,1.4611,1.4436,1.4358,1.4358,1.4484,1.4582,1.463,1.4621,1.4766,1.4932,1.5029,1.5107,1.5361,1.542,1.542,1.542,1.5391,1.541,1.5381,1.5234,1.5107,1.5049,1.5068,1.5127,1.5059,1.4942,1.4855,1.4747,1.4805,1.4678,1.417,1.3786,1.3633,1.3564,1.3506,1.3598,1.3874,1.4173,1.4858,1.5505,1.6162,1.6838,1.5825,1.5825,1.5825,1.5825,1.5825,1.5825,1.5825,1.5825,1.5825,1.5825,1.5825,1.5825,1.5825,1.5825,1.5825,1.5825,1.5825,1.5825,1.5771,1.5732,1.5478,1.5097,1.4543,1.4269,1.4148,1.4088,1.4068,1.3935,1.3686,1.3553,1.336,1.2951,1.2811,1.265,1.2398,1.2325,1.2158,1.1993,1.1893,1.1718,1.145,1.1169,1.1015,1.1002,1.0794,1.0646,1.066,1.062,1.0586,1.0553,1.0356,1.0525,1.0907,1.0843,1.1056,1.1748,1.1732,1.1886,1.1845,1.2197,1.2358,1.2989,1.3378,1.3863,1.4402,1.4648,1.4847,1.4886,1.4993,1.508,1.507,1.5012,1.5032,1.5216,1.4915,1.4834,1.4853,1.5137,1.5225,1.5303,1.5362,1.5371,1.5352,1.5361,1.5381,1.54,1.542,1.542,1.542,1.542,1.542,1.5381,1.5342,1.5303,1.5225,1.5225,1.5283,1.5254,1.5215,1.5167,1.5098,1.5117,1.5078,1.459,1.4258,1.4133,1.4016,1.388,1.3903,1.4084,1.4629,1.5414,1.5964,1.6416,1.7015,1.5825,1.5825,1.5825,1.5825,1.5825,1.5825,1.5825,1.5825,1.5825,1.5825,1.5825,1.5825,1.5825,1.5825,1.5825,1.5825,1.5825,1.5825,1.5825,1.5771,1.5711,1.5251,1.4656,1.4442,1.4289,1.4128,1.4095,1.4048,1.3955,1.372,1.352,1.34,1.3012,1.277,1.2656,1.2425,1.2278,1.2164,1.2,1.1886,1.1772,1.1463,1.1316,1.1289,1.1035,1.0889,1.0855,1.07,1.0586,1.0586,1.0533,1.0535,1.0719,1.0667,1.0927,1.1541,1.1744,1.203,1.2449,1.256,1.2695,1.2928,1.3012,1.325,1.3438,1.3575,1.3636,1.3636,1.3614,1.3692,1.3683,1.3731,1.3941,1.4471,1.4905,1.5216,1.5264,1.5332,1.542,1.542,1.5459,1.5478,1.5459,1.5488,1.5478,1.5469,1.5488,1.5488,1.5547,1.5576,1.5644,1.5478,1.541,1.541,1.54,1.54,1.54,1.5391,1.5381,1.5391,1.5244,1.5107,1.4971,1.4715,1.4512,1.4367,1.4202,1.4055,1.4169,1.4373,1.4774,1.5394,1.5713,1.6123,1.69,1.5825,1.5825,1.5825,1.5825,1.5825,1.5825,1.5825,1.5825,1.5825,1.5825,1.5825,1.5825,1.5825,1.5825,1.5825,1.5825,1.5825,1.5825,1.5825,1.5825,1.5818,1.5464,1.4957,1.4689,1.4429,1.4269,1.4148,1.4088,1.4055,1.3908,1.3774,1.356,1.33,1.3112,1.2965,1.2683,1.2529,1.2476,1.2248,1.2087,1.2031,1.1764,1.163,1.1557,1.1336,1.1142,1.1142,1.1015,1.0835,1.0667,1.0586,1.0586,1.0586,1.0586,1.0807,1.1288,1.1288,1.1531,1.1849,1.1996,1.2182,1.2412,1.2512,1.2696,1.2931,1.3009,1.2995,1.3223,1.317,1.3244,1.3335,1.3368,1.358,1.4115,1.4863,1.5438,1.5624,1.5356,1.5482,1.5738,1.5957,1.5869,1.5742,1.583,1.583,1.5801,1.5947,1.5908,1.5879,1.5889,1.5917,1.5878,1.5849,1.5927,1.5956,1.5956,1.5917,1.5859,1.583,1.5761,1.5518,1.5303,1.5186,1.5039,1.4814,1.4611,1.4543,1.4504,1.4598,1.482,1.5066,1.5303,1.5664,1.6153,1.6874,1.5825,1.5825,1.5825,1.5825,1.5825,1.5825,1.5825,1.5825,1.5825,1.5825,1.5825,1.5825,1.5825,1.5825,1.5825,1.5825,1.5825,1.5825,1.5825,1.5825,1.5812,1.5591,1.5378,1.4923,1.4643,1.4476,1.4235,1.4135,1.4095,1.4068,1.3941,1.3706,1.3606,1.3453,1.3233,1.2985,1.2831,1.2717,1.2516,1.2311,1.2238,1.2031,1.1924,1.1899,1.1623,1.1402,1.1369,1.1349,1.1176,1.0713,1.0653,1.064,1.062,1.0586,1.0618,1.0656,1.0744,1.0776,1.0796,1.1031,1.1241,1.1994,1.2024,1.2158,1.2742,1.2813,1.2712,1.2876,1.318,1.3081,1.3287,1.3538,1.377,1.4015,1.4724,1.5396,1.5909,1.556,1.5526,1.6493,1.6646,1.6514,1.6387,1.6416,1.6572,1.6191,1.6309,1.6287,1.6299,1.6328,1.6453,1.6629,1.6609,1.659,1.6599,1.6599,1.6541,1.6482,1.6414,1.6297,1.5927,1.5742,1.5605,1.5459,1.5332,1.5234,1.5166,1.5156,1.5117,1.5097,1.5206,1.5457,1.5787,1.6362,1.7046,1.5825,1.5825,1.5825,1.5825,1.5825,1.5825,1.5825,1.5825,1.5825,1.5825,1.5825,1.5825,1.5825,1.5825,1.5825,1.5825,1.5825,1.5825,1.5825,1.5825,1.5825,1.5805,1.5665,1.5331,1.4963,1.4649,1.4476,1.4309,1.4155,1.4095,1.4055,1.3975,1.3726,1.3573,1.3487,1.326,1.3018,1.2831,1.2717,1.2532,1.2351,1.2271,1.2204,1.2158,1.1917,1.1663,1.147,1.143,1.1363,1.1216,1.1035,1.0855,1.0707,1.064,1.0646,1.0653,1.0665,1.0891,1.1307,1.1219,1.1571,1.2655,1.2087,1.19,1.2755,1.2182,1.1866,1.1857,1.183,1.2176,1.2487,1.283,1.3465,1.4081,1.4495,1.5319,1.6545,1.6587,1.6376,1.6653,1.6765,1.6668,1.6611,1.6658,1.6707,1.6621,1.666,1.6668,1.6726,1.6775,1.6931,1.7155,1.7087,1.7019,1.7019,1.7028,1.7028,1.7019,1.698,1.6931,1.656,1.6336,1.6309,1.6133,1.5948,1.583,1.5723,1.5488,1.5391,1.5371,1.5362,1.5594,1.5941,1.6566,1.7303,1.5825,1.5825,1.5825,1.5825,1.5825,1.5825,1.5825,1.5825,1.5825,1.5825,1.5825,1.5825,1.5825,1.5825,1.5825,1.5825,1.5825,1.5825,1.5825,1.5825,1.5825,1.5825,1.5812,1.5665,1.5351,1.4937,1.4623,1.4429,1.4302,1.4162,1.4082,1.4088,1.3921,1.3881,1.3773,1.3567,1.3347,1.3186,1.3058,1.2851,1.2596,1.2543,1.2449,1.2318,1.2151,1.1984,1.187,1.1815,1.1764,1.1637,1.1483,1.1269,1.1029,1.0969,1.0962,1.0962,1.0962,1.1126,1.1404,1.1414,1.155,1.2522,1.181,1.1832,1.2003,1.1662,1.1813,1.2102,1.2401,1.2498,1.3123,1.3577,1.4251,1.4559,1.5053,1.5885,1.6691,1.6666,1.671,1.7083,1.7383,1.7246,1.7158,1.7106,1.7087,1.7109,1.7344,1.7393,1.7441,1.748,1.7418,1.7506,1.7438,1.7389,1.7422,1.7451,1.75,1.7519,1.7539,1.7486,1.734,1.7217,1.7109,1.6768,1.6377,1.6338,1.618,1.5947,1.5811,1.5956,1.6005,1.5917,1.6158,1.6857,1.7651,1.5825,1.5825,1.5825,1.5825,1.5825,1.5825,1.5825,1.5825,1.5825,1.5825,1.5825,1.5825,1.5825,1.5825,1.5825,1.5825,1.5825,1.5825,1.5825,1.5825,1.5825,1.5825,1.5818,1.5724,1.5624,1.5411,1.4977,1.4703,1.4543,1.4315,1.4222,1.4162,1.4088,1.4041,1.4001,1.3813,1.3606,1.3493,1.336,1.3126,1.2884,1.2797,1.261,1.2345,1.2278,1.2258,1.2218,1.2211,1.2164,1.1993,1.1973,1.1804,1.1623,1.1415,1.143,1.1403,1.1315,1.1499,1.1668,1.1635,1.1627,1.173,1.1605,1.1722,1.184,1.1852,1.2053,1.2586,1.2933,1.3247,1.4538,1.4533,1.477,1.5211,1.5904,1.6428,1.6677,1.6464,1.6812,1.7644,1.7793,1.7646,1.7637,1.7627,1.7607,1.7627,1.7861,1.8008,1.8008,1.7988,1.7861,1.7812,1.7701,1.7662,1.7695,1.7686,1.7754,1.7783,1.7871,1.7871,1.7881,1.7734,1.7471,1.7109,1.6816,1.6736,1.6599,1.6317,1.6317,1.658,1.6521,1.6297,1.6652,1.7223,1.7943,1.5825,1.5825,1.5825,1.5825,1.5825,1.5825,1.5825,1.5825,1.5825,1.5825,1.5825,1.5825,1.5825,1.5825,1.5825,1.5825,1.5825,1.5825,1.5825,1.5825,1.5825,1.5825,1.5825,1.5825,1.5738,1.5698,1.5378,1.511,1.4863,1.4609,1.4442,1.4389,1.4222,1.4122,1.4088,1.4015,1.3861,1.3686,1.3573,1.3427,1.316,1.2904,1.267,1.2371,1.2331,1.2305,1.2305,1.2305,1.2271,1.2238,1.2231,1.2191,1.2037,1.1697,1.1516,1.1503,1.1516,1.1716,1.2129,1.2026,1.2661,1.3284,1.2763,1.2561,1.2791,1.2582,1.2337,1.2537,1.2701,1.2743,1.2792,1.3876,1.4466,1.4966,1.5593,1.6211,1.7135,1.7279,1.7095,1.8027,1.8081,1.7988,1.792,1.7881,1.7842,1.7803,1.791,1.8008,1.8008,1.8008,1.7969,1.7959,1.7959,1.7949,1.7949,1.793,1.793,1.791,1.7949,1.7949,1.7959,1.7978,1.7764,1.7422,1.7227,1.7148,1.6963,1.6748,1.6746,1.6921,1.6794,1.6629,1.7002,1.7414,1.7926,1.5825,1.5825,1.5825,1.5825,1.5825,1.5825,1.5825,1.5825,1.5825,1.5825,1.5825,1.5825,1.5825,1.5825,1.5825,1.5825,1.5825,1.5825,1.5825,1.5825,1.5825,1.5825,1.5825,1.5825,1.5825,1.5792,1.5665,1.5464,1.5184,1.489,1.4696,1.4509,1.4362,1.4242,1.4122,1.4075,1.4008,1.3881,1.3854,1.3686,1.3373,1.3045,1.2717,1.2596,1.2392,1.2311,1.2305,1.2305,1.2305,1.2298,1.2305,1.2305,1.2218,1.2078,1.1864,1.1857,1.1857,1.197,1.2409,1.224,1.254,1.3021,1.2634,1.2549,1.2776,1.2572,1.2516,1.2966,1.3665,1.3803,1.3954,1.4244,1.4884,1.5404,1.5911,1.6757,1.7558,1.7834,1.8161,1.8411,1.8247,1.8135,1.7998,1.7978,1.7998,1.8008,1.8037,1.8066,1.8105,1.8135,1.8184,1.8164,1.8193,1.8193,1.8203,1.8213,1.8223,1.8184,1.8164,1.8164,1.8125,1.8174,1.8037,1.7773,1.7637,1.7578,1.7471,1.7314,1.7305,1.7266,1.7187,1.7158,1.7291,1.7622,1.8107,1.5825,1.5825,1.5825,1.5825,1.5825,1.5825,1.5825,1.5825,1.5825,1.5825,1.5825,1.5825,1.5825,1.5825,1.5825,1.5825,1.5825,1.5825,1.5825,1.5825,1.5825,1.5825,1.5825,1.5825,1.5825,1.5825,1.5805,1.5712,1.5471,1.519,1.493,1.4756,1.4643,1.4422,1.4235,1.4135,1.4108,1.4088,1.4082,1.3935,1.3587,1.32,1.2924,1.2878,1.2643,1.2492,1.2445,1.2432,1.2371,1.2331,1.2305,1.2305,1.2305,1.2305,1.2305,1.2305,1.2305,1.2305,1.2291,1.2308,1.2331,1.2545,1.2365,1.2331,1.2482,1.2662,1.2794,1.3579,1.408,1.4477,1.4296,1.4848,1.5077,1.5476,1.6263,1.7263,1.7731,1.8137,1.8657,1.8718,1.8455,1.8437,1.8477,1.8467,1.8555,1.8564,1.8584,1.8564,1.8584,1.8516,1.8516,1.8447,1.8428,1.8437,1.8467,1.8525,1.8555,1.8584,1.8574,1.8584,1.8486,1.8408,1.8271,1.8203,1.81,1.8032,1.7969,1.7822,1.7705,1.7617,1.7578,1.7607,1.7676,1.7845,1.8227,1.5825,1.5825,1.5825,1.5825,1.5825,1.5825,1.5825,1.5825,1.5825,1.5825,1.5825,1.5825,1.5825,1.5825,1.5825,1.5825,1.5825,1.5825,1.5825,1.5825,1.5825,1.5825,1.5825,1.5825,1.5825,1.5825,1.5825,1.5771,1.5685,1.5458,1.5317,1.5164,1.4796,1.4502,1.4469,1.4309,1.4095,1.4102,1.4095,1.3948,1.366,1.3507,1.3367,1.3206,1.3066,1.2926,1.277,1.273,1.265,1.2392,1.2345,1.2325,1.2305,1.2305,1.2305,1.2305,1.2305,1.2305,1.2318,1.2305,1.2345,1.2351,1.2345,1.2489,1.2697,1.2886,1.3077,1.3178,1.3567,1.3666,1.3747,1.3719,1.4027,1.4772,1.5697,1.6712,1.7461,1.8723,1.9219,1.9383,1.9248,1.9199,1.9199,1.917,1.915,1.9141,1.9121,1.9082,1.9014,1.8906,1.8867,1.8799,1.8779,1.8779,1.876,1.8818,1.8867,1.8936,1.8945,1.8955,1.8916,1.8838,1.8789,1.8721,1.8598,1.8393,1.8149,1.8047,1.7988,1.791,1.7812,1.7852,1.7949,1.8168,1.8293,1.5825,1.5825,1.5825,1.5825,1.5825,1.5825,1.5825,1.5825,1.5825,1.5825,1.5825,1.5825,1.5825,1.5825,1.5825,1.5825,1.5825,1.5825,1.5825,1.5825,1.5825,1.5825,1.5825,1.5825,1.5825,1.5825,1.5825,1.5825,1.5772,1.5712,1.5585,1.5371,1.515,1.4937,1.4783,1.4643,1.4496,1.4355,1.4182,1.4028,1.3881,1.3693,1.3547,1.3413,1.3313,1.316,1.3053,1.3006,1.2959,1.2819,1.2819,1.2819,1.2819,1.2826,1.2826,1.2826,1.2826,1.2665,1.2371,1.2331,1.2412,1.2569,1.2579,1.2737,1.2959,1.3133,1.3233,1.32,1.3817,1.3838,1.3782,1.4564,1.486,1.5379,1.6,1.7069,1.816,1.902,1.9822,1.9916,2.0008,1.992,1.9736,1.9541,1.9453,1.9404,1.9365,1.9316,1.9248,1.915,1.915,1.918,1.917,1.917,1.9141,1.9141,1.915,1.9235,1.9199,1.9238,1.9346,1.9316,1.9258,1.9141,1.8994,1.874,1.8393,1.8198,1.8144,1.8066,1.8008,1.8057,1.8105,1.8076,1.8428,1.5825,1.5825,1.5825,1.5825,1.5825,1.5825,1.5825,1.5825,1.5825,1.5825,1.5825,1.5825,1.5825,1.5825,1.5825,1.5825,1.5825,1.5825,1.5825,1.5825,1.5825,1.5825,1.5825,1.5825,1.5825,1.5825,1.5825,1.5825,1.5825,1.5792,1.5691,1.5498,1.5378,1.5257,1.5104,1.4937,1.477,1.4489,1.4309,1.4175,1.4041,1.3868,1.3794,1.3694,1.3561,1.3353,1.3287,1.328,1.3267,1.3173,1.3146,1.312,1.3133,1.3113,1.312,1.312,1.3113,1.2979,1.2719,1.2625,1.2659,1.2792,1.2966,1.31,1.3273,1.3353,1.3708,1.3964,1.4078,1.4177,1.4323,1.5578,1.5646,1.6277,1.7263,1.8302,1.9146,1.9751,2.0169,2.0245,2.0351,2.0439,2.0243,1.993,1.9774,1.9705,1.9646,1.958,1.9561,1.9541,1.9629,1.9717,1.9746,1.9746,1.9727,1.9658,1.9637,1.9568,1.9568,1.9656,1.9795,1.9766,1.9668,1.9531,1.9394,1.9199,1.8965,1.8613,1.8291,1.8301,1.8256,1.8232,1.8203,1.8252,1.8627,1.5825,1.5825,1.5825,1.5825,1.5825,1.5825,1.5825,1.5825,1.5825,1.5825,1.5825,1.5825,1.5825,1.5825,1.5825,1.5825,1.5825,1.5825,1.5825,1.5825,1.5825,1.5825,1.5825,1.5825,1.5825,1.5825,1.5825,1.5825,1.5825,1.5825,1.5758,1.5724,1.5565,1.5431,1.5297,1.5144,1.493,1.4689,1.4536,1.4376,1.4229,1.4102,1.4062,1.4055,1.4008,1.3901,1.3593,1.3573,1.35,1.334,1.334,1.3333,1.3367,1.336,1.3367,1.3367,1.3353,1.3273,1.3166,1.3053,1.312,1.324,1.3347,1.3493,1.3567,1.3874,1.4427,1.4923,1.4687,1.4703,1.5034,1.5726,1.6026,1.632,1.7332,1.8417,1.9244,2.0031,2.0391,2.0557,2.0615,2.0615,2.0605,2.0273,2.0184,2.0116,2.0145,2.0078,2.0204,2.0214,2.0312,2.039,2.0419,2.0439,2.0458,2.0361,2.0165,2.0126,2.0136,2.0253,2.04,2.0302,2.0077,2.0029,1.9902,1.9707,1.9531,1.9307,1.9053,1.8695,1.8559,1.8559,1.8909,1.9174,1.9456,1.5825,1.5825,1.5825,1.5825,1.5825,1.5825,1.5825,1.5825,1.5825,1.5825,1.5825,1.5825,1.5825,1.5825,1.5825,1.5825,1.5825,1.5825,1.5825,1.5825,1.5825,1.5825,1.5825,1.5825,1.5825,1.5825,1.5825,1.5825,1.5825,1.5825,1.5825,1.5772,1.5691,1.5691,1.5571,1.5378,1.517,1.5037,1.4877,1.4754,1.4636,1.4429,1.4355,1.4355,1.4135,1.4055,1.3928,1.388,1.3848,1.3768,1.3728,1.3701,1.3681,1.3694,1.3694,1.3694,1.3687,1.3694,1.3614,1.3454,1.3287,1.348,1.3686,1.3901,1.3881,1.4035,1.4243,1.4566,1.495,1.5055,1.4657,1.5786,1.6699,1.6511,1.7196,1.8589,1.9473,2.0349,2.0673,2.084,2.0723,2.0615,2.0615,2.0576,2.0556,2.0556,2.0595,2.0615,2.0615,2.0615,2.0615,2.0615,2.0615,2.0615,2.0615,2.0615,2.0615,2.0615,2.0615,2.0615,2.0615,2.0586,2.0419,2.0439,2.0342,2.0136,1.9971,2.0,1.9736,1.9228,1.9053,1.9033,1.947,2.0007,2.0647,1.5825,1.5825,1.5825,1.5825,1.5825,1.5825,1.5825,1.5825,1.5825,1.5825,1.5825,1.5825,1.5825,1.5825,1.5825,1.5825,1.5825,1.5825,1.5825,1.5825,1.5825,1.5825,1.5825,1.5825,1.5825,1.5825,1.5825,1.5825,1.5825,1.5825,1.5825,1.5825,1.5825,1.5812,1.5765,1.5645,1.5491,1.5351,1.5231,1.5068,1.4981,1.477,1.4656,1.4609,1.4389,1.4255,1.4182,1.4128,1.4048,1.4028,1.4035,1.4062,1.4075,1.4088,1.4088,1.4088,1.4088,1.4088,1.3968,1.3801,1.3567,1.3781,1.3915,1.4048,1.4088,1.413,1.4292,1.4748,1.5118,1.5155,1.464,1.635,1.738,1.7377,1.8956,2.0245,2.0388,2.0951,2.1063,2.1173,2.0957,2.081,2.0713,2.0713,2.0615,2.0615,2.0615,2.0615,2.0615,2.0615,2.0615,2.0615,2.0615,2.0615,2.0615,2.0615,2.0615,2.0615,2.0615,2.0615,2.0615,2.0615,2.0615,2.0546,2.0488,2.0419,2.038,2.0331,1.999,1.96,1.9512,1.9473,1.989,2.0512,2.1901,1.5825,1.5825,1.5825,1.5825,1.5825,1.5825,1.5825,1.5825,1.5825,1.5825,1.5825,1.5825,1.5825,1.5825,1.5825,1.5825,1.5825,1.5825,1.5825,1.5825,1.5825,1.5825,1.5825,1.5825,1.5825,1.5825,1.5825,1.5825,1.5825,1.5825,1.5825,1.5825,1.5825,1.5825,1.5825,1.5818,1.5671,1.5451,1.5404,1.5257,1.5117,1.5055,1.4957,1.489,1.4669,1.4522,1.4482,1.4349,1.4282,1.4262,1.4188,1.4168,1.4155,1.4108,1.4095,1.4088,1.4088,1.4095,1.4088,1.4068,1.4095,1.4075,1.4162,1.4182,1.4142,1.422,1.4655,1.5339,1.534,1.5455,1.6158,1.725,1.7859,1.8548,2.0014,2.0821,2.0907,2.1436,2.1551,2.1406,2.1289,2.1142,2.1025,2.0869,2.0683,2.0615,2.0615,2.0615,2.0615,2.0615,2.0615,2.0615,2.0615,2.0615,2.0615,2.0615,2.0615,2.0615,2.0615,2.0615,2.0615,2.0615,2.0615,2.0615,2.0576,2.0517,2.0546,2.0586,2.0273,1.9971,1.9941,1.9984,2.0379,2.1094,2.2464,1.5825,1.5825,1.5825,1.5825,1.5825,1.5825,1.5825,1.5825,1.5825,1.5825,1.5825,1.5825,1.5825,1.5825,1.5825,1.5825,1.5825,1.5825,1.5825,1.5825,1.5825,1.5825,1.5825,1.5825,1.5825,1.5825,1.5825,1.5825,1.5825,1.5825,1.5825,1.5825,1.5825,1.5825,1.5825,1.5825,1.5704,1.5651,1.5678,1.5631,1.5518,1.5357,1.5244,1.5283,1.497,1.4823,1.481,1.47,1.464,1.4606,1.4482,1.4376,1.4329,1.4275,1.4135,1.4115,1.4108,1.4188,1.4362,1.4496,1.4563,1.4469,1.4468,1.4586,1.4653,1.4707,1.5343,1.6123,1.624,1.6633,1.7717,1.8094,1.8503,1.8665,1.9613,2.0241,2.0647,2.1594,2.2031,2.1719,2.1523,2.1113,2.0859,2.0801,2.0674,2.0615,2.0615,2.0615,2.0615,2.0615,2.0615,2.0615,2.0615,2.0615,2.0615,2.0615,2.0615,2.0615,2.0615,2.0615,2.0615,2.0615,2.0615,2.0615,2.0615,2.0615,2.0615,2.0605,2.0556,2.0381,2.0283,2.0244,2.0484,2.1476,2.2978,1.5825,1.5825,1.5825,1.5825,1.5825,1.5825,1.5825,1.5825,1.5825,1.5825,1.5825,1.5825,1.5825,1.5825,1.5825,1.5825,1.5825,1.5825,1.5825,1.5825,1.5825,1.5825,1.5825,1.5825,1.5825,1.5825,1.5825,1.5825,1.5825,1.5825,1.5825,1.5825,1.5825,1.5825,1.5825,1.5825,1.5771,1.5792,1.5785,1.5792,1.5732,1.5651,1.5551,1.5464,1.5297,1.5162,1.5129,1.5089,1.5022,1.4961,1.481,1.4669,1.4603,1.4559,1.4432,1.4396,1.4416,1.4502,1.4689,1.479,1.4836,1.487,1.5045,1.5367,1.5734,1.614,1.6667,1.7257,1.7396,1.7926,1.851,1.8779,1.9401,1.9627,2.0082,2.0769,2.1151,2.2107,2.2197,2.1894,2.1621,2.1172,2.0742,2.0693,2.0615,2.0615,2.0615,2.0615,2.0615,2.0615,2.0615,2.0615,2.0615,2.0615,2.0615,2.0615,2.0615,2.0615,2.0615,2.0615,2.0615,2.0615,2.0615,2.0615,2.0615,2.0615,2.0615,2.0595,2.0566,2.0566,2.0546,2.0546,2.0644,2.168,2.3036,1.5825,1.5825,1.5825,1.5825,1.5825,1.5825,1.5825,1.5825,1.5825,1.5825,1.5825,1.5825,1.5825,1.5825,1.5825,1.5825,1.5825,1.5825,1.5825,1.5825,1.5825,1.5825,1.5825,1.5825,1.5825,1.5825,1.5825,1.5825,1.5825,1.5825,1.5825,1.5825,1.5825,1.5825,1.5825,1.5825,1.5825,1.5825,1.5825,1.5825,1.5798,1.5798,1.5752,1.5671,1.5545,1.5431,1.5351,1.5244,1.513,1.5102,1.5048,1.5028,1.5015,1.5008,1.5008,1.4988,1.4948,1.5001,1.4983,1.5089,1.5184,1.5401,1.6192,1.6603,1.6706,1.6899,1.733,1.782,1.8144,1.8608,1.9065,1.9954,2.0802,2.1167,2.1597,2.1912,2.2119,2.2344,2.2227,2.2021,2.1797,2.1377,2.0801,2.0615,2.0615,2.0615,2.0615,2.0615,2.0615,2.0615,2.0615,2.0615,2.0615,2.0615,2.0615,2.0615,2.0615,2.0615,2.0615,2.0615,2.0615,2.0615,2.0615,2.0615,2.0615,2.0615,2.0615,2.0615,2.0605,2.0605,2.0722,2.0722,2.075,2.1413,2.2553,1.5825,1.5825,1.5825,1.5825,1.5825,1.5825,1.5825,1.5825,1.5825,1.5825,1.5825,1.5825,1.5825,1.5825,1.5825,1.5825,1.5825,1.5825,1.5825,1.5825,1.5825,1.5825,1.5825,1.5825,1.5825,1.5825,1.5825,1.5825,1.5825,1.5825,1.5825,1.5825,1.5825,1.5825,1.5825,1.5825,1.5825,1.5825,1.5825,1.5825,1.5825,1.5825,1.5825,1.5778,1.5738,1.5658,1.5611,1.5578,1.5518,1.5531,1.5357,1.5277,1.5271,1.5142,1.5015,1.5035,1.5156,1.5277,1.5311,1.5464,1.5591,1.5865,1.6703,1.6647,1.6579,1.6738,1.7394,1.8271,1.8738,1.9109,1.9819,2.0704,2.1189,2.1466,2.1793,2.2029,2.2178,2.2246,2.2129,2.1963,2.1758,2.126,2.0713,2.0615,2.0615,2.0615,2.0615,2.0615,2.0615,2.0615,2.0615,2.0615,2.0615,2.0615,2.0615,2.0615,2.0615,2.0615,2.0615,2.0615,2.0615,2.0615,2.0615,2.0615,2.0615,2.0615,2.0615,2.0615,2.0615,2.0867,2.1011,2.0934,2.1039,2.1849,2.259,1.5825,1.5825,1.5825,1.5825,1.5825,1.5825,1.5825,1.5825,1.5825,1.5825,1.5825,1.5825,1.5825,1.5825,1.5825,1.5825,1.5825,1.5825,1.5825,1.5825,1.5825,1.5825,1.5825,1.5825,1.5825,1.5825,1.5825,1.5825,1.5825,1.5825,1.5825,1.5825,1.5825,1.5825,1.5825,1.5825,1.5825,1.5825,1.5825,1.5825,1.5825,1.5825,1.5825,1.5825,1.5825,1.5825,1.5825,1.5825,1.5825,1.5825,1.5611,1.5571,1.5558,1.5398,1.5324,1.5371,1.5458,1.5565,1.5591,1.5651,1.5792,1.6109,1.6943,1.6821,1.6901,1.7069,1.8218,1.9232,1.934,1.9612,2.0482,2.1206,2.1247,2.1282,2.1539,2.1795,2.1924,2.206,2.1973,2.1826,2.1455,2.0977,2.0723,2.0654,2.0615,2.0615,2.0615,2.0615,2.0615,2.0615,2.0615,2.0615,2.0615,2.0615,2.0615,2.0615,2.0615,2.0615,2.0615,2.0615,2.0615,2.0615,2.0615,2.0615,2.0615,2.0615,2.0615,2.0615,2.0644,2.0905,2.1116,2.1193,2.1669,2.2898,2.3526,1.5825,1.5825,1.5825,1.5825,1.5825,1.5825,1.5825,1.5825,1.5825,1.5825,1.5825,1.5825,1.5825,1.5825,1.5825,1.5825,1.5825,1.5825,1.5825,1.5825,1.5825,1.5825,1.5825,1.5825,1.5825,1.5825,1.5825,1.5825,1.5825,1.5825,1.5825,1.5825,1.5825,1.5825,1.5825,1.5825,1.5825,1.5825,1.5825,1.5825,1.5825,1.5825,1.5825,1.5825,1.5825,1.5825,1.5825,1.5825,1.5825,1.5825,1.5818,1.5798,1.5778,1.5758,1.5758,1.594,1.5974,1.5886,1.5987,1.6042,1.6136,1.648,1.6943,1.7217,1.749,1.794,1.9123,1.9306,1.9298,1.9793,2.0544,2.1118,2.1352,2.1367,2.152,2.1574,2.1582,2.1641,2.1553,2.1406,2.1162,2.0772,2.0683,2.0615,2.0615,2.0615,2.0615,2.0615,2.0615,2.0615,2.0615,2.0615,2.0615,2.0615,2.0615,2.0615,2.0615,2.0615,2.0615,2.0615,2.0615,2.0615,2.0615,2.0615,2.0615,2.0615,2.0615,2.0615,2.0605,2.0712,2.0972,2.1298,2.2226,2.3562,2.4192,1.5825,1.5825,1.5825,1.5825,1.5825,1.5825,1.5825,1.5825,1.5825,1.5825,1.5825,1.5825,1.5825,1.5825,1.5825,1.5825,1.5825,1.5825,1.5825,1.5825,1.5825,1.5825,1.5825,1.5825,1.5825,1.5825,1.5825,1.5825,1.5825,1.5825,1.5825,1.5825,1.5825,1.5825,1.5825,1.5825,1.5825,1.5825,1.5825,1.5825,1.5825,1.5825,1.5825,1.5825,1.5825,1.5825,1.5825,1.5825,1.5825,1.5825,1.5825,1.5825,1.5818,1.5825,1.5825,1.5967,1.6709,1.6756,1.6615,1.685,1.7171,1.7264,1.7723,1.8133,1.8588,1.9177,1.9451,1.936,1.9472,2.0048,2.0633,2.1153,2.1457,2.1514,2.1558,2.1443,2.1288,2.125,2.1191,2.1006,2.082,2.0752,2.0664,2.0615,2.0615,2.0615,2.0615,2.0615,2.0615,2.0615,2.0615,2.0615,2.0615,2.0615,2.0615,2.0615,2.0615,2.0615,2.0615,2.0615,2.0615,2.0615,2.0615,2.0615,2.0615,2.0615,2.0615,2.0615,2.0605,2.0818,2.126,2.1783,2.2813,2.412,2.4564,1.5825,1.5825,1.5825,1.5825,1.5825,1.5825,1.5825,1.5825,1.5825,1.5825,1.5825,1.5825,1.5825,1.5825,1.5825,1.5825,1.5825,1.5825,1.5825,1.5825,1.5825,1.5825,1.5825,1.5825,1.5825,1.5825,1.5825,1.5825,1.5825,1.5825,1.5825,1.5825,1.5825,1.5825,1.5825,1.5825,1.5825,1.5825,1.5825,1.5825,1.5825,1.5825,1.5825,1.5825,1.5825,1.5825,1.5825,1.5825,1.5825,1.5825,1.5825,1.5825,1.6015,1.6433,1.6669,1.7037,1.763,1.8172,1.7809,1.7902,1.8357,1.8365,1.9085,1.9753,1.9451,2.0034,2.0854,2.0764,2.044,2.0837,2.1491,2.2049,2.1888,2.1842,2.1935,2.1967,2.1758,2.1582,2.1406,2.1152,2.0986,2.085,2.0742,2.0615,2.0615,2.0615,2.0615,2.0654,2.0644,2.0615,2.0615,2.0615,2.0615,2.0615,2.0615,2.0615,2.0615,2.0615,2.0615,2.0615,2.0615,2.0615,2.0615,2.0615,2.0615,2.0615,2.0615,2.0615,2.1011,2.1375,2.1849,2.2366,2.3526,2.4564,2.5004,1.5825,1.5825,1.5825,1.5825,1.5825,1.5825,1.5825,1.5825,1.5825,1.5825,1.5825,1.5825,1.5825,1.5825,1.5825,1.5825,1.5825,1.5825,1.5825,1.5825,1.5825,1.5825,1.5825,1.5825,1.5825,1.5825,1.5825,1.5825,1.5825,1.5825,1.5825,1.5825,1.5825,1.5825,1.5825,1.5825,1.5825,1.5825,1.5825,1.5825,1.5825,1.5825,1.5825,1.5825,1.5825,1.5825,1.5825,1.5825,1.5825,1.5825,1.5825,1.5825,1.5967,1.648,1.7131,1.7544,1.8087,1.8634,1.881,1.8948,1.9085,1.9397,2.0567,2.0836,2.0395,2.0809,2.1623,2.1943,2.1569,2.1656,2.2307,2.2582,2.2353,2.222,2.234,2.2393,2.2139,2.1885,2.1621,2.1317,2.124,2.1103,2.0967,2.082,2.0772,2.0752,2.0703,2.0703,2.0703,2.0644,2.0615,2.0615,2.0615,2.0615,2.0615,2.0615,2.0615,2.0615,2.0615,2.0615,2.0615,2.0615,2.0615,2.0615,2.0615,2.0615,2.0615,2.0615,2.1116,2.1697,2.2,2.2515,2.3963,2.4933,2.5441,1.5825,1.5825,1.5825,1.5825,1.5825,1.5825,1.5825,1.5825,1.5825,1.5825,1.5825,1.5825,1.5825,1.5825,1.5825,1.5825,1.5825,1.5825,1.5825,1.5825,1.5825,1.5825,1.5825,1.5825,1.5825,1.5825,1.5825,1.5784,1.5912,1.5879,1.5852,1.5885,1.5879,1.5872,1.5811,1.5831,1.5878,1.5891,1.5932,1.5932,1.5899,1.5879,1.5832,1.5825,1.5825,1.5825,1.5825,1.5825,1.5825,1.5825,1.5825,1.5825,1.6015,1.6339,1.6943,1.7684,1.828,1.8503,1.8772,1.9222,1.9268,1.8993,1.9943,2.0755,2.0711,2.1203,2.1987,2.2677,2.2536,2.2536,2.293,2.293,2.2808,2.2711,2.2764,2.2578,2.2363,2.2129,2.1894,2.1777,2.1709,2.1631,2.1582,2.1515,2.1505,2.1387,2.1182,2.1162,2.1064,2.0859,2.0693,2.0703,2.0732,2.0615,2.0615,2.0615,2.0615,2.0615,2.0615,2.0615,2.0615,2.0615,2.0615,2.0615,2.0615,2.0615,2.0615,2.0615,2.1155,2.1669,2.1886,2.2553,2.4108,2.5264,2.5769]}]]